[[{"header":{"parameterUnit":"m.s-1","parameterCategory":1,"la1":30.6,"la2":28.766,"lo1":-90.7593,"lo2":-88.6598,"dx":0.0162,"dy":0.0183,"nx":116,"ny":114,"refTime":"2022-12-18T06:00:00:Z","depth":0,"parameterNumber":2,"parameterNumberName":"U-component_of_WINDS"},"data":[0.0,0.0,0.0,0.0,0.0,0.0,0.0,0.0,0.0,0.0,0.0,0.0,0.0,0.0,0.0,0.0,0.0,0.0,0.0,0.0,0.0,0.0,0.0,0.0,0.0,0.0,0.0,0.0,0.0,0.0,0.0,0.0,0.0,0.0,0.0,0.0,0.0,0.0,0.0,0.0,0.0,0.0,0.0,0.0,0.0,0.0,0.0,0.0,0.0,0.0,0.0,0.0,0.0,0.0,0.0,0.0,0.0,0.0,0.0,0.0,0.0,0.0,0.0,0.0,0.0,0.0,0.0,0.0,0.0,0.0,0.0,0.0,0.0,0.0,0.0,0.0,0.0,0.0,0.0,0.0,0.0,0.0,0.0,0.0,0.0,0.0,0.0,0.0,0.0,0.0,0.0,0.0,0.0,0.0,0.0,0.0,0.0,0.0,0.0,0.0,0.0,0.0,0.0,0.0,0.0,0.0,0.0,0.0,0.0,0.0,0.0,0.0,0.0,0.0,0.0,0.0,0.0,0.0,0.0,0.0,0.0,0.0,0.0,0.0,0.0,0.0,0.0,0.0,0.0,0.0,0.0,0.0,0.0,0.0,0.0,0.0,0.0,0.0,0.0,0.0,0.0,0.0,0.0,0.0,0.0,0.0,0.0,0.0,0.0,0.0,0.0,0.0,0.0,0.0,0.0,0.0,0.0,0.0,0.0,0.0,0.0,0.0,0.0,0.0,0.0,0.0,0.0,0.0,0.0,0.0,0.0,0.0,0.0,0.0,0.0,0.0,0.0,0.0,0.0,0.0,0.0,0.0,0.0,0.0,0.0,0.0,0.0,0.0,0.0,0.0,0.0,0.0,0.0,0.0,0.0,0.0,0.0,0.0,0.0,0.0,0.0,0.0,0.0,0.0,0.0,0.0,0.0,0.0,0.0,0.0,0.0,0.0,0.0,0.0,0.0,0.0,0.0,0.0,0.0,0.0,0.0,0.0,0.0,0.0,0.0,0.0,0.0,0.0,0.0,0.0,0.0,0.0,0.0,0.0,0.0,0.0,0.0,0.0,0.0,0.0,0.0,0.0,0.0,0.0,0.0,0.0,0.0,0.0,0.0,0.0,0.0,0.0,0.0,0.0,0.0,0.0,0.0,0.0,0.0,0.0,0.0,0.0,0.0,0.0,0.0,0.0,0.0,0.0,0.0,0.0,0.0,0.0,0.0,0.0,0.0,0.0,0.0,0.0,0.0,0.0,0.0,0.0,0.0,0.0,0.0,0.0,0.0,0.0,0.0,0.0,0.0,0.0,0.0,0.0,0.0,0.0,0.0,0.0,0.0,0.0,0.0,0.0,0.0,0.0,0.0,0.0,0.0,0.0,0.0,0.0,0.0,0.0,0.0,0.0,0.0,0.0,0.0,0.0,0.0,0.0,0.0,0.0,0.0,0.0,0.0,0.0,0.0,0.0,0.0,0.0,0.0,0.0,0.0,0.0,0.0,0.0,0.0,0.0,0.0,0.0,0.0,0.0,0.0,0.0,0.0,0.0,0.0,0.0,0.0,0.0,0.0,0.0,0.0,0.0,0.0,0.0,0.0,0.0,0.0,0.0,0.0,0.0,0.0,0.0,0.0,0.0,0.0,0.0,0.0,0.0,0.0,0.0,0.0,0.0,0.0,0.0,0.0,0.0,0.0,0.0,0.0,0.0,0.0,0.0,0.0,0.0,0.0,0.0,0.0,0.0,0.0,0.0,0.0,0.0,0.0,0.0,0.0,0.0,0.0,0.0,0.0,0.0,0.0,0.0,0.0,0.0,0.0,0.0,0.0,0.0,0.0,0.0,0.0,0.0,0.0,0.0,0.0,0.0,0.0,0.0,0.0,0.0,0.0,0.0,0.0,0.0,0.0,0.0,0.0,0.0,0.0,0.0,0.0,0.0,0.0,0.0,0.0,0.0,0.0,0.0,0.0,0.0,0.0,0.0,0.0,0.0,0.0,0.0,0.0,0.0,0.0,0.0,0.0,0.0,0.0,0.0,0.0,0.0,0.0,0.0,0.0,0.0,0.0,0.0,0.0,0.0,0.0,0.0,0.0,0.0,0.0,0.0,0.0,0.0,0.0,0.0,0.0,0.0,0.0,0.0,0.0,0.0,0.0,0.0,0.0,0.0,0.0,0.0,0.0,0.0,0.0,0.0,0.0,0.0,0.0,0.0,0.0,0.0,0.0,0.0,0.0,0.0,0.0,0.0,0.0,0.0,0.0,0.0,0.0,0.0,0.0,0.0,0.0,0.0,0.0,0.0,0.0,0.0,0.0,0.0,0.0,0.0,0.0,0.0,0.0,0.0,0.0,0.0,0.0,0.0,0.0,0.0,0.0,0.0,0.0,0.0,0.0,0.0,0.0,0.0,0.0,0.0,0.0,0.0,0.0,0.0,0.0,0.0,0.0,0.0,0.0,0.0,0.0,0.0,0.0,0.0,0.0,0.0,0.0,0.0,0.0,0.0,0.0,0.0,0.0,0.0,0.0,0.0,0.0,0.0,0.0,0.0,0.0,0.0,0.0,0.0,0.0,0.0,0.0,0.0,0.0,0.0,0.0,0.0,0.0,0.0,0.0,0.0,0.0,0.0,0.0,0.0,0.0,0.0,0.0,0.0,0.0,0.0,0.0,0.0,0.0,0.0,0.0,0.0,0.0,0.0,0.0,0.0,0.0,0.0,0.0,0.0,0.0,0.0,0.0,0.0,0.0,0.0,0.0,0.0,0.0,0.0,0.0,0.0,0.0,0.0,0.0,0.0,0.0,0.0,0.0,0.0,0.0,0.0,0.0,0.0,0.0,0.0,0.0,0.0,0.0,0.0,0.0,0.0,0.0,0.0,0.0,0.0,0.0,0.0,0.0,0.0,0.0,0.0,0.0,0.0,0.0,0.0,0.0,0.0,0.0,0.0,0.0,0.0,0.0,0.0,0.0,0.0,0.0,0.0,0.0,0.0,0.0,0.0,0.0,0.0,0.0,0.0,0.0,0.0,0.0,0.0,0.0,0.0,0.0,0.0,0.0,0.0,0.0,0.0,0.0,0.0,0.0,0.0,0.0,0.0,0.0,0.0,0.0,0.0,0.0,0.0,0.0,0.0,0.0,0.0,0.0,0.0,0.0,0.0,0.0,0.0,0.0,0.0,0.0,0.0,0.0,0.0,0.0,0.0,0.0,0.0,0.0,0.0,0.0,0.0,0.0,0.0,0.0,0.0,0.0,0.0,0.0,0.0,0.0,0.0,0.0,0.0,0.0,0.0,0.0,0.0,0.0,0.0,0.0,0.0,0.0,0.0,0.0,0.0,0.0,0.0,0.0,0.0,0.0,0.0,0.0,0.0,0.0,0.0,0.0,0.0,0.0,0.0,0.0,0.0,0.0,0.0,0.0,0.0,0.0,0.0,0.0,0.0,0.0,0.0,0.0,0.0,0.0,0.0,0.0,0.0,0.0,0.0,0.0,0.0,0.0,0.0,0.0,0.0,0.0,0.0,0.0,0.0,0.0,0.0,0.0,0.0,0.0,0.0,0.0,0.0,0.0,0.0,0.0,0.0,0.0,0.0,0.0,0.0,0.0,0.0,0.0,0.0,0.0,0.0,0.0,0.0,0.0,0.0,0.0,0.0,0.0,0.0,0.0,0.0,0.0,0.0,0.0,0.0,0.0,0.0,0.0,0.0,0.0,0.0,0.0,0.0,0.0,0.0,0.0,0.0,0.0,0.0,0.0,0.0,0.0,0.0,0.0,0.0,0.0,0.0,0.0,0.0,0.0,0.0,0.0,0.0,0.0,0.0,0.0,0.0,0.0,0.0,0.0,0.0,0.0,0.0,0.0,0.0,0.0,0.0,0.0,0.0,0.0,0.0,0.0,0.0,0.0,0.0,0.0,0.0,0.0,0.0,0.0,0.0,0.0,0.0,0.0,0.0,0.0,0.0,0.0,0.0,0.0,0.0,0.0,0.0,0.0,0.0,0.0,0.0,0.0,0.0,0.0,0.0,0.0,0.0,0.0,0.0,0.0,0.0,0.0,0.0,0.0,0.0,0.0,0.0,0.0,0.0,0.0,0.0,0.0,0.0,0.0,0.0,0.0,0.0,0.0,0.0,0.0,0.0,0.0,0.0,0.0,0.0,0.0,0.0,0.0,0.0,0.0,0.0,0.0,0.0,0.0,0.0,0.0,0.0,0.0,0.0,0.0,0.0,0.0,0.0,0.0,0.0,0.0,0.0,0.0,0.0,0.0,0.0,0.0,0.0,0.0,0.0,0.0,0.0,0.0,0.0,0.0,0.0,0.0,0.0,0.0,0.0,0.0,0.0,0.0,0.0,0.0,0.0,0.0,0.0,0.0,0.0,0.0,0.0,0.0,0.0,0.0,0.0,0.0,0.0,0.0,0.0,0.0,0.0,0.0,0.0,0.0,0.0,0.0,0.0,0.0,0.0,0.0,0.0,0.0,0.0,0.0,0.0,0.0,0.0,0.0,0.0,0.0,0.0,0.0,0.0,0.0,0.0,0.0,0.0,0.0,0.0,0.0,0.0,0.0,0.0,0.0,0.0,0.0,0.0,0.0,0.0,0.0,0.0,0.0,0.0,0.0,0.0,0.0,0.0,0.0,0.0,0.0,0.0,0.0,0.0,0.0,0.0,0.0,0.0,0.0,0.0,0.0,0.0,0.0,0.0,0.0,0.0,0.0,0.0,0.0,0.0,0.0,0.0,0.0,0.0,0.0,0.0,0.0,0.0,0.0,0.0,0.0,0.0,0.0,0.0,0.0,0.0,0.0,0.0,0.0,0.0,0.0,0.0,0.0,0.0,0.0,0.0,0.0,0.0,0.0,0.0,0.0,0.0,0.0,0.0,0.0,0.0,0.0,0.0,0.0,0.0,0.0,0.0,0.0,0.0,0.0,0.0,0.0,0.0,0.0,0.0,0.0,0.0,0.0,0.0,0.0,0.0,0.0,0.0,0.0,0.0,0.0,0.0,0.0,0.0,0.0,0.0,0.0,0.0,0.0,0.0,0.0,0.0,0.0,0.0,0.0,0.0,0.0,0.0,0.0,0.0,0.0,0.0,0.0,0.0,0.0,0.0,0.0,0.0,0.0,0.0,0.0,0.0,0.0,0.0,0.0,0.0,0.0,0.0,0.0,0.0,0.0,0.0,0.0,0.0,0.0,0.0,0.0,0.0,0.0,0.0,0.0,0.0,0.0,0.0,0.0,0.0,0.0,0.0,0.0,0.0,0.0,0.0,0.0,0.0,0.0,0.0,0.0,0.0,0.0,0.0,0.0,0.0,0.0,0.0,0.0,0.0,0.0,0.0,0.0,0.0,0.0,0.0,0.0,0.0,0.0,0.0,0.0,0.0,0.0,0.0,0.0,0.0,0.0,0.0,0.0,0.0,0.0,0.0,0.0,0.0,0.0,0.0,0.0,0.0,0.0,0.0,0.0,0.0,0.0,0.0,0.0,0.0,0.0,0.0,0.0,0.0,0.0,0.0,0.0,0.0,0.0,0.0,0.0,0.0,0.0,0.0,0.0,0.0,0.0,0.0,0.0,0.0,0.0,0.0,0.0,0.0,0.0,0.0,0.0,0.0,0.0,0.0,0.0,0.0,0.0,0.0,0.0,0.0,0.0,0.0,0.0,0.0,0.0,0.0,0.0,0.0,0.0,0.0,0.0,0.0,0.0,0.0,0.0,0.0,0.0,0.0,0.0,0.0,0.0,0.0,0.0,0.0,0.0,0.0,0.0,0.0,0.0,0.0,0.0,0.0,0.0,0.0,0.0,0.0,0.0,0.0,0.0,0.0,0.0,0.0,0.0,0.0,0.0,0.0,0.0,0.0,0.0,0.0,0.0,0.0,0.0,0.0,0.0,0.0,0.0,0.0,0.0,0.0,0.0,0.0,0.0,0.0,0.0,0.0,0.0,0.0,0.0,0.0,0.0,0.0,0.0,0.0,0.0,0.0,0.0,0.0,0.0,0.0,0.0,0.0,0.0,0.0,0.0,0.0,0.0,0.0,0.0,0.0,0.0,0.0,0.0,0.0,0.0,0.0,0.0,0.0,0.0,0.0,0.0,0.0,0.0,0.0,0.0,0.0,2.3571,0.0,0.0,0.0,0.0,0.0,0.0,0.0,0.0,0.0,0.0,0.0,0.0,0.0,0.0,0.0,0.0,0.0,0.0,0.0,0.0,0.0,0.0,0.0,0.0,1.1003,1.0769,1.0232,1.0184,0.0,0.0,0.0,0.0,0.0,0.0,0.0,0.0,0.0,1.0581,1.1439,1.2314,1.4147,1.6894,1.6208,1.5069,1.3518,0.0,0.0,0.0,0.0,0.0,0.0,0.0,0.0,0.0,0.0,0.0,0.0,0.0,0.0,0.0,0.0,0.0,0.0,0.0,0.0,0.0,0.0,0.0,0.0,0.0,0.0,0.0,0.0,0.0,0.0,0.0,0.0,0.0,0.0,0.0,0.0,0.0,0.0,0.0,0.0,0.0,0.0,0.0,0.0,0.0,0.0,0.0,0.0,0.0,0.0,0.0,0.0,0.0,0.0,0.0,0.0,0.0,0.0,0.0,0.0,0.0,0.0,0.0,0.0,0.0,0.0,0.0,0.0,0.0,0.0,0.0,2.4674,0.0,0.0,0.0,0.0,0.0,0.0,0.0,0.0,0.0,0.0,0.0,0.0,0.0,0.0,0.0,0.0,0.0,0.0,0.0,0.0,0.0,1.2281,1.1472,1.1521,1.1422,1.099,1.083,1.0767,1.0767,1.0407,0.0,0.0,0.0,0.0,1.1169,1.1233,1.2026,1.3553,1.5255,1.7635,2.0593,2.1552,2.0444,1.7521,1.5134,0.0,0.0,0.0,0.0,0.0,0.0,0.0,0.0,0.0,0.0,0.0,0.0,0.0,0.0,0.0,0.0,0.0,0.0,0.0,0.0,0.0,0.0,0.0,0.0,0.0,0.0,0.0,0.0,0.0,0.0,0.0,0.0,0.0,0.0,0.0,0.0,0.0,0.0,0.0,0.0,0.0,0.0,0.0,0.0,0.0,0.0,0.0,0.0,0.0,0.0,0.0,0.0,0.0,0.0,0.0,0.0,0.0,0.0,0.0,0.0,0.0,0.0,0.0,2.9648,3.0195,3.0713,3.0156,3.0351,3.1006,2.8854,2.8588,2.9384,2.6215,0.0,0.0,0.0,0.0,0.0,0.0,0.0,0.0,0.0,0.0,0.0,0.0,0.0,0.0,0.0,0.0,0.0,0.0,0.0,1.2059,1.2823,1.2338,1.217,1.271,1.217,1.1806,1.1806,1.1487,0.0,0.0,0.0,0.0,1.1854,1.2201,1.3363,1.5351,1.9876,2.274,2.4055,2.4833,2.5103,2.4766,2.1468,1.9013,1.7344,0.0,0.0,0.0,0.0,0.0,0.0,0.0,0.0,0.0,0.0,0.0,0.0,0.0,0.0,0.0,0.0,0.0,0.0,0.0,0.0,0.0,0.0,0.0,0.0,0.0,0.0,0.0,0.0,0.0,0.0,0.0,0.0,0.0,0.0,0.0,0.0,0.0,0.0,0.0,0.0,0.0,2.1648,2.4563,0.0,0.0,0.0,0.0,0.0,0.0,0.0,0.0,0.0,0.0,0.0,0.0,0.0,2.8132,2.9168,3.0332,3.1348,3.2226,3.3379,3.4375,3.5137,3.4316,3.4219,3.4616,3.2561,0.0,3.0065,2.9556,0.0,0.0,0.0,0.0,0.0,0.0,0.0,0.0,0.0,0.0,0.0,0.0,0.0,0.0,0.0,0.0,0.0,0.0,0.0,0.0,0.0,1.398,1.4815,1.5516,1.6099,1.5912,1.4597,1.3993,0.0,0.0,0.0,1.2281,1.2615,1.4125,1.6619,2.0074,2.3662,2.5923,2.692,2.8465,2.9112,2.8954,2.7825,2.459,1.993,1.9782,0.0,0.0,0.0,0.0,0.0,0.0,0.0,0.0,0.0,0.0,0.0,0.0,0.0,0.0,0.0,0.0,0.0,0.0,0.0,0.0,0.0,0.0,0.0,0.0,0.0,0.0,0.0,0.0,0.0,0.0,0.0,0.0,0.0,0.0,0.0,0.0,0.0,0.0,0.0,2.1595,2.3746,2.5844,2.4742,2.3571,0.0,0.0,0.0,0.0,0.0,0.0,0.0,0.0,0.0,3.0039,3.0351,3.126,3.2832,3.3887,3.4726,3.5332,3.6387,3.6953,3.7035,3.5965,3.5496,3.537,3.3798,3.2648,3.176,2.9855,2.8442,2.7317,0.0,0.0,0.0,0.0,2.5294,2.5363,0.0,0.0,0.0,0.0,0.0,0.0,0.0,0.0,0.0,0.0,0.0,0.0,1.4064,1.5997,1.7578,1.837,1.9371,1.9181,1.7294,1.631,1.4866,1.2758,1.2869,1.314,1.3489,1.6492,2.0106,2.4311,2.6477,2.8064,2.9071,3.119,3.1895,3.1506,3.242,2.9125,2.2877,2.3061,2.0804,1.71,0.0,0.0,0.0,0.0,0.0,0.0,0.0,0.0,0.0,0.0,0.0,0.0,0.0,0.0,0.0,0.0,0.0,0.0,0.0,0.0,0.0,0.0,0.0,0.0,0.0,0.0,0.0,0.0,0.0,0.0,0.0,0.0,0.0,0.0,0.0,0.0,0.0,2.4168,2.5659,2.7181,2.6699,2.582,0.0,0.0,0.0,0.0,0.0,0.0,2.9266,2.9785,3.0713,3.2135,3.2744,3.3654,3.4956,3.5794,3.6366,3.6689,3.7335,3.7526,3.7244,3.6032,3.5374,3.5119,3.3818,3.3117,3.27,3.03,2.921,2.8994,2.7594,2.6789,2.6437,2.6954,2.7135,2.7251,0.0,0.0,0.0,0.0,0.0,0.0,0.0,0.0,0.0,0.0,0.0,1.5526,1.6853,1.8348,1.9729,2.0921,2.0514,1.9824,1.9016,1.7677,1.6179,1.4538,1.4187,1.4187,1.4518,1.9256,2.3305,2.655,2.7984,2.9246,3.0266,3.2196,3.2896,3.2488,3.3927,3.1669,2.6824,2.7233,2.5139,2.1468,2.0305,0.0,0.0,0.0,0.0,0.0,0.0,0.0,0.0,0.0,0.0,0.0,0.0,0.0,0.0,0.0,0.0,0.0,0.0,0.0,0.0,0.0,0.0,0.0,0.0,0.0,0.0,0.0,0.0,0.0,0.0,0.0,0.0,0.0,0.0,0.0,0.0,0.0,0.0,2.9759,3.0684,0.0,0.0,0.0,0.0,2.8703,2.8762,2.9766,3.1885,3.2754,3.3469,3.4072,3.4892,3.4841,3.3784,3.4584,3.5012,3.503,3.5084,3.5279,3.5564,3.437,3.4014,3.4296,3.2736,3.207,3.2059,3.2209,3.138,2.9986,2.9534,2.8303,2.6939,2.7604,2.7826,2.7798,0.0,0.0,0.0,1.3013,1.2357,1.1933,1.2006,1.1523,1.126,1.1575,1.3679,1.5648,1.6974,2.0005,2.2443,2.3779,2.439,2.3787,2.1625,1.9968,1.8244,1.6415,1.482,1.561,1.9088,2.3226,2.6178,2.7919,2.865,2.8881,2.8747,3.1516,3.2328,3.1524,3.4623,3.3479,2.9304,2.9487,2.7364,2.3813,2.3572,2.1556,0.0,0.0,0.0,0.0,0.0,0.0,0.0,0.0,0.0,0.0,0.0,0.0,0.0,0.0,0.0,0.0,0.0,0.0,0.0,0.0,0.0,0.0,0.0,0.0,0.0,0.0,0.0,0.0,0.0,0.0,0.0,0.0,0.0,0.0,0.0,0.0,0.0,3.0859,3.1298,0.0,3.0273,3.0849,3.1436,3.1767,3.2116,3.2911,3.4263,3.3866,3.3512,3.3387,3.3668,3.3574,3.3079,3.3622,3.407,3.4345,3.4621,3.4964,3.5331,3.412,3.3807,3.4167,3.2819,3.2155,3.189,3.1463,3.0863,3.0222,3.0064,2.9629,2.9108,2.9379,2.9431,2.9431,0.0,0.0,0.0,1.3176,1.2527,1.2057,1.1996,1.1475,1.1452,1.2503,1.4791,1.7019,1.8855,2.2191,2.4729,2.5843,2.6427,2.5595,2.2879,2.1174,1.9106,1.6512,1.5516,1.7579,2.3036,2.5371,2.7229,2.8649,2.8792,2.8752,2.854,3.1157,3.1903,3.1253,3.4468,3.428,3.1562,3.1108,2.8929,2.5765,2.5754,2.377,2.0772,0.0,0.0,0.0,0.0,0.0,0.0,0.0,0.0,0.0,0.0,0.0,0.0,0.0,0.0,0.0,0.0,0.0,0.0,0.0,0.0,0.0,0.0,0.0,0.0,0.0,0.0,0.0,0.0,0.0,0.0,0.0,0.0,0.0,0.0,0.0,3.0957,3.1131,3.2254,3.2502,3.1136,3.2416,3.3358,3.3496,3.393,3.4321,3.4613,3.4134,3.3343,3.2248,3.238,3.2216,3.1708,3.2221,3.2608,3.2869,3.3299,3.3649,3.3872,3.2949,3.2694,3.2954,3.2058,3.1542,3.1247,3.0608,3.0247,3.0122,2.9852,2.976,2.976,2.976,2.976,2.976,0.0,0.0,1.4463,1.3569,1.3059,1.2522,1.1758,1.1505,1.2294,1.4795,1.7217,1.9769,2.2607,2.4873,2.6407,2.6929,2.6318,2.4932,2.2636,2.114,1.8665,1.4847,1.6467,2.0146,2.5831,2.553,2.6453,2.8769,2.8516,2.8851,2.9756,3.1215,3.1807,3.1715,3.3541,3.4081,3.3511,3.2134,2.9999,2.7505,2.6836,2.5646,2.4073,0.0,0.0,0.0,0.0,0.0,0.0,0.0,0.0,0.0,0.0,0.0,0.0,0.0,0.0,0.0,0.0,0.0,0.0,0.0,0.0,0.0,0.0,0.0,0.0,0.0,0.0,0.0,0.0,0.0,0.0,0.0,0.0,0.0,3.0025,3.1386,3.1838,3.0711,3.374,3.472,3.1604,3.381,3.4954,3.3782,3.3952,3.372,3.2906,3.358,3.3022,3.0932,3.1311,3.0991,2.9789,3.036,3.0638,3.0638,3.1,3.1146,3.1173,3.0769,3.0624,3.0595,3.0372,3.0241,3.0226,2.996,2.9829,2.9771,2.9021,2.8734,2.8734,2.8734,2.8734,2.8734,1.4819,1.4256,1.3707,1.3445,1.2588,1.2083,1.2534,1.1803,1.2255,1.5301,1.7319,1.9619,2.2572,2.5077,2.6594,2.669,2.6522,2.5138,2.2125,2.0557,1.8761,1.6502,2.1171,2.4147,2.4917,2.7058,2.8221,2.8287,2.8429,2.8305,2.8029,3.055,3.1127,3.0112,3.3623,3.3854,3.1708,3.215,3.1145,2.9134,2.8659,2.7582,2.6252,0.0,0.0,0.0,0.0,0.0,0.0,0.0,0.0,0.0,0.0,0.0,0.0,0.0,0.0,0.0,0.0,0.0,0.0,0.0,0.0,0.0,0.0,0.0,0.0,0.0,0.0,0.0,0.0,0.0,0.0,0.0,0.0,3.0699,3.0808,3.2217,3.3055,3.2508,3.3565,3.409,3.3444,3.3506,3.372,3.3974,3.2627,3.1843,3.1942,3.1514,3.082,2.9844,3.0133,2.9958,2.922,2.9398,2.948,2.948,2.9562,2.9978,3.0623,3.0524,3.0781,3.1377,3.1332,3.1303,3.1246,3.0524,3.0227,3.0212,2.9702,2.9508,2.9508,2.9508,2.9508,2.9268,1.4802,1.4444,1.3986,1.3404,1.2847,1.2413,1.2182,1.1655,1.2583,1.6258,1.7837,2.0175,2.425,2.5866,2.669,2.6821,2.5599,2.3674,2.0961,1.9017,1.8786,2.0483,2.3361,2.5313,2.6139,2.7657,2.8267,2.792,2.7961,2.8085,2.8249,3.0075,3.0615,3.0156,3.2816,3.3017,3.1376,3.194,3.1517,3.0415,2.9894,2.886,2.7675,2.7932,2.7968,2.78,2.7227,2.7275,2.7383,2.6241,0.0,0.0,0.0,0.0,0.0,0.0,0.0,0.0,0.0,0.0,0.0,0.0,0.0,0.0,0.0,0.0,0.0,0.0,0.0,0.0,0.0,0.0,0.0,0.0,2.9854,3.1304,3.1162,3.2571,3.3321,3.2448,3.3098,3.32,3.2179,3.2266,3.2335,3.2289,3.1379,3.0796,3.0691,3.0422,2.9972,2.9264,2.9371,2.9333,2.8988,2.9121,2.9219,2.9232,2.9308,2.9737,3.0376,2.9685,2.9685,3.0172,2.9406,2.9022,2.8846,2.7797,2.7397,0.0,0.0,0.0,0.0,0.0,2.6428,2.6217,1.4765,1.4875,1.4637,1.341,1.3427,1.306,1.1387,1.1348,1.3101,1.7531,1.8604,2.1048,2.6489,2.6855,2.6763,2.6813,2.4171,2.1695,1.9734,1.784,1.9328,2.5005,2.4119,2.5042,2.8354,2.7744,2.755,2.7802,2.7575,2.8207,2.9565,2.9881,3.0428,3.1197,3.1779,3.2015,3.1951,3.1633,3.149,3.1395,3.0759,2.9783,2.8777,2.9028,2.9167,2.9293,2.9743,3.0025,3.0152,2.9423,0.0,0.0,0.0,0.0,0.0,0.0,0.0,0.0,0.0,0.0,0.0,0.0,0.0,0.0,0.0,0.0,0.0,0.0,0.0,0.0,0.0,0.0,0.0,0.0,3.0167,3.1059,3.0926,3.2122,3.25,3.1151,3.2211,3.2094,2.9586,3.0535,3.0907,2.9891,3.0238,3.0167,2.9411,0.0,0.0,0.0,0.0,2.9007,2.8876,2.9168,2.9269,2.9091,2.9322,2.9643,2.9847,2.8311,2.7667,2.7701,2.5903,2.5036,2.4755,2.3625,2.3091,2.317,2.5381,2.5686,2.4616,2.2501,2.17,2.17,1.4632,1.4373,1.3887,1.3299,1.3152,1.287,1.2095,1.1837,1.3549,1.8629,1.9426,2.1271,2.5825,2.6978,2.6808,2.537,2.401,2.2371,2.0377,2.146,2.2841,2.4289,2.5714,2.688,2.785,2.7968,2.8165,2.843,2.8604,2.9046,2.9845,3.0661,3.1215,3.1548,3.2375,3.2587,3.2316,3.2237,3.2062,3.1808,3.1665,3.128,3.0818,3.0575,3.1935,3.3856,3.361,3.4619,3.593,3.4916,3.3799,3.2654,3.1593,2.9936,0.0,0.0,0.0,0.0,0.0,0.0,0.0,0.0,0.0,0.0,0.0,0.0,0.0,0.0,0.0,0.0,0.0,0.0,0.0,2.9185,3.0543,3.0963,2.9282,2.8925,2.9037,2.9532,3.0156,3.042,3.0115,2.9929,2.9842,2.986,2.9557,2.9247,2.9074,2.9468,2.9568,2.9406,2.9619,2.916,2.7938,2.8156,2.7701,2.6511,0.0,0.0,2.6958,2.5778,2.5263,2.5205,2.4015,2.3447,2.3406,2.3121,2.2315,2.1376,2.2307,2.2546,2.2323,2.1878,2.17,2.1522,1.3902,1.3839,1.3607,1.3171,1.3126,1.2912,1.2158,1.2011,1.3317,1.6984,1.7627,1.9066,2.2526,2.3196,2.3004,2.2043,2.1525,2.102,2.0486,2.2522,2.4406,2.5829,2.6917,2.7696,2.8136,2.8297,2.8524,2.8775,2.8921,2.9644,3.0866,3.1336,3.2017,3.2819,3.3138,3.3127,3.292,3.2571,3.2428,3.2412,3.2062,3.1799,3.1656,3.1706,3.2478,3.3659,3.408,3.5578,3.7233,3.6423,3.6317,3.6307,3.5174,3.3334,3.1164,0.0,0.0,0.0,0.0,0.0,0.0,0.0,0.0,0.0,0.0,0.0,0.0,0.0,0.0,2.6056,2.5104,0.0,2.7265,2.6392,2.7583,2.8189,2.685,2.6535,2.6636,2.714,2.7383,2.7495,2.7519,2.7217,2.7099,2.7281,2.7122,2.7063,2.7063,2.7414,2.7636,2.7636,2.7896,2.7665,2.6975,2.7059,2.6469,2.521,2.5321,2.5195,2.4736,2.3453,2.288,2.2833,2.1503,2.0912,2.0774,2.0241,1.9294,1.8224,1.8516,1.8964,1.9335,1.8833,1.8647,1.8554,1.314,1.3247,1.3243,1.295,1.3157,1.3075,1.2112,1.2236,1.3177,1.5226,1.5706,1.6786,1.9248,1.9279,1.8976,1.8545,1.9281,2.0015,2.0592,2.3105,2.553,2.7681,2.7789,2.807,2.8684,2.8684,2.8858,2.9161,2.9161,3.0053,3.1798,3.1724,3.2453,3.3889,3.354,3.3454,3.3444,3.2873,3.2745,3.2945,3.2269,3.1983,3.1918,3.2179,3.2259,3.2365,3.3443,3.4936,3.6391,3.6382,3.7179,3.8088,3.7629,3.5735,3.3296,3.131,2.9047,0.0,0.0,0.0,0.0,0.0,0.0,0.0,0.0,2.8569,2.7897,2.731,2.6311,2.5174,2.3879,2.4695,2.5205,2.4013,2.4775,2.5317,2.4733,2.466,2.4597,2.4385,2.4781,2.5008,2.4749,2.474,2.4774,2.4774,2.5047,2.5263,2.5263,2.5455,2.5565,2.5565,2.5803,2.5669,2.5152,2.5384,2.484,2.3504,2.3544,2.3217,2.2558,2.1078,2.0456,2.0456,1.8972,1.8266,1.8037,1.7262,1.6445,1.5675,1.5675,1.6202,1.6819,1.5898,1.5593,1.5593,1.2932,1.2533,1.2187,1.241,1.3173,1.3389,1.2335,1.2777,1.3968,1.5941,1.6113,1.6799,1.8682,1.8878,1.8203,1.6589,1.9973,2.1903,2.118,2.498,2.7533,2.8112,2.8138,2.8419,2.8935,2.8948,2.9215,2.982,2.982,3.0467,3.1697,3.1405,3.2107,3.3524,3.3215,3.3231,3.3476,3.3397,3.3247,3.296,3.2523,3.2173,3.1872,3.1629,3.2179,3.31,3.3238,3.3654,3.4485,3.6437,3.6101,3.5223,3.7345,3.5837,3.3039,3.1826,2.977,2.7519,2.576,2.6591,2.8043,2.8305,2.9245,3.0655,0.0,3.0754,2.853,2.9412,2.7807,2.5999,2.5261,2.5168,2.54,2.6046,2.5627,2.4932,2.4116,2.3334,2.2474,2.1429,2.3319,2.4714,2.4695,2.4899,2.5069,2.5069,2.5468,2.5742,2.5742,2.5106,2.4721,2.4721,2.4753,2.3669,2.145,2.2547,2.1874,1.9522,1.973,1.9765,1.9642,1.8566,1.808,1.8031,1.6899,1.6389,1.6375,1.6276,1.6128,1.6029,1.6029,1.6128,1.6143,1.5737,1.5593,1.5593,1.2451,1.2467,1.249,1.2371,1.2966,1.3299,1.2843,1.3138,1.3698,1.4526,1.4533,1.4649,1.5144,1.5061,1.4764,1.4277,1.8259,2.0759,2.0615,2.5073,2.7749,2.7883,2.8098,2.8393,2.8778,2.8791,2.8911,2.9152,2.9839,3.0519,3.1185,3.1735,3.2548,3.3501,3.3151,3.3088,3.3199,3.2952,3.2777,3.2602,3.2269,3.2046,3.1872,3.1522,3.1725,3.2026,3.1018,3.1975,0.0,3.4249,3.4675,3.5243,3.6623,3.4894,3.2186,3.1377,2.9666,2.8067,2.8121,2.8268,2.8752,3.0193,3.0157,2.9895,3.0419,2.9041,2.7548,2.7119,2.6008,2.4739,2.3637,2.3312,2.3092,2.2718,2.2575,2.2114,2.1184,2.0881,2.0316,1.9221,2.0272,2.1505,2.2719,2.3061,2.2916,2.229,2.2411,2.2283,2.166,2.1381,2.13,2.13,2.141,2.0941,1.9881,2.0397,1.9804,1.8208,1.827,1.8004,1.736,1.697,1.6779,1.6729,1.6282,1.6083,1.6083,1.6083,1.6083,1.6083,1.6083,1.6083,1.6069,1.594,1.5893,1.5893,1.2355,1.2483,1.2614,1.2343,1.2732,1.3106,1.32,1.341,1.3576,1.3576,1.3382,1.3043,1.2564,1.2237,1.2234,1.2761,1.6317,1.8991,2.0037,2.4316,2.7035,2.7562,2.7898,2.8205,2.847,2.8564,2.8604,2.8604,2.9709,3.0382,3.0685,3.1704,3.251,3.3174,3.2865,3.2754,3.2833,3.2523,3.2412,3.238,3.1951,3.1776,3.1729,3.1268,3.0855,3.0367,2.932,3.0266,3.1962,3.1479,3.2043,3.3117,3.4128,3.2471,3.0143,2.9903,2.8305,2.685,2.7881,2.8145,2.862,3.0486,3.018,2.9227,2.8358,2.712,2.5883,2.4922,2.3887,2.2887,2.1877,2.1558,2.1056,1.9936,2.0019,1.9871,1.8917,1.8955,1.8811,1.8065,1.8298,1.9087,2.0555,2.0833,2.058,1.9806,1.981,1.9499,1.8729,1.8615,1.8564,1.8564,1.8732,1.8647,1.835,1.8647,1.8259,1.7275,1.7275,1.6828,1.6083,1.6083,1.6083,1.6083,1.6083,1.6083,1.6083,1.5628,1.5429,1.5379,1.4925,1.4775,1.4775,1.4775,1.5081,1.5429,1.2918,1.2413,1.2011,1.2251,1.2577,1.2904,1.316,1.37,1.4074,1.4074,1.3451,1.2822,1.2369,1.1896,1.1856,1.2463,1.4767,1.7263,1.974,2.2806,2.5343,2.7241,2.7562,2.7856,2.8192,2.8457,2.8604,2.8604,2.9417,2.9986,3.0349,3.0811,3.1527,3.2428,3.2094,3.2126,3.2428,3.2412,3.2412,3.2348,3.1681,3.1411,3.1331,3.0616,2.9504,2.8373,2.904,2.8681,2.7966,2.8457,2.7682,2.6872,2.9108,2.8208,2.6488,2.7182,2.532,2.2973,2.3,2.4999,2.7173,2.7705,2.8813,2.9553,2.878,2.594,2.3644,2.4118,2.2319,2.0653,2.0817,2.0648,2.0267,1.9542,1.945,1.9153,1.8321,1.8206,1.8214,1.8214,1.8476,1.8696,0.0,1.8752,1.8696,1.8656,1.8818,1.8923,1.8875,1.8159,1.7764,1.7764,1.7714,1.7275,1.6182,1.7226,1.7226,1.6133,1.6133,1.6133,1.6083,1.6083,1.6083,1.6083,1.6083,1.6083,1.5983,1.4426,1.3778,1.3622,1.2074,1.1473,1.1473,1.1473,1.2424,1.3778,1.1913,1.215,1.2508,1.2328,1.2719,1.3113,1.32,1.3527,1.3847,1.4055,1.387,0.0,0.0,0.0,0.0,0.0,1.4598,1.6112,1.735,2.1194,2.3871,2.4881,2.632,2.7255,2.759,2.7697,2.7615,2.7428,2.8483,2.9119,2.9369,3.0094,3.0748,3.1402,3.1014,3.0918,3.1014,3.1014,3.1014,3.0998,3.0775,3.0149,2.9334,2.9281,2.8253,2.6796,0.0,2.6327,2.6597,2.672,2.6321,2.605,2.7968,2.6075,2.3302,2.3711,2.2921,2.2367,2.4365,2.5146,2.5557,2.6092,2.6046,2.5678,2.4992,2.3183,2.159,2.1281,2.0455,1.957,1.8992,1.8812,1.8703,1.8442,1.8513,1.8289,1.7328,1.7195,1.6999,1.6405,1.6512,0.0,1.6836,1.8159,1.8719,1.8041,1.8094,1.778,1.7089,1.6793,1.663,1.663,1.663,1.5927,1.4526,1.4875,1.4875,1.4526,1.5578,1.6083,1.6083,1.6083,1.5529,1.4526,1.4526,1.3517,1.1804,1.1254,1.0604,0.9849,0.9298,0.9098,0.9098,0.9098,0.8801,0.86,1.1894,1.2173,1.2569,1.2322,1.2771,0.0,0.0,0.0,0.0,0.0,0.0,0.0,0.0,0.0,0.0,0.0,0.0,1.4504,1.5572,1.8775,2.1133,2.2226,2.3656,2.4624,2.497,2.492,2.4985,2.5178,2.6497,2.7523,2.8236,2.9274,3.0112,3.0664,3.0426,3.0315,3.0315,3.015,2.9992,2.9686,2.9221,2.833,2.7221,2.7034,2.6045,0.0,2.3947,2.3582,2.3504,2.4104,2.4301,2.4489,2.5654,2.3823,2.1303,2.1503,2.0862,2.0706,2.3377,2.3707,2.3482,2.4184,2.3589,2.2634,2.185,2.0691,1.9658,1.9259,1.906,1.8782,1.8136,1.7997,1.7929,1.7568,1.7679,1.7467,1.6434,1.6382,1.6202,1.5534,1.5533,1.5627,0.0,1.6587,1.713,1.7112,1.6623,1.597,1.528,1.4676,1.4377,1.4377,1.4377,1.3878,1.2873,1.2468,1.2263,1.2263,1.2913,1.3411,1.3816,1.3411,1.2658,1.1659,1.1659,1.0704,0.9044,0.8496,0.7794,0.7089,0.6489,0.6288,0.6288,0.6288,0.5386,0.4583,1.2712,1.2355,1.2129,0.0,0.0,0.0,0.0,0.0,0.0,0.0,0.0,0.0,0.0,0.0,0.0,0.0,0.0,0.0,1.4434,1.5793,1.7441,1.9431,1.9954,2.0391,2.0827,2.071,2.1206,2.2283,2.3687,2.5194,2.6822,2.8235,2.9263,2.9966,2.995,2.9934,2.9918,2.9602,2.906,2.8318,2.7123,2.605,2.5008,2.4171,2.3066,2.1981,2.2055,2.0627,1.8974,2.0724,2.1639,2.2053,2.2226,2.1442,2.0474,2.0532,1.9155,1.81,2.0196,2.0888,2.116,2.1977,2.1479,2.0568,1.957,1.8588,1.7932,1.8056,1.8073,1.8056,1.8002,1.798,1.7733,1.6915,1.6855,1.6539,1.5538,1.5507,1.5449,1.5219,1.52,0.0,0.0,0.0,1.3835,1.5546,1.4315,1.3511,1.3511,1.1969,1.1123,1.1123,1.1123,1.1068,1.1018,1.0003,0.9498,0.9498,0.8493,0.8543,0.9598,0.8493,0.7941,0.7891,0.7891,0.7791,0.754,0.604,0.5388,0.5137,0.3632,0.3029,0.3029,0.3029,0.2372,0.1867,0.0,0.0,0.0,0.0,0.0,0.0,0.0,0.0,0.0,0.0,0.0,0.0,0.0,0.0,0.0,0.0,0.0,0.0,1.2335,1.4553,1.6281,1.7271,1.9062,2.0482,2.1368,2.1577,2.1781,2.2095,2.2443,2.3154,2.4166,2.4281,2.4786,2.5601,2.5292,2.5154,2.5154,2.5078,2.4903,2.4727,2.4634,2.3777,2.2642,2.3066,2.1598,1.9344,1.9864,1.8933,1.7741,1.9648,2.0687,2.11,2.045,2.0121,1.9968,1.9937,1.9119,1.8726,2.1176,2.1232,2.0571,2.0417,2.018,1.9739,1.8736,1.8129,1.7499,1.6733,1.6382,1.5999,1.5082,1.5314,1.5505,1.5317,1.4646,1.3825,1.2789,1.165,1.0606,0.9862,0.9807,0.9838,0.9911,0.9611,0.9571,1.0029,1.0447,1.0649,1.0649,0.9516,0.8847,0.8847,0.8847,0.8245,0.7047,0.6793,0.6643,0.6643,0.759,0.8142,0.8442,0.8142,0.7339,0.619,0.619,0.5084,0.3225,0.2773,0.2168,0.1362,0.0959,0.0808,0.0808,0.0808,0.0656,0.0505,0.0,0.0,0.0,0.0,0.0,0.0,0.0,0.0,0.0,0.0,0.0,0.0,0.0,0.0,0.0,0.0,0.0,0.0,0.0,1.3938,1.5156,1.5613,1.6727,1.7738,1.8506,1.8491,1.8868,1.9633,1.9793,2.0592,2.2027,2.1812,2.2185,2.2976,2.2766,2.2856,2.3157,2.3022,2.2992,0.0,0.0,2.185,2.0681,2.0355,1.9177,1.7671,1.7647,1.6975,1.6339,1.7847,1.911,2.0068,1.9993,1.9744,1.9595,2.0245,1.9124,1.8112,2.0228,2.0029,1.9093,1.8809,1.8401,1.7921,1.7187,1.6541,1.5868,1.5039,1.437,1.3749,1.3107,1.2491,1.2168,1.233,1.1562,1.0733,1.0084,0.9332,0.8566,0.7977,0.7859,0.7829,0.7922,0.7224,0.6808,0.6797,0.7471,0.7854,0.7834,0.6623,0.5889,0.5889,0.5889,0.5237,0.388,0.383,0.383,0.383,0.428,0.473,0.5183,0.468,0.3978,0.3125,0.3125,0.2269,0.0908,0.0908,0.0555,0.0,0.0,0.0,0.0,0.0,0.0,0.0,0.0,0.0,0.0,0.0,0.0,0.0,0.0,0.0,0.0,1.2325,1.2652,1.2975,0.0,0.0,0.0,0.0,0.0,0.0,0.0,0.0,1.4116,1.4344,1.4143,1.4256,1.4692,1.4404,1.4983,1.6501,1.6792,1.7929,1.9893,1.9949,2.0327,2.0996,2.1052,2.1496,2.212,2.1815,2.175,2.1735,2.0912,1.9985,1.8874,0.0,1.6622,1.6362,1.5385,1.4785,1.4574,1.569,1.7317,1.9025,2.0056,1.9785,1.929,2.0452,1.8889,1.707,1.8446,1.8216,1.7569,1.7432,1.6795,1.6031,1.5476,1.4663,1.3878,1.341,1.2535,1.1837,1.1747,1.0229,0.9036,0.9181,0.8374,0.7638,0.7508,0.7415,0.7285,0.6991,0.683,0.6789,0.6789,0.546,0.4602,0.4608,0.4745,0.4931,0.5065,0.3625,0.2776,0.2776,0.2776,0.2321,0.1413,0.1413,0.1413,0.1363,0.0454,0.0505,0.1363,0.0404,0.0,0.0,0.0,0.0,0.0,0.0,0.0,0.0,0.0,0.0,0.0,0.0,0.0,0.0,0.0,0.0,0.0,0.0,0.0,0.0,0.0,0.0,0.0,0.0,1.3043,1.2784,0.0,0.0,0.0,0.0,0.0,0.0,0.0,0.0,0.0,1.3678,1.3999,1.4503,1.5244,1.5397,1.5636,1.5938,1.5991,1.6241,1.6605,1.7023,1.7267,1.7414,1.7819,1.8067,1.8184,1.814,1.8091,1.8111,1.7993,1.7457,1.6704,1.688,0.0,0.0,1.3057,1.207,1.1597,1.3644,1.5966,1.8167,1.9085,1.9339,1.9104,1.7947,1.7407,1.7283,1.7747,1.7951,1.7893,1.7057,1.6731,1.625,1.4832,1.406,1.3504,1.2922,1.2414,1.1798,1.1051,1.0346,0.9628,0.8932,0.7246,0.5695,0.4808,0.36,0.2433,0.1511,0.1351,0.1343,0.1343,0.1085,0.0935,0.0942,0.0945,0.134,0.217,0.1152,0.0555,0.0555,0.0555,0.0454,0.0303,0.0252,0.0252,0.0252,0.0101,0.0101,0.0252,0.0101,0.0,0.0,0.0,0.0,0.0,0.0,0.0,0.0,0.0,0.0,0.0,0.0,0.0,0.0,0.0,0.0,0.0,0.0,0.0,0.0,0.0,1.3041,1.3731,1.3954,1.4519,1.4427,1.3125,1.3074,1.3209,0.0,0.0,0.0,0.0,0.0,0.0,1.4272,1.4334,1.4533,1.4914,1.5061,1.5194,1.5378,0.0,1.5559,1.5709,1.5852,1.6117,1.6433,1.6316,1.6699,1.7397,1.7026,1.6996,1.7115,1.6912,1.6447,1.5828,0.0,0.0,0.0,1.1476,1.0959,1.0918,1.2419,1.4085,1.5807,1.7354,1.7964,1.8016,1.7157,1.6737,1.6584,1.6714,1.6666,1.6422,1.5957,1.5874,1.5501,1.3973,1.3492,1.3112,1.2121,1.135,1.073,1.0356,0.8482,0.6912,0.6476,0.4294,0.2488,0.1991,0.1233,0.06,0.005,0.0,0.0,0.0,0.0,0.0,0.0,0.0,0.02,0.0698,0.0251,0.0,0.0,0.0,0.0,0.0,0.0,0.0,0.0,0.0,0.0,0.0,0.0,0.0,0.0,0.0,0.0,0.0,0.0,0.0,0.0,0.0,0.0,0.0,0.0,0.0,0.0,0.0,0.0,0.0,0.0,0.0,0.0,0.0,1.3658,1.4751,1.5164,1.625,1.6343,1.4665,1.3826,1.3638,0.0,0.0,0.0,0.0,0.0,0.0,0.0,0.0,0.0,1.4429,0.0,0.0,1.4953,1.5057,0.0,0.0,0.0,0.0,0.0,1.6036,1.6459,1.7374,1.6833,1.6713,0.0,0.0,1.5759,0.0,0.0,0.0,0.0,0.0,1.0495,1.0687,1.1433,1.2271,1.3312,1.5102,1.6034,1.6505,1.6309,1.5861,1.5491,1.5645,1.5304,1.493,1.501,1.5105,1.4806,1.337,1.3111,1.2792,1.1472,1.0569,0.9932,0.9601,0.6945,0.4631,0.4038,0.19,0.0236,0.0048,0.0,0.0,0.0,0.0,0.0,0.0,0.0,0.0,0.0,0.0,0.0,0.0,0.0,0.0,0.0,0.0,0.0,0.0,0.0,0.0,0.0,0.0,0.0,0.0,0.0,0.0,0.0,0.0,0.0,0.0,0.0,0.0,0.0,0.0,0.0,0.0,0.0,0.0,0.0,0.0,0.0,0.0,0.0,0.0,0.0,0.0,1.4181,1.493,1.6887,1.7565,1.7516,1.6547,1.5689,1.4882,0.0,0.0,0.0,0.0,0.0,0.0,0.0,0.0,0.0,0.0,0.0,0.0,1.474,0.0,0.0,0.0,0.0,0.0,0.0,0.0,1.7237,1.6778,1.6716,0.0,0.0,0.0,0.0,0.0,0.0,0.0,0.0,0.0,1.0269,0.9639,1.0397,1.0974,1.1537,1.2273,1.3513,1.4533,1.4055,1.3947,1.408,1.4534,1.4676,1.4748,1.4936,1.503,1.471,1.3472,1.3105,1.2676,1.1451,1.1116,1.0532,0.8771,0.7546,0.5971,0.3269,0.191,0.0893,0.0094,0.0,0.0,0.0,0.0,0.0,0.0,0.0,0.0,0.0,0.0,0.0,0.0,0.0,0.0,0.0,0.0,0.0,0.0,0.0,0.0,0.0,0.0,0.0,0.0,0.0,0.0,0.0,0.0,0.0,0.0,0.0,0.0,0.0,0.0,0.0,0.0,0.0,0.0,0.0,0.0,0.0,0.0,0.0,0.0,0.0,1.4862,1.5068,1.5742,1.7641,1.8123,1.8036,1.7315,1.6607,1.5618,1.4215,0.0,0.0,0.0,0.0,0.0,0.0,0.0,0.0,0.0,0.0,1.4531,1.4699,1.5263,0.0,0.0,0.0,0.0,0.0,0.0,0.0,1.7282,1.6874,0.0,0.0,0.0,0.0,0.0,0.0,0.0,0.0,0.0,0.0,0.9917,0.9871,1.0213,1.0689,1.0839,1.1545,1.2369,1.2727,1.3267,1.3822,1.391,1.4421,1.4896,1.5003,1.5017,1.4611,1.322,1.2861,1.2454,1.1158,1.0968,1.0593,0.9201,0.7824,0.6288,0.459,0.2587,0.113,0.0825,0.0331,0.0,0.0,0.0,0.0,0.0,0.0,0.0,0.0,0.0,0.0,0.0,0.0,0.0,0.0,0.0,0.0,0.0,0.0,0.0,0.0,0.0,0.0,0.0,0.0,0.0,0.0,0.0,0.0,0.0,0.0,0.0,0.0,0.0,0.0,0.0,0.0,0.0,-0.0151,0.0,0.0,0.0,0.0,0.0,1.4059,1.518,1.5492,1.6153,1.7617,1.8213,1.8251,1.7555,1.6847,1.5885,1.4491,1.4578,0.0,0.0,0.0,0.0,0.0,0.0,0.0,0.0,0.0,1.4845,1.5117,1.5887,1.6262,0.0,0.0,0.0,0.0,0.0,0.0,0.0,0.0,0.0,0.0,0.0,0.0,0.0,0.0,0.0,0.0,0.0,0.0,0.0,0.0,0.0,1.0564,1.0338,1.0586,1.1144,1.2005,1.2739,1.3376,1.3682,1.419,1.4692,1.4962,1.4881,1.4367,1.3091,1.2657,1.2189,1.0934,1.0806,1.0478,0.9158,0.7917,0.6602,0.5108,0.2987,0.1485,0.1311,0.0561,0.0,0.0,0.0,0.0,0.0,0.0,0.0,0.0,0.0,0.0,0.0,0.0,0.0,0.0,0.0,0.0,0.0,0.0,0.0,0.0,0.0,0.0,0.0,0.0,0.0,0.0,0.0,0.0,0.0,0.0,0.0,-0.0051,-0.0505,-0.0707,-0.0757,-0.1262,-0.1413,-0.1564,0.0,0.0,0.0,0.0,0.0,0.0,1.4546,1.5258,1.5981,1.6815,1.7839,1.8184,1.73,1.6366,1.5605,1.5026,1.4825,0.0,0.0,0.0,0.0,0.0,0.0,0.0,0.0,0.0,1.5159,1.6087,1.6429,1.6624,1.6726,1.7726,1.7668,1.673,0.0,0.0,0.0,0.0,0.0,0.0,0.0,0.0,0.0,0.0,0.0,0.0,0.0,0.0,0.0,0.0,0.0,0.0,0.0,1.0931,1.1326,1.1932,1.2111,1.2411,1.3744,1.396,1.3991,1.478,1.4568,1.3928,1.3173,1.2533,1.1853,1.0874,1.0806,1.024,0.8124,0.7856,0.7031,0.4099,0.2911,0.2147,0.1397,0.0547,0.0,0.0,0.0,0.0,0.0,0.0,0.0,0.0,0.0,0.0,0.0,0.0,0.0,0.0,0.0,0.0,0.0,0.0,0.0,0.0,0.0,0.0,0.0,0.0,0.0,0.0,0.0,0.0,0.0,0.0,0.0,-0.0151,-0.1766,-0.2372,-0.2573,-0.4184,-0.4736,-0.4736,0.0,0.0,0.0,0.0,0.0,0.0,0.0,1.6191,1.6432,1.7689,1.7154,1.6714,1.6834,1.6059,1.5493,1.5425,1.4962,0.0,0.0,0.0,0.0,0.0,0.0,0.0,0.0,0.0,1.6259,1.678,1.7212,1.7433,1.7467,1.753,1.7417,1.7117,1.7047,0.0,0.0,0.0,0.0,0.0,0.0,0.0,0.0,0.0,0.0,0.0,0.0,0.0,0.0,0.0,0.0,0.0,0.0,0.0,0.0,1.198,1.2086,1.2193,1.2622,1.303,1.3417,1.3601,1.3376,1.2983,1.2338,1.1884,1.1436,1.0839,1.0677,1.0246,0.8956,0.8219,0.7126,0.5014,0.3358,0.2104,0.1397,0.0554,0.0,0.0,0.0,0.0,0.0,0.0,0.0,0.0,0.0,0.0,0.0,0.0,0.0,0.0,0.0,0.0,0.0,0.0,0.0,0.0,0.0,0.0,0.0,0.0,0.0,-0.0051,-0.1179,-0.1632,-0.1723,-0.2827,-0.3277,-0.3328,-0.3832,-0.4033,-0.4083,-0.4636,-0.4787,-0.4988,0.0,0.0,0.0,0.0,0.0,0.0,0.0,1.6259,1.6248,1.7148,1.6334,1.5781,1.6166,1.5687,1.5412,1.5575,1.5219,0.0,0.0,0.0,0.0,0.0,0.0,0.0,1.5998,1.6251,1.6774,1.755,1.7963,1.8262,1.8389,1.831,1.7991,1.7482,1.7223,1.688,0.0,0.0,0.0,0.0,0.0,0.0,1.1266,0.0,0.0,0.0,0.0,0.0,0.0,0.0,0.0,0.0,0.0,0.0,0.0,0.0,1.1942,1.2079,1.236,1.255,1.2698,1.284,1.263,1.2226,1.1775,1.1348,1.0975,1.069,1.0561,1.0123,0.8822,0.8069,0.6981,0.4885,0.3269,0.2019,0.1386,0.0545,0.0,0.0,0.0,-0.0246,-0.0848,-0.0885,-0.113,-0.1763,-0.1801,-0.1499,-0.0959,-0.0909,-0.0909,-0.0909,-0.0303,0.0,0.0,-0.0606,-0.0909,-0.0909,-0.1514,-0.1825,-0.179,-0.179,-0.1794,-0.1851,-0.2869,-0.3313,0.0,-0.4391,-0.4787,-0.4887,-0.5491,-0.5743,-0.5796,-0.645,-0.6651,-0.6802,0.0,0.0,0.0,0.0,0.0,0.0,0.0,1.5886,1.58,1.5762,1.5604,1.5471,1.5416,1.5304,1.533,1.5611,0.0,0.0,0.0,0.0,0.0,0.0,0.0,0.0,1.6138,1.619,1.6893,1.829,1.8693,1.9082,1.9471,1.9757,1.9169,1.7864,1.7816,1.7163,0.0,0.0,0.0,0.0,0.0,1.1409,0.0,0.0,0.0,0.0,0.0,0.0,0.0,0.0,0.0,0.0,0.0,0.0,0.0,0.0,0.0,0.0,0.0,1.2357,1.1907,1.242,1.2097,1.1611,1.1375,1.0873,0.0,1.0376,1.0369,0.9803,0.7926,0.7547,0.6633,0.3955,0.2807,0.1961,0.1147,0.0351,-0.0177,-0.0141,-0.0144,-0.0779,-0.2261,-0.2456,-0.3116,-0.468,-0.4748,-0.4095,-0.2622,-0.2574,-0.2574,-0.2574,-0.111,-0.0353,-0.0353,-0.1817,-0.2574,-0.2573,-0.4083,-0.4811,-0.4802,-0.4802,-0.4826,0.0,-0.4923,-0.4955,-0.4998,-0.5108,-0.5139,-0.529,-0.6852,-0.7459,-0.766,-0.9124,-0.9681,-0.9681,0.0,0.0,0.0,0.0,0.0,0.0,0.0,0.0,0.0,0.0,1.6688,1.6053,1.5741,1.549,1.5519,0.0,0.0,0.0,0.0,0.0,0.0,0.0,0.0,0.0,1.6501,1.7099,1.768,1.821,1.9178,1.9821,2.0146,1.998,1.9423,1.8535,1.8039,1.7073,0.0,0.0,0.0,0.0,1.3885,1.3522,0.0,0.0,0.0,0.0,1.29,1.2756,0.0,0.0,0.0,0.0,0.0,0.0,0.0,0.0,1.2276,1.1997,1.1828,0.0,1.1447,1.098,1.0751,1.0629,0.0,1.0337,0.9929,0.9334,0.9114,0.8742,0.7698,0.7013,0.5956,0.4037,0.305,0.1579,-0.1001,-0.1552,-0.1664,-0.1664,-0.1786,-0.2006,-0.2379,-0.3499,-0.4382,-0.4783,-0.4798,-0.4593,-0.4231,-0.4235,-0.4235,-0.4235,-0.388,-0.368,-0.368,-0.4031,-0.4235,-0.4235,-0.4636,-0.4811,-0.4802,-0.4802,-0.4808,-0.487,-0.6137,-0.6718,-0.6825,-0.8022,-0.8568,-0.8568,-0.8974,-0.9124,-0.9175,-0.9581,-0.9681,-0.9681,0.0,0.0,0.0,0.0,0.0,0.0,0.0,0.0,0.0,0.0,0.0,1.5869,1.5628,1.5678,0.0,0.0,0.0,0.0,0.0,0.0,0.0,0.0,0.0,1.7466,1.6937,1.7124,1.7723,1.8813,1.9164,1.9897,2.0934,2.0318,1.9791,1.9256,1.785,1.6798,0.0,0.0,0.0,0.0,1.422,0.0,0.0,0.0,0.0,0.0,1.2925,1.2687,0.0,1.2635,1.2814,1.2937,0.0,0.0,0.0,0.0,1.2339,1.1811,1.0841,1.0883,1.1063,1.0353,1.0229,1.0168,0.9652,0.9399,0.9026,0.818,0.7975,0.7608,0.6431,0.59,0.4957,0.2907,0.2191,0.1188,-0.0889,-0.118,-0.1471,-0.216,-0.2287,-0.2913,-0.4389,-0.5311,-0.613,-0.6994,-0.6994,-0.6639,-0.5994,-0.5947,-0.5947,-0.5947,-0.5947,-0.5592,-0.4787,-0.5542,-0.5947,-0.5947,-0.6701,-0.7024,-0.7056,-0.7056,-0.7056,-0.7107,-0.8022,-0.8406,-0.8467,-0.9325,-0.9681,-0.9681,-0.9681,-0.9681,-0.9681,-0.9681,-0.9681,-0.9681,0.0,0.0,0.0,0.0,0.0,0.0,0.0,0.0,0.0,0.0,0.0,0.0,0.0,0.0,0.0,0.0,0.0,0.0,0.0,0.0,0.0,0.0,1.7241,1.7417,1.7158,1.6759,1.7409,1.9145,1.8934,1.9716,2.1355,2.0678,2.011,1.9581,1.7666,1.6601,0.0,0.0,0.0,0.0,1.4076,0.0,0.0,0.0,0.0,0.0,0.0,0.0,0.0,1.2786,1.2928,1.2861,1.2965,0.0,0.0,0.0,0.0,0.0,0.9949,1.0006,1.0363,0.9975,0.9835,0.9596,0.887,0.8431,0.793,0.7027,0.6801,0.6312,0.4756,0.4436,0.3717,0.1462,0.0832,0.0387,-0.023,-0.0531,-0.1185,-0.2476,-0.2907,-0.4135,-0.6821,-0.7263,-0.8057,-0.956,-0.9608,-0.8998,-0.7757,-0.766,-0.766,-0.766,-0.766,-0.7003,-0.5542,-0.6953,-0.766,-0.766,-0.9024,-0.9681,-0.9681,-0.9681,-0.9681,-0.9681,-0.9681,0.0,-0.9681,-0.9681,-0.9681,-0.9681,-0.9681,-0.9681,-0.9681,-0.9681,-0.9681,-0.9681,0.0,0.0,0.0,0.0,0.0,0.0,0.0,0.0,0.0,0.0,0.0,0.0,0.0,0.0,0.0,0.0,0.0,0.0,0.0,0.0,0.0,1.6689,1.6792,1.6719,1.6455,1.6747,1.71,1.7459,1.8861,1.9842,2.0435,2.078,2.013,1.859,1.7917,1.719,1.6446,1.6148,0.0,1.4913,1.53,0.0,0.0,0.0,0.0,0.0,0.0,0.0,0.0,1.2418,1.2748,1.2994,1.2607,0.0,0.0,0.0,0.0,0.0,0.9681,0.8941,0.8529,0.917,0.84,0.7801,0.8928,0.8108,0.6856,0.5933,0.526,0.4535,0.3596,0.3079,0.2422,0.1368,-0.0441,-0.1724,-0.1867,-0.3036,-0.3926,-0.406,-0.5519,-0.6687,-0.7038,-0.8428,-0.9386,-0.9677,-0.9669,-0.9564,-0.9325,-0.9325,-0.9325,-0.9325,-0.9325,-0.9225,-0.8974,-0.9225,-0.9325,-0.9325,-0.9577,-0.9681,-0.9681,-0.9681,-0.9681,-0.9681,0.0,-0.9681,-0.9681,-0.9681,-0.9681,-0.9681,-0.9681,-0.9681,-0.9681,-0.9681,-0.9681,-0.9681,0.0,0.0,0.0,0.0,0.0,0.0,0.0,0.0,0.0,0.0,0.0,0.0,0.0,0.0,0.0,0.0,0.0,0.0,0.0,0.0,1.6588,1.706,1.6707,1.6633,1.6929,1.7127,1.7642,1.8496,1.9334,2.0159,2.0958,2.0792,1.9739,1.7956,1.7859,1.7314,1.6499,1.6352,1.6004,1.5566,0.0,0.0,0.0,0.0,0.0,0.0,0.0,0.0,0.0,0.0,1.2447,1.2691,1.2475,0.0,0.0,0.0,0.0,0.0,0.7863,0.704,0.671,0.7611,0.7647,0.7484,0.7692,0.7221,0.6274,0.4585,0.412,0.36,0.2261,0.1845,0.1145,-0.0501,-0.2353,-0.3604,-0.3605,-0.4264,-0.4996,-0.5784,-0.6616,-0.7452,-0.8303,-0.9112,-0.9575,-0.9673,-0.9681,-0.9681,-0.9681,-0.9681,-0.9681,-0.9681,-0.9681,-0.9681,-0.9681,-0.9681,-0.9681,-0.9681,-0.9681,-0.9681,-0.9681,-0.9681,-0.9681,-0.9681,-0.9681,-0.9681,-0.9681,-0.9681,-0.9681,-0.9681,-0.9681,-0.9681,-0.9681,-0.9681,-0.9681,-0.9681,0.0,0.0,0.0,0.0,0.0,0.0,0.0,0.0,0.0,0.0,0.0,0.0,0.0,0.0,0.0,0.0,0.0,0.0,0.0,0.0,1.6299,1.6751,1.6343,1.663,1.7767,1.7662,1.8281,1.9622,1.9886,2.0533,2.1471,2.0691,1.9409,1.7803,1.7792,1.7347,1.6526,1.6366,1.6141,1.586,0.0,0.0,0.0,0.0,0.0,0.0,0.0,0.0,0.0,0.0,0.0,0.0,0.0,0.0,0.0,1.0381,0.9455,0.8337,0.6479,0.5645,0.5372,0.5852,0.6312,0.6618,0.6321,0.5865,0.502,0.3299,0.3,0.2663,0.1295,0.0629,-0.0397,-0.2578,-0.3971,-0.4778,-0.4779,-0.5121,-0.582,-0.697,-0.7417,-0.8119,-0.9394,-0.9497,-0.953,-0.9669,-0.9681,-0.9681,-0.9681,-0.9681,-0.9681,-0.9681,-0.9681,-0.9681,-0.9681,-0.9681,-0.9681,-0.9681,-0.9681,-0.9681,-0.9681,-0.9681,-0.9681,-0.9681,-0.9681,-0.9681,-0.9681,-0.9681,-0.9681,-0.9681,-0.9681,-0.9681,-0.9681,-0.9681,-0.9681,-0.9681,0.0,0.0,0.0,0.0,0.0,0.0,0.0,0.0,0.0,0.0,0.0,0.0,0.0,0.0,0.0,0.0,0.0,0.0,0.0,0.0,1.5738,1.4913,1.5261,1.6448,1.8568,1.8361,1.8618,1.9419,2.0231,2.0801,2.1118,2.0387,1.9423,1.8323,1.7971,1.7397,1.6665,1.6408,1.5865,1.5206,1.5638,0.0,0.0,0.0,0.0,0.0,0.0,0.0,0.0,0.0,0.0,0.0,0.0,0.0,1.0819,0.9982,0.9625,0.9032,0.6778,0.5712,0.4975,0.3975,0.3582,0.3857,0.5465,0.4015,0.2291,0.2209,0.1645,0.1157,0.1106,-0.0602,-0.2492,-0.415,-0.4533,-0.4642,-0.4774,-0.615,-0.7136,-0.7113,-0.8514,-0.9486,-0.9501,-0.9616,-0.9665,-0.9681,-0.9681,-0.9681,-0.9681,-0.9681,-0.9681,-0.9681,-0.9681,-0.9681,-0.9681,-0.9681,-0.9681,-0.9681,-0.9681,-0.9681,-0.9681,-0.9681,-0.9681,-0.9681,-0.9681,-0.9681,-0.9681,-0.9681,-0.9681,-0.9681,-0.9681,-0.9681,-0.9681,-0.9681,-0.9681,-0.9681,0.0,0.0,0.0,0.0,0.0,0.0,0.0,0.0,0.0,0.0,0.0,0.0,0.0,0.0,0.0,0.0,0.0,0.0,0.0,1.5451,1.5412,1.5796,1.5925,1.6694,1.8225,1.8457,1.9276,2.0753,2.1087,2.0913,2.0262,1.9652,1.8749,1.7637,1.7526,1.7339,1.7049,1.6526,1.6246,1.6109,1.54,1.4951,0.0,0.0,0.0,0.0,0.0,0.0,0.0,0.0,1.114,1.1105,1.0195,1.02,1.011,0.7973,0.7486,0.7237,0.529,0.4295,0.3718,0.3476,0.2058,0.1226,0.3403,0.3246,0.2498,0.176,0.1462,0.1193,0.0554,-0.1856,-0.3909,-0.462,-0.633,-0.7646,-0.7841,-0.8417,-0.8758,-0.8728,-0.9209,-0.9604,-0.9628,-0.9608,-0.962,-0.9677,-0.9681,-0.9681,-0.9681,-0.9681,-0.9681,-0.9681,-0.9681,-0.9681,-0.9681,-0.9681,-0.9681,-0.9681,-0.9681,-0.9681,-0.9681,-0.9681,-0.9681,-0.9681,-0.9681,-0.9681,-0.9681,-0.9681,-0.9681,-0.9681,-0.9681,-0.9681,-0.9681,-0.9681,-0.9681,-0.9681,0.0,0.0,0.0,0.0,0.0,0.0,0.0,0.0,0.0,0.0,0.0,0.0,0.0,0.0,0.0,0.0,0.0,0.0,1.5554,1.5008,1.4953,1.5489,1.5689,1.6288,1.7343,1.8236,1.9503,2.1167,2.1261,2.0792,1.9742,1.8995,1.8247,1.7508,1.7298,1.7233,1.7217,1.6595,1.6246,1.6009,1.4957,1.4421,0.0,0.0,0.0,0.0,0.0,0.0,0.0,0.0,1.045,1.0198,0.906,0.8898,0.8675,0.6369,0.6248,0.6393,0.4188,0.3472,0.3235,0.2758,0.1035,-0.0126,0.1491,0.1355,0.0752,0.0363,0.0699,0.0574,-0.1144,-0.3177,-0.4974,-0.6075,-0.8022,-0.9473,-0.9653,-0.9681,-0.9681,-0.9681,-0.9624,-0.9612,-0.9673,-0.9624,-0.9612,-0.9677,-0.9681,-0.9681,-0.9681,-0.9681,-0.9681,-0.9681,-0.9681,-0.9681,-0.9681,-0.9681,-0.9681,-0.9681,-0.9681,-0.9681,-0.9681,-0.9681,-0.9681,-0.9681,-0.9681,-0.9681,-0.9681,-0.9681,-0.9681,-0.9681,-0.9681,-0.9681,-0.9681,-0.9681,-0.9681,-0.9681,0.0,0.0,0.0,0.0,0.0,0.0,0.0,0.0,0.0,0.0,0.0,0.0,0.0,0.0,0.0,0.0,0.0,0.0,1.5415,1.4936,1.4316,1.3458,1.4253,1.5107,1.5981,1.7762,1.9168,2.0197,2.0521,2.0324,1.964,1.8364,1.7933,1.812,1.7318,1.7041,1.7133,1.6607,1.5695,1.4569,1.4283,1.3789,1.3203,0.0,0.0,0.0,0.0,0.0,0.0,0.0,0.9792,0.8685,0.8511,0.7618,0.6428,0.5467,0.6372,0.6972,0.3783,0.3564,0.3748,0.1533,0.0484,0.0,0.0,-0.2063,-0.3619,-0.2283,-0.0954,-0.097,-0.4013,-0.4633,-0.5655,-0.884,-0.9408,-0.9473,-0.9653,-0.9681,-0.9681,-0.9681,-0.9681,-0.9681,-0.9681,-0.9681,-0.9681,-0.9681,-0.9681,-0.9681,-0.9681,-0.9681,-0.9681,-0.9681,-0.9681,-0.9681,-0.9681,-0.9681,-0.9681,-0.9681,-0.9681,-0.9681,-0.9681,-0.9681,-0.9681,-0.9681,-0.9681,-0.9681,-0.9681,-0.9681,-0.9681,-0.9681,-0.9681,-0.9681,-0.9681,-0.9681,-0.9681,-0.9681,0.0,0.0,0.0,0.0,0.0,0.0,0.0,0.0,0.0,0.0,0.0,0.0,0.0,0.0,0.0,0.0,0.0,0.0,1.4589,1.4379,1.4244,1.4169,1.5027,1.5508,1.5578,1.6239,1.7776,2.0197,1.9551,1.8564,1.7296,1.659,1.5921,1.5322,1.5469,1.5426,1.5272,1.4733,1.4461,1.4297,1.3337,1.282,1.259,0.0,0.0,0.0,0.0,0.0,0.0,0.0,0.0,0.0,0.6412,0.6242,0.6475,0.4831,0.5283,0.583,0.3682,0.2971,0.2511,0.1296,-0.0169,-0.1366,-0.1379,-0.2085,-0.2898,-0.3501,-0.2581,-0.228,-0.4236,-0.5537,-0.6635,-0.7754,-0.8758,-0.9473,-0.9653,-0.9681,-0.9681,-0.9681,-0.9681,-0.9681,-0.9681,-0.9681,-0.9681,-0.9681,-0.9681,-0.9681,-0.9681,-0.9681,-0.9681,-0.9681,-0.9681,-0.9681,-0.9681,-0.9681,-0.9681,-0.9681,-0.9681,-0.9681,-0.9681,-0.9681,-0.9681,-0.9681,-0.9681,-0.9681,-0.9681,-0.9681,-0.9681,-0.9681,-0.9681,-0.9681,-0.9681,-0.9681,-0.9681,-0.9681,0.0,0.0,0.0,0.0,0.0,0.0,0.0,0.0,1.5094,1.5446,1.5777,1.6047,0.0,0.0,0.0,1.5822,1.5375,1.4891,1.444,1.3954,1.3775,1.406,1.4396,1.4749,1.5038,1.5159,1.6076,1.7825,1.7368,1.6606,1.5533,1.5406,1.5106,1.4721,1.5172,1.5184,1.4787,1.4327,1.3895,1.3463,1.2651,1.2175,1.1893,0.0,0.0,0.0,0.0,0.0,0.0,0.0,0.0,0.0,0.5371,0.5155,0.537,0.3344,0.372,0.4329,0.2171,0.1241,0.0674,-0.0213,-0.1746,-0.3185,-0.3856,-0.3515,-0.3308,-0.4236,-0.3839,-0.3846,-0.5368,-0.6447,-0.7366,-0.8133,-0.8952,-0.9555,-0.9665,-0.9681,-0.9681,-0.9681,-0.9681,-0.9681,-0.9681,-0.9681,-0.9681,-0.9681,-0.9681,-0.9681,-0.9681,-0.9681,-0.9681,-0.9681,-0.9681,-0.9681,-0.9681,-0.9681,-0.9681,-0.9681,-0.9681,-0.9681,-0.9681,-0.9681,-0.9681,-0.9681,-0.9681,-0.9681,-0.9681,-0.9681,-0.9681,-0.9681,-0.9681,-0.9681,-0.9681,-0.9681,-0.9681,-0.9681,0.0,0.0,0.0,0.0,0.0,0.0,0.0,1.4629,1.4756,1.5094,1.5478,1.5812,0.0,0.0,0.0,1.6066,1.5658,1.5186,1.4678,1.3612,1.312,1.3392,1.3027,1.3307,1.4352,1.429,1.4127,1.3947,1.4551,1.4662,1.4242,1.4586,1.4943,1.5361,1.5682,1.5506,1.4981,1.4611,1.3601,1.2273,1.2145,1.1731,1.1217,1.1372,0.0,0.0,0.0,0.0,0.0,0.0,0.0,0.0,0.5098,0.4373,0.3585,0.155,0.204,0.2596,-0.0266,-0.1147,-0.1515,-0.2552,-0.3786,-0.5081,-0.6483,-0.5675,-0.4712,-0.498,-0.5037,-0.5538,-0.718,-0.7499,-0.7984,-0.9464,-0.9681,-0.9681,-0.9681,-0.9681,-0.9681,-0.9681,-0.9681,-0.9681,-0.9681,-0.9681,-0.9681,-0.9681,-0.9681,-0.9681,-0.9681,-0.9681,-0.9681,-0.9681,-0.9681,-0.9681,-0.9681,-0.9681,-0.9681,-0.9681,-0.9681,-0.9681,-0.9681,-0.9681,-0.9681,-0.9681,-0.9681,-0.9681,-0.9681,-0.9681,-0.9681,-0.9681,-0.9681,-0.9681,-0.9681,-0.9681,-0.9681,-0.9681,0.0,0.0,0.0,0.0,0.0,0.0,1.4708,1.4869,1.4998,1.4774,1.53,1.5733,1.5796,1.6111,0.0,1.5587,1.5456,1.5061,1.4292,1.3455,1.312,1.3392,1.3168,1.3145,1.3409,1.2672,1.2185,1.1926,1.3141,1.3507,1.3075,1.3348,1.3453,1.3422,1.3637,1.3398,1.2753,1.2039,1.1633,1.1448,1.1236,1.1202,1.1179,1.1075,1.1,0.0,0.0,0.0,0.0,0.0,0.0,0.0,0.5156,0.436,0.3517,0.1916,0.16,0.1158,-0.1494,-0.2403,-0.289,-0.4046,-0.4544,-0.484,-0.5184,-0.5994,-0.6937,-0.7952,-0.7423,-0.7208,-0.8697,-0.9066,-0.9306,-0.9627,-0.9681,-0.9681,-0.9681,-0.9681,-0.9681,-0.9681,-0.9681,-0.9681,-0.9681,-0.9681,-0.9681,-0.9681,-0.9681,-0.9681,-0.9681,-0.9681,-0.9681,-0.9681,-0.9681,-0.9681,-0.9681,-0.9681,-0.9681,-0.9681,-0.9681,-0.9681,-0.9681,-0.9681,-0.9681,-0.9681,-0.9681,-0.9681,-0.9681,-0.9681,-0.9681,-0.9681,-0.9681,-0.9681,-0.9681,-0.9681,-0.9681,-0.9681,0.0,0.0,0.0,0.0,0.0,0.0,0.0,0.0,1.5539,1.5189,1.5443,1.5701,1.5701,1.5999,0.0,0.0,1.543,1.5207,1.4741,1.3784,1.327,1.3301,1.302,1.2731,1.243,1.1812,1.1242,1.0686,1.1606,1.2017,1.1989,1.2511,1.2814,1.2946,1.3155,1.2814,1.2062,1.1655,1.1378,1.1198,1.1198,1.1198,1.1179,1.1075,1.0915,1.0665,0.9903,0.0,0.0,0.0,0.0,0.0,0.0,0.0,0.344,0.1439,0.0865,0.0293,-0.2523,-0.3931,-0.4994,-0.6621,-0.7126,-0.7204,-0.7154,-0.7811,-0.8621,-0.9244,-0.8902,-0.8693,-0.9406,-0.9616,-0.9681,-0.9681,-0.9681,-0.9681,-0.9681,-0.9681,-0.9681,-0.9681,-0.9681,-0.9681,-0.9681,-0.9681,-0.9681,-0.9681,-0.9681,-0.9681,-0.9681,-0.9681,-0.9681,-0.9681,-0.9681,-0.9681,-0.9681,-0.9681,-0.9681,-0.9681,-0.9681,-0.9681,-0.9681,-0.9681,-0.9681,-0.9681,-0.9681,-0.9681,-0.9681,-0.9681,-0.9681,-0.9681,-0.9681,-0.9681,-0.9681,-0.9681,-0.9681,-0.9681,0.0,0.0,0.0,0.0,0.0,0.0,0.0,0.0,0.0,1.5748,1.5748,1.5796,1.5796,1.6031,1.6058,0.0,0.0,0.0,1.5415,1.4271,1.3458,1.3182,1.2802,1.2312,1.1704,1.1429,1.0909,1.0099,1.045,1.0844,1.1321,1.206,1.2617,1.3051,1.3155,1.2767,1.2051,1.1872,1.1513,1.1104,1.1246,1.1217,1.1085,1.1047,1.0844,1.0426,0.9402,0.9035,0.8694,0.6476,0.0,0.0,0.0,0.0,0.3342,0.0891,0.0164,-0.0512,-0.3313,-0.5407,-0.7189,-0.905,-0.9631,-0.9791,-0.9702,-0.9681,-0.9681,-0.9681,-0.9681,-0.9681,-0.9681,-0.9681,-0.9681,-0.9681,-0.9681,-0.9681,-0.9681,-0.9681,-0.9681,-0.9681,-0.9681,-0.9681,-0.9681,-0.9681,-0.9681,-0.9681,-0.9681,-0.9681,-0.9681,-0.9681,-0.9681,-0.9681,-0.9681,-0.9681,-0.9681,-0.9681,-0.9681,-0.9681,-0.9681,-0.9681,-0.9681,-0.9681,-0.9681,-0.9681,-0.9681,-0.9681,-0.9681,-0.9681,-0.9681,-0.9681,-0.9681,-0.9681,-0.9681,-0.9681,-0.9681,-0.9681,0.0,0.0,0.0,0.0,0.0,0.0,0.0,0.0,0.0,0.0,1.5952,1.6126,1.6126,1.6174,1.6153,1.6037,1.6015,1.5824,1.5436,0.0,0.0,1.3061,1.2756,1.2289,1.1625,1.1407,1.1038,1.0513,1.0569,1.0972,1.1721,1.2192,1.2569,1.2823,1.2428,1.2117,1.1777,1.0905,1.0598,1.0664,1.0522,1.055,1.0664,1.0484,1.0389,1.0197,0.9193,0.8451,0.7768,0.6905,0.5716,0.0,0.0,0.0,0.3137,0.1458,-0.0179,-0.1837,-0.389,-0.6448,-0.8714,-0.9326,-0.9631,-0.9791,-0.9702,-0.9681,-0.9681,-0.9681,-0.9681,-0.9681,-0.9681,-0.9681,-0.9681,-0.9681,-0.9681,-0.9681,-0.9681,-0.9681,-0.9681,-0.9681,-0.9681,-0.9681,-0.9681,-0.9681,-0.9681,-0.9681,-0.9681,-0.9681,-0.9681,-0.9681,-0.9681,-0.9681,-0.9681,-0.9681,-0.9681,-0.9681,-0.9681,-0.9681,-0.9681,-0.9681,-0.9681,-0.9681,-0.9681,-0.9681,-0.9681,-0.9681,-0.9681,-0.9681,-0.9681,-0.9681,-0.9681,-0.9681,-0.9681,-0.9681,-0.9681,-0.9681,0.0,0.0,0.0,0.0,0.0,0.0,0.0,0.0,0.0,0.0,0.0,1.6206,1.6206,1.6206,1.619,1.6166,1.6124,1.588,1.5388,1.4824,1.4402,1.4187,1.3708,1.3011,1.2125,1.1827,1.1275,1.0427,1.0427,1.072,1.1304,1.1476,1.2008,1.2776,1.22,1.1749,1.1435,1.0868,1.056,1.0427,1.0456,1.073,1.1014,1.0205,1.0113,1.0162,0.8329,0.751,0.7096,0.5748,0.4863,0.4285,0.3971,0.0,0.0,0.0,0.0657,-0.1378,-0.4445,-0.6951,-0.8832,-0.9285,-0.953,-0.9631,-0.9742,-0.9677,-0.962,-0.9669,-0.9681,-0.9681,-0.9681,-0.9681,-0.9681,-0.9681,-0.9681,-0.9681,-0.9681,-0.9681,-0.9681,-0.9681,-0.9681,-0.9681,-0.9681,-0.9681,-0.9681,-0.9681,-0.9681,-0.9681,-0.9681,-0.9681,-0.9681,-0.9681,-0.9681,-0.9681,-0.9681,-0.9681,-0.9681,-0.9681,-0.9681,-0.9681,-0.9681,-0.9681,-1.0033,-1.0585,-1.0585,-1.0585,-1.0585,-1.0585,-1.0234,-0.9681,-0.9681,-0.9681,-0.9681,-0.9681,-0.9681,-0.9681,0.0,0.0,0.0,0.0,0.0,0.0,0.0,0.0,0.0,0.0,0.0,1.6333,1.6333,0.0,0.0,0.0,1.6282,1.6041,1.5559,1.5329,1.5151,1.5057,1.436,1.3493,1.2398,1.1955,1.1271,1.0295,1.0342,1.0595,1.1028,1.1028,1.1584,1.2527,1.1926,1.1518,1.1255,1.0943,1.0692,1.0475,1.0674,1.0913,1.1063,1.0322,1.0227,1.0155,0.7858,0.6968,0.6619,0.4722,0.4063,0.3908,0.3357,0.3236,0.0,0.0,0.0,-0.0684,-0.4453,-0.6634,-0.8043,-0.8936,-0.9256,-0.9452,-0.9746,-0.9623,-0.9521,-0.9661,-0.9681,-0.9681,-0.9681,-0.9681,-0.9681,-0.9681,-0.9681,-0.9681,-0.9681,-0.9681,-0.9681,-0.9681,-0.9681,-0.9681,-0.9681,-0.9681,-0.9681,-0.9681,-0.9681,-0.9681,-0.9681,-0.9681,-0.9681,-0.9681,-0.9681,-0.9681,-0.9681,-0.9681,-0.9681,-0.9681,-0.9681,-0.9681,-0.9681,-0.9681,-1.0284,-1.1282,-1.1032,-1.0881,-1.0881,-1.0881,-1.0434,-0.9681,-0.9681,-0.9681,-0.9681,-0.9681,-0.9681,-0.9681,0.0,0.0,0.0,0.0,0.0,0.0,0.0,0.0,0.0,0.0,0.0,1.6673,1.6673,1.6673,1.6673,1.6673,1.6669,1.6506,1.6174,1.6072,1.5709,1.4938,1.4137,0.0,1.2059,1.1402,1.0823,1.0295,1.0484,1.087,1.1365,1.1365,1.1583,1.1922,1.1441,1.1341,1.1463,1.0849,1.0721,1.0877,1.1085,1.0763,1.0269,1.1027,1.0879,1.0081,0.8302,0.7217,0.6366,0.4666,0.3691,0.317,0.3194,0.3206,0.3223,0.0,0.0,0.0,-0.3559,-0.5056,-0.6236,-0.8217,-0.8836,-0.9065,-0.9677,-0.9623,-0.9521,-0.9661,-0.9681,-0.9681,-0.9681,-0.9681,-0.9681,-0.9681,-0.9681,-0.9681,-0.9681,-0.9681,-0.9681,-0.9681,-0.9681,-0.9681,-0.9681,-0.9681,-0.9681,-0.9681,-0.9681,-0.9681,-0.9681,-0.9681,-0.9681,-0.9681,-0.9681,-0.9681,-0.9681,-0.9681,-0.9681,-0.9681,-0.9681,-0.9681,-0.9681,-0.9681,-1.0284,-1.1232,-1.0229,-0.9782,-0.9782,-0.9782,-0.9731,-0.9681,-0.9681,-0.9681,-0.9681,-0.9681,-0.9681,-0.9681,0.0,0.0,0.0,0.0,0.0,0.0,0.0,0.0,0.0,0.0,0.0,0.0,0.0,1.6689,1.6689,1.6689,1.6276,1.5761,1.5207,1.4988,1.4672,1.4217,1.3594,1.2869,1.2015,1.1348,1.0779,1.0295,1.0228,1.0274,1.0377,1.0333,1.0371,1.0492,1.0714,1.0782,1.0689,1.0048,0.9723,0.975,1.0599,1.1092,1.1229,1.0295,1.0114,0.0,0.0,0.0,0.0,0.5646,0.4701,0.343,0.3447,0.3328,0.3141,0.2811,0.1802,0.02,-0.238,-0.3985,-0.5383,-0.7377,-0.8203,-0.8632,-0.8985,-0.9252,-0.9399,-0.9485,-0.9599,-0.9681,-0.9681,-0.9681,-0.9681,-0.9681,-0.9681,-0.9681,-0.9681,-0.9681,-0.9681,-0.9681,-0.9681,-0.9681,-0.9681,-0.9681,-0.9681,-0.9681,-0.9681,-0.9681,-0.9681,-0.9681,-0.9681,-0.9681,-0.9681,-0.9681,-0.9681,-0.9681,-0.9681,-0.9681,-0.9681,-0.9681,-0.9681,-0.9681,-0.9932,-1.0234,-0.9882,-1.0083,-1.0781,-1.1478,-1.0932,-0.9681,-0.9681,-0.9681,-0.9681,-0.9681,-0.9681,-0.9681,0.0,0.0,0.0,1.6689,0.0,1.6689,1.6689,1.6689,1.6689,1.6689,0.0,0.0,0.0,0.0,1.6568,1.6278,1.5833,1.5308,1.4731,1.442,1.4069,1.3613,1.2937,1.2281,1.1671,1.1003,1.052,1.0213,1.0137,0.9965,0.9669,0.9772,0.9712,0.9523,0.9528,0.9892,1.0458,0.0,0.0,0.9517,0.0,1.0539,1.0693,0.0,0.0,0.0,0.0,0.0,0.0,0.0,0.4957,0.3758,0.3726,0.3458,0.311,0.276,0.2151,0.1168,-0.0725,-0.2214,-0.3756,-0.5957,-0.69,-0.7582,-0.8502,-0.8922,-0.9154,-0.9363,-0.9579,-0.9718,-0.9685,-0.9681,-0.9681,-0.9681,-0.9681,-0.9681,-0.9681,-0.9681,-0.9681,-0.9681,-0.9681,-0.9681,-0.9681,-0.9681,-0.9681,-0.9681,-0.9681,-0.9681,-0.9681,-0.9681,-0.9681,-0.9681,-0.9681,-0.9681,-0.9681,-0.9681,-0.9681,-0.9681,-0.9681,-0.9681,-0.9681,-0.9681,-0.9681,-0.9731,-1.0083,-1.0434,-1.0831,-1.1528,-1.0977,-0.9681,-0.9681,-0.9681,-0.9681,-0.9681,-0.9681,-0.9681,0.0,1.6705,1.6705,1.6689,1.6705,1.6705,1.6689,1.6705,1.6685,1.6664,0.0,0.0,0.0,0.0,0.0,1.5417,1.5325,1.5194,1.4819,1.4517,1.3984,1.3185,1.2214,1.1467,1.1003,1.0342,0.9994,0.9973,1.0159,0.9972,0.9378,0.9753,0.9628,0.9075,0.789,0.8635,1.0739,0.0,1.0217,1.0227,0.0,0.9049,0.8486,0.0,0.0,0.0,0.8032,0.7296,0.0,0.4944,0.0,0.0,0.0,0.0,0.3103,0.3188,0.2874,0.2308,0.0,0.0,0.0,-0.3988,-0.5044,-0.5986,-0.8161,-0.8644,-0.8782,-0.9297,-0.9604,-0.9767,-0.9697,-0.9685,-0.9685,-0.9681,-0.9681,-0.9681,-0.9681,-0.9681,-0.9681,-0.9681,-0.9681,-0.9681,-0.9681,-0.9681,-0.9681,-0.9681,-0.9681,-0.9681,-0.9681,-0.9681,-0.9681,-0.9681,-0.9681,-0.9681,-0.9681,-0.9681,-0.9681,-0.9681,-0.9681,-0.9681,-0.9681,-0.9731,-0.9731,-0.9782,-1.0881,-1.0731,-0.9681,-0.9731,-0.9731,-0.9681,-0.9681,-0.9681,-0.9681,-0.9681,-0.9681,-0.9681,1.6689,1.6932,1.7048,1.6757,1.6932,1.7032,1.6737,1.662,1.6375,0.0,0.0,0.0,0.0,0.0,0.0,1.3996,1.3902,1.3518,1.2637,1.2621,1.2472,1.2064,1.1496,1.1133,1.1003,1.0342,0.9842,0.9493,0.9556,0.9198,0.8459,0.8115,0.7831,0.7562,0.68,0.6818,0.7396,0.7008,0.0,0.7141,0.7963,0.827,0.0,0.0,0.0,0.0,0.0,0.693,0.5733,0.0,0.591,0.4281,0.0,0.0,0.3103,0.0,0.0,0.0,0.1534,0.0,0.0,0.0,0.0,0.0,-0.7237,-0.7623,-0.8019,-0.893,-0.9126,-0.9265,-0.9697,-0.9779,-0.9759,-0.9689,-0.9681,-0.9681,-0.9681,-0.9681,-0.9681,-0.9681,-0.9681,-0.9681,-0.9681,-0.9681,-0.9681,0.0,-0.9681,-0.9681,-0.9681,-0.9681,-0.9681,-0.9681,-0.9681,-0.9681,-0.9681,-0.9681,-0.9681,-0.9681,-0.9681,-0.9681,-0.9731,-1.048,-1.0434,-0.9782,-1.1628,-1.1428,-0.9782,-1.0535,-1.038,-0.9681,-0.9681,-0.9681,-0.9681,-0.9681,-0.9681,-0.9681,1.6948,1.7239,1.7435,1.7207,1.7588,1.7723,1.7124,1.6835,1.6389,0.0,0.0,0.0,0.0,0.0,0.0,1.3244,1.3085,1.2704,1.1996,1.172,1.1498,1.1366,1.0855,1.0581,1.0581,1.0016,0.958,0.9305,0.91,0.8512,0.7557,0.7253,0.6802,0.6214,0.5601,0.5331,0.5324,0.0,0.0,0.0,0.6656,0.0,0.0,0.7334,0.7062,0.0,0.0,0.0,0.5673,0.6841,0.6083,0.0,0.0,0.0,0.0,0.0,0.0,0.0,0.0,0.0,-0.0542,-0.1929,0.0,0.0,-0.6166,-0.6661,-0.7217,-0.8692,-0.8995,-0.9122,-0.9563,-0.9587,-0.9703,-1.026,-1.0323,-1.0186,-0.9773,-0.9681,-0.9681,-0.9681,-0.9681,-0.9681,-0.9681,-0.9681,-0.9681,-0.9681,-0.9681,-0.9681,-0.9681,-0.9681,-0.9681,-0.9681,-0.9681,-0.9681,-0.9681,-0.9681,-0.9681,-0.9681,-0.9681,-0.9681,-0.9731,-1.0334,-1.0535,-1.0434,-1.1678,-1.1778,-1.1077,-1.1728,-1.1082,-0.9731,-1.0183,-1.0083,-0.9681,-0.9681,-0.9681,-0.9681,0.0,1.7551,1.7739,1.763,1.8152,1.8257,1.7362,1.6897,1.6349,0.0,1.4889,0.0,0.0,0.0,0.0,0.0,1.2589,1.237,1.2093,1.1357,1.0905,1.0895,1.0275,0.9926,0.9929,0.9476,0.9213,0.913,0.864,0.7819,0.6716,0.6686,0.6082,0.5036,0.4349,0.4087,0.4102,0.3343,0.0,0.5958,0.5605,0.5494,0.0,0.0,0.6238,0.5257,0.6996,0.68,0.5715,0.5867,0.5545,0.0,0.0,0.0,0.0,0.0,0.2506,0.0,0.0,0.0,0.0,0.0,0.0,0.0,-0.4902,-0.5595,-0.6232,-0.8234,-0.8676,-0.8788,-0.9156,-0.9074,-0.9376,-1.0618,-1.0987,-1.086,-0.9999,-0.9865,-0.9815,-0.9715,-0.9657,-0.9661,-0.9693,-0.9685,-0.9681,-0.9681,-0.9681,-0.9681,-0.9681,-0.9681,-0.9681,-0.9681,-0.9681,-0.9782,-0.9882,-0.9782,-0.9782,-0.9882,-0.9782,-0.9681,-0.9681,-0.9832,-1.0334,-1.1132,-1.1383,-1.1879,-1.2574,-1.2923,-1.1879,-1.0129,-1.0982,-1.0731,-0.9882,-0.9731,-0.9681,-0.9681,1.7307,1.743,1.7334,1.6627,1.6833,1.6725,1.5591,1.5245,1.4893,1.4234,1.3414,0.0,0.0,0.0,0.0,0.0,1.1819,1.1414,1.0748,1.0525,1.0352,1.02,0.9815,0.9544,0.9437,0.9077,0.8631,0.8091,0.7467,0.6827,0.6213,0.5049,0.4387,0.4118,0.3451,0.3151,0.3144,0.2655,0.0,0.3425,0.4226,0.0,0.5402,0.5851,0.5968,0.594,0.6341,0.6364,0.6068,0.5594,0.5379,0.518,0.0,0.0,0.0,0.3069,0.0,0.0,0.0,0.0,0.0,0.0,0.0,0.0,0.0,-0.3571,-0.4006,-0.6092,-0.6325,-0.663,-0.7953,-0.8248,-0.8329,-0.845,-0.9766,-1.0845,-1.0909,-1.0906,-1.0559,-0.967,-0.9506,-0.9546,-0.9767,-0.9722,-0.9681,-0.9681,-0.9681,-0.9681,-0.9681,-0.9681,-0.9681,-0.9681,-0.9681,-1.0133,-1.0982,-1.0133,-1.0133,-1.0982,-1.0133,-0.9681,-0.9731,-1.058,-1.0631,-1.0133,-1.1828,-1.1728,-1.053,-1.3129,-1.3428,-1.2224,-1.1583,-1.1182,-1.0881,-1.0033,-0.9681,-0.9681,1.7476,1.7432,1.7296,1.6798,1.6688,1.6407,1.558,1.5232,1.4826,1.4173,0.0,0.0,0.0,0.0,0.0,0.0,0.0,0.0,1.0484,1.0352,1.02,1.0004,0.9605,0.9216,0.8816,0.8139,0.7468,0.6796,0.6192,0.5586,0.4986,0.4251,0.3798,0.3593,0.3152,0.2899,0.2797,0.29,0.2965,0.3046,0.3784,0.0,0.475,0.5549,0.5951,0.6071,0.6191,0.6254,0.6207,0.5725,0.5504,0.0,0.0,0.43,0.3659,0.0,0.1973,0.1127,0.0,0.0,0.0,-0.093,0.0,0.0,0.0,0.0,-0.2105,-0.4275,-0.4901,-0.5415,-0.6662,-0.7267,-0.7821,-0.8478,-0.9545,-1.0332,-1.0394,-1.096,-1.0955,-0.9848,-1.0155,-1.0336,-0.9869,-1.0308,-1.0331,-0.9735,-0.9681,-0.9681,-0.9681,-0.9681,-0.9681,-0.9681,-0.9681,-0.9982,-1.048,-0.9982,-0.9982,-1.048,-0.9982,-0.9681,-0.9731,-1.0284,-1.048,-1.058,-1.1628,-1.1778,-1.1478,-1.3628,-1.4177,-1.3628,-1.3129,-1.2579,-1.1979,-1.0881,-1.048,-1.048,1.7387,1.7159,1.6995,1.6544,1.6373,1.607,1.5376,1.5175,1.4895,1.4384,0.0,0.0,0.0,0.0,0.0,0.0,0.0,0.0,1.0682,1.0459,1.0273,1.0096,0.9385,0.8737,0.8191,0.7076,0.6211,0.565,0.5069,0.4474,0.3894,0.376,0.3401,0.2838,0.2595,0.2383,0.2246,0.2555,0.0,0.2477,0.0,0.3258,0.3931,0.5235,0.5478,0.5227,0.5592,0.5813,0.5953,0.5413,0.5308,0.5265,0.4806,0.3793,0.0,0.0,0.0,0.0,0.0,0.0,0.0,0.0,0.0,0.0178,0.0,0.0,0.0,0.0,-0.359,-0.4332,-0.5396,-0.612,-0.7026,-0.8426,-0.9253,0.0,0.0,-1.034,0.0,-0.9666,-1.0399,-1.079,-1.0143,-1.1019,-1.1335,-1.041,-1.024,-1.0223,-1.0325,-1.033,-1.0229,-1.0033,-1.0033,-1.0129,-1.033,-1.0129,-1.0129,-1.033,-1.0129,-0.9882,-0.9681,-0.9681,-1.0183,-1.0982,-1.0982,-1.1583,-1.2679,-1.3728,-1.4327,-1.4476,-1.4476,-1.3978,-1.3073,-1.1979,-1.1633,-1.1633,1.6395,1.616,1.5593,1.4097,1.4423,1.4426,1.2947,1.3387,1.3923,0.0,0.0,0.0,0.0,0.0,0.0,0.0,0.0,0.0,1.0836,1.0601,1.0462,1.0436,0.8808,0.7848,0.7771,0.6192,0.5289,0.5094,0.4366,0.3983,0.3894,0.3294,0.2347,0.115,0.0785,0.0558,0.044,-0.0335,-0.0806,0.0,-0.0436,0.1085,0.0,0.4232,0.3655,0.2381,0.3226,0.4152,0.477,0.0,0.3923,0.4544,0.0,0.204,0.1,0.0306,0.0,0.0,0.0,0.0,0.0,0.0,-0.144,0.0,0.0,0.0,-0.0332,-0.1492,0.0,0.0,0.0,0.0,0.0,0.0,0.0,0.0,-0.7353,-0.8807,-0.9531,-0.8259,-0.8672,-0.9474,-1.0587,-1.1691,-1.2409,-1.2712,-1.2198,-1.2098,-1.2508,-1.2524,-1.2079,-1.1132,-1.1132,-1.1583,-1.2524,-1.1578,-1.1583,-1.2524,-1.1583,-1.0631,-0.9681,-0.9681,-0.9782,-0.9882,-0.9882,-1.048,-1.1583,-1.2629,-1.3628,-1.4476,-1.4476,-1.4426,-1.4177,-1.3123,-1.2724,-1.2724,1.5965,1.5185,1.4276,1.3369,1.3307,1.3126,1.241,1.2708,1.2997,0.0,0.0,0.0,0.0,0.0,0.0,0.0,0.0,1.3071,0.0,0.0,0.0,1.1774,0.8929,0.7403,0.7522,0.5548,0.4276,0.3828,0.3493,0.332,0.3297,0.2245,0.1521,0.1075,-0.0419,-0.1194,-0.1325,-0.0906,-0.1263,0.0,0.0,0.0,0.0,0.0675,0.0754,0.0094,0.0346,0.1307,0.2245,0.0,0.1732,0.0,0.0,0.0,0.0,0.0,0.0,0.0,0.0,0.0,0.0,0.0,0.0,0.0,0.0408,0.0,0.0838,0.0,0.0,0.0,0.0,0.0,0.0,0.0,-0.5751,0.0,0.0,0.0,-0.8028,0.0,0.0,0.0,-1.0606,-1.0393,-1.063,-1.1713,-1.1329,-1.1532,-1.2542,-1.2797,-1.2674,-1.2229,-1.2229,-1.2429,-1.2923,-1.2429,-1.2429,-1.2873,-1.1828,-1.1082,-1.0631,-1.0631,-1.0631,-1.0681,-1.1278,-1.1828,-1.2329,-1.3379,-1.3728,-1.3622,-1.4277,-1.4875,-1.528,-1.4227,-1.3423,-1.2973,1.4947,1.4088,1.3196,1.275,1.2438,1.2236,1.2161,1.2096,1.2107,0.0,0.0,0.0,1.5175,1.3203,0.0,0.0,1.5203,1.4204,0.0,0.0,1.249,1.2792,0.9161,0.0,0.7565,0.5462,0.3914,0.3005,0.2925,0.2905,0.2897,0.1537,0.0826,0.0612,-0.1641,-0.2815,-0.3088,-0.2247,-0.2616,-0.3542,-0.2078,-0.3026,-0.5117,-0.3231,-0.2321,-0.2131,-0.2391,-0.1503,-0.0398,-0.1935,-0.0905,0.0,0.0094,0.0,0.0,0.0,0.0,0.0,-0.2328,0.0,0.0,0.0,0.0,0.0,0.0,0.0,0.0,0.0,0.0,0.0,0.0,0.0,0.0,0.0,0.0,-0.4204,0.0,0.0,0.0,0.0,0.0,0.0,0.0,-0.9659,-0.9732,-1.1034,-1.1018,-1.152,-1.2821,-1.3372,-1.3553,-1.3323,-1.3323,-1.3323,-1.3323,-1.3323,-1.3323,-1.3323,-1.2529,-1.2034,-1.1733,-1.1733,-1.1733,-1.1783,-1.2574,-1.3073,-1.3373,-1.3878,-1.3778,-1.3423,-1.4177,-1.4981,-1.5578,-1.4775,-1.4027,-1.3473,1.2855,1.2758,1.2411,1.1679,1.1755,1.1876,1.182,1.1285,1.1203,0.0,0.0,0.0,0.0,0.0,0.0,0.0,0.0,1.4851,1.4879,0.0,1.2121,1.3064,0.9312,0.7442,0.0,0.6205,0.4513,0.3005,0.2925,0.2925,0.2956,0.1569,0.0283,-0.0914,-0.3011,-0.4241,-0.4785,-0.5456,-0.6215,-0.6935,-0.6861,-0.7698,-0.8712,0.0,-0.5325,-0.4316,-0.4589,0.0,0.0,-0.4257,-0.3926,0.0,0.0,0.0,0.0,0.0,0.0,0.0,0.0,0.0,0.0,-0.183,0.0,0.0,0.0,0.0,0.0059,0.0,0.0,0.0,0.0,0.0,0.0,0.0,0.0,0.0,0.0,0.0,0.0,0.0,0.0,0.0,0.0,-1.0278,-1.1051,0.0,-1.2296,-1.2991,-1.4066,-1.5012,-1.5192,-1.447,-1.4426,-1.4426,-1.4426,-1.4426,-1.4426,-1.4426,-1.4426,-1.3828,-1.2873,-1.2873,-1.2873,-1.2873,-1.2873,-1.3473,-1.4377,-1.3373,-1.3523,-1.4426,-1.4476,-1.4526,-1.4526,-1.4526,-1.4476,-1.4576,1.1453,1.1219,1.1012,1.0633,1.1096,1.1389,1.1012,1.0667,0.0,0.0,0.0,0.0,0.0,1.5563,1.5887,0.0,0.0,1.666,1.7383,1.5074,0.0,0.0,0.0,0.875,0.0,0.6638,0.4801,0.3055,0.3036,0.2843,0.2452,0.1128,-0.0271,-0.1718,-0.3796,-0.5396,-0.6496,-0.6271,-0.6869,0.0,0.0,-0.8349,-0.8728,0.0,-0.8092,-0.7662,-0.7934,-0.7062,0.0,-0.7524,-0.6362,-0.4438,-0.5363,-0.5623,-0.5384,-0.4162,-0.4246,-0.4438,0.0,0.0,-0.3114,-0.107,0.0,0.0,0.0,0.0,0.0,0.0,0.0,0.0,0.0,0.0,0.0,0.0,0.0,0.0,0.0,0.0,0.0,0.0,0.0,0.0,0.0,0.0,0.0,0.0,-1.043,0.0,-1.3708,-1.437,-1.4941,-1.5522,-1.5578,-1.5578,-1.5578,-1.5578,-1.5578,-1.5529,-1.4127,-1.3622,-1.3928,-1.3223,-1.3273,-1.3978,-1.4725,-1.523,-1.5479,-1.4377,-1.3772,-1.3423,-1.3423,-1.2579,-1.1678,-1.4526,-1.5771,-1.6056,1.0638,1.0086,0.9887,1.0162,1.0052,0.9954,1.0029,0.9365,0.0,0.0,1.1417,0.0,1.4168,0.0,1.4527,0.0,1.6143,1.5556,1.6416,1.4224,0.0,1.3617,1.0572,0.0,0.0,0.0,0.5163,0.3372,0.302,0.25,0.1774,0.0571,-0.0838,-0.2457,-0.4106,-0.571,-0.7259,-0.6975,-0.7588,0.0,0.0,-0.8836,0.0,0.0,-0.9305,-0.9101,0.0,-0.8994,-0.8204,-0.9294,-0.8268,-0.6644,-0.7115,-0.7005,-0.6411,-0.5254,-0.5071,-0.4991,-0.3785,-0.387,0.0,-0.2205,-0.2559,0.0,-0.1238,0.0,-0.088,0.0,0.0,0.0,0.0,0.0,0.0,0.0,0.0,0.0,0.0,0.0,0.0,0.0,0.0,0.0,0.0,0.0,0.0,0.0,0.0,0.0,0.0,-1.3671,-1.4661,-1.6094,-1.611,-1.6083,-1.6083,-1.6083,-1.6083,-1.6083,-1.4676,-1.4377,-1.5031,-1.4327,-1.4227,-1.4526,-1.523,-1.533,-1.4931,-1.4227,-1.3872,-1.3766,-1.4165,-1.3417,-1.2474,-1.4277,-1.5366,-1.6056,1.0286,0.9314,0.8858,0.9865,0.8557,0.7757,0.887,0.0,0.6819,0.0,0.8461,0.8585,0.9462,0.9188,1.0287,1.3627,1.2586,1.1923,1.2339,1.0718,0.0,0.0,0.856,0.7546,0.7692,0.0,0.0,0.0,0.2874,0.1924,0.1038,0.0,-0.1442,-0.3175,-0.3958,-0.5304,-0.7035,-0.7612,-0.8307,-0.904,-0.9091,-0.9217,-0.9395,-0.942,-0.9093,-0.8734,-0.953,-0.9599,-0.9354,-0.9608,-0.9693,-0.9438,-0.7918,-0.7411,-0.711,-0.5496,-0.5072,-0.513,-0.5097,-0.5186,-0.518,-0.5029,-0.5049,0.0,0.0,0.0,-0.255,0.0,0.0,0.0,0.0,0.0,0.0,0.0,0.0,0.0,0.0,0.0,0.0,0.0,0.0,0.0,0.0,0.0,0.0,0.0,0.0,0.0,0.0,-1.3055,-1.4327,-1.6195,-1.6137,-1.6062,-1.6062,-1.6062,-1.6062,-1.6062,-1.6026,-1.6033,-1.6083,-1.5983,-1.5429,-1.4476,-1.4426,-1.3828,-1.2923,-1.2923,-1.376,-1.5198,-1.6347,-1.6793,-1.6495,-1.4016,-1.3722,-1.4676,0.905,0.7544,0.6034,0.506,0.6042,0.6974,0.7047,0.0,0.0,0.0,0.9097,0.9357,1.0286,1.1568,1.2437,1.2665,1.2247,0.0,0.0,0.0,0.0,1.0654,0.983,0.8886,0.7876,0.667,0.0,0.4182,0.2635,0.1429,0.0576,-0.016,-0.1657,-0.3788,-0.4142,-0.5336,-0.7113,-0.7437,-0.8274,-0.9371,-0.9529,-0.942,-0.92,0.0,-0.9375,-0.8987,-0.9595,-0.98,-0.9741,-0.981,-0.983,-0.9767,-0.9291,-0.917,-0.9068,-0.8658,-0.7664,-0.6727,-0.6777,-0.6767,-0.6478,-0.5289,-0.5886,-0.6347,0.0,0.0,0.0,0.0,0.0,0.0,0.0,0.0,0.0,0.0,0.0,0.0,0.0,0.0,0.0,0.0,0.0,0.0,0.0,0.0,0.0,0.0,0.0,0.0,0.0,0.0,-1.3291,-1.568,-1.5771,-1.575,-1.575,-1.575,-1.575,-1.5708,-1.5177,-1.533,-1.6033,-1.4426,-1.4027,-1.4476,-1.3678,-1.3173,-1.2923,-1.2923,-1.3123,-1.3716,-1.595,-1.6793,-1.6694,-1.6056,-1.5453,-1.5055,0.7469,0.5395,0.3187,0.1053,0.2076,0.389,0.5918,0.5793,0.0,0.7896,0.7991,0.0,0.8006,0.9496,1.0231,0.9711,0.9658,0.0,0.9584,0.0,0.0,0.8112,0.789,0.7163,0.5822,0.4927,0.0,0.3463,0.0,0.0718,-0.0565,-0.0766,-0.2184,-0.4596,-0.4388,-0.5202,-0.6783,-0.7521,-0.833,-0.9111,-0.9371,-0.9367,0.0,-0.9542,-0.9522,-0.9399,-0.9706,-0.9797,-0.9842,-0.9842,-0.9866,-0.9891,-0.9842,-0.9826,-0.9818,-0.9828,-0.9142,-0.8422,-0.8433,-0.8425,-0.8238,-0.7318,-0.7782,-0.8043,-0.6417,-0.6041,-0.5986,0.0,-0.5418,-0.5062,0.0,0.0,0.0,0.0,0.0,0.0,0.0,0.0,0.0,0.0,0.0,0.0,0.0,0.0,0.0,0.0,0.0,0.0,0.0,0.0,-1.2764,-1.5641,-1.5608,-1.5458,-1.5438,-1.5635,-1.5703,-1.5593,-1.5342,-1.5529,-1.6033,-1.4377,-1.3928,-1.4426,-1.3373,-1.2923,-1.2923,-1.3423,-1.4022,-1.4862,-1.7536,-1.8278,-1.7776,-1.7041,-1.5701,-1.4209,0.4998,0.2731,0.042,-0.2002,-0.1913,-0.0038,0.0,0.4264,0.0,0.5847,0.0,0.5155,0.429,0.5259,0.5976,0.5983,0.0,0.5994,0.5894,0.5981,0.5595,0.4526,0.4529,0.4102,0.3148,0.2709,0.0,0.0,0.0,0.0032,-0.1779,-0.1502,-0.2817,-0.5386,-0.474,-0.5212,-0.657,-0.7738,-0.8432,-0.8775,-0.9243,-0.9515,-0.9653,-0.9787,-0.9985,-1.0202,-1.0202,-1.0015,-0.9836,-0.9836,-0.9834,-0.9899,-0.9887,-0.9891,-0.9883,-0.9844,-0.9822,-0.9866,-0.984,-0.9814,-0.985,-0.9832,-0.9816,-0.9447,-0.8025,-0.7694,-0.7691,-0.7758,-0.6536,-0.5934,-0.737,0.0,0.0,0.0,0.0,0.0,0.0,0.0,0.0,0.0,0.0,0.0,0.0,0.0,0.0,0.0,0.0,0.0,0.0,0.0,-1.2452,-1.5628,-1.5466,-1.5289,-1.5153,-1.5842,-1.5994,-1.5566,-1.637,-1.6623,-1.6374,-1.5516,-1.5018,-1.4725,-1.3672,-1.3073,-1.2973,-1.4077,-1.5615,-1.7536,-1.9914,-2.025,-1.9199,-1.7677,-1.5403,-1.3073,-0.0403,-0.1323,-0.1958,-0.289,-0.2533,-0.189,-0.1098,-0.0298,0.1023,0.3376,0.2898,0.227,0.2132,0.3052,0.3695,0.3673,0.3679,0.0,0.0,0.0,0.0,0.3375,0.3391,0.3319,0.3207,0.225,0.2039,0.0,0.0,0.0,-0.1722,-0.1716,-0.3043,-0.539,-0.5376,-0.6161,-0.7507,-0.8184,-0.8836,-0.96,-1.0586,-1.1014,-1.1138,-1.1953,-1.2303,-1.2355,-1.2355,-1.1268,-0.9879,-0.9879,-0.9887,-0.9887,-0.9814,-0.9842,-0.9883,-0.9844,-0.9828,-0.9836,-0.982,-0.9775,-0.9742,-0.9804,-0.9816,-0.9702,-0.9451,-0.9436,-0.9412,-0.942,-0.921,-0.899,-0.8987,0.0,0.0,0.0,0.0,0.0,0.0,0.0,0.0,0.0,0.0,0.0,0.0,0.0,0.0,0.0,0.0,0.0,0.0,0.0,-1.171,0.0,-1.4943,0.0,0.0,0.0,-1.6888,-1.5459,-1.8501,-1.9273,-1.7989,-1.827,-1.7627,-1.6354,-1.5248,-1.4059,-1.2973,-1.4077,-1.6701,-2.016,-2.0603,-2.0701,-2.0397,-1.9199,-1.6835,-1.4077,-0.2986,-0.362,-0.4178,-0.5158,-0.5234,-0.4793,-0.376,-0.3771,-0.2842,0.0095,0.0096,0.0097,0.098,0.1589,0.2259,0.3077,0.3154,0.3143,0.3159,0.316,0.2921,0.2338,0.2339,0.0,0.1536,0.1047,0.0928,0.1261,0.0,-0.0486,-0.2208,-0.2238,-0.3388,-0.5434,-0.6006,-0.6971,-0.8215,-0.9203,-1.0106,-1.1018,-1.1848,-1.2206,-1.2251,-1.2695,-1.2923,-1.2923,-1.2923,-1.2296,-1.144,-1.1492,-1.1138,-1.0712,-1.0714,-1.0325,-0.9891,-0.985,-0.9834,-0.9834,-0.9834,-0.982,-0.9763,-0.9808,-0.9779,-0.9759,-0.9808,-0.9812,-0.9824,-0.9826,-0.9834,-0.955,-0.8491,-0.7313,0.0,0.0,0.0,0.0,0.0,0.0,0.0,0.0,0.0,0.0,0.0,0.0,0.0,0.0,0.0,0.0,0.0,0.0,-1.1418,0.0,0.0,0.0,-1.4848,0.0,-1.7553,-1.6517,-1.9417,-2.0406,-1.9618,-1.9347,-1.9101,-1.8821,-1.7719,-1.7175,-1.7041,-1.7536,-1.947,-2.2035,-2.2035,-2.2035,-2.1888,-2.0545,-1.961,-1.8426,-0.4882,-0.5459,-0.6168,-0.7267,-0.7729,-0.7405,-0.5761,-0.6623,-0.6159,-0.2627,-0.2308,-0.1976,-0.0692,-0.0451,0.0101,0.1366,0.1515,0.1518,0.1478,0.1478,0.1126,0.0258,0.0207,-0.0206,-0.1081,-0.1087,-0.107,0.0,0.0,-0.1545,-0.3225,-0.3056,-0.4112,-0.6202,-0.6958,-0.8058,-0.9462,-1.045,-1.1418,-1.2358,-1.3005,-1.3223,-1.3273,-1.3473,-1.3573,-1.3573,-1.3573,-1.3573,-1.359,-1.3643,-1.2826,-1.1776,-1.1776,-1.1236,-1.0488,-1.0282,-1.0231,-1.0184,-0.9947,-0.9834,-0.9816,-0.9816,-0.9763,-0.9722,-0.9775,-0.9746,-0.9751,-0.9842,-0.983,-0.939,-0.8039,-0.7492,0.0,0.0,0.0,0.0,0.0,0.0,0.0,0.0,0.0,0.0,0.0,0.0,0.0,0.0,0.0,0.0,-1.0358,0.0,0.0,0.0,0.0,-1.4491,-1.4552,0.0,-1.8336,-1.7687,-2.0492,-2.1634,-2.129,-2.0782,-2.0831,-2.1241,-2.0438,-2.0339,-2.0799,-2.0799,-2.1741,-2.3219,-2.3219,-2.3219,-2.3072,-2.179,-2.1888,-2.1888,-0.7311,-0.7717,-0.7863,-0.8024,-0.8289,-0.8514,-0.8491,-0.8869,-0.7678,-0.3604,-0.3895,-0.4479,-0.4325,-0.4281,-0.4235,-0.4082,-0.405,-0.4031,-0.4036,-0.4036,-0.4155,-0.4347,-0.4399,-0.4432,-0.4609,-0.4577,-0.455,0.0,0.0,-0.3479,-0.4934,-0.415,-0.5578,-0.8765,-0.8607,-0.9817,-1.1954,-1.1819,-1.2203,-1.2983,-1.3945,-1.4327,-1.4476,-1.5429,-1.5784,-1.5784,-1.5784,-1.5784,-1.5784,-1.5798,-1.4451,-1.2756,-1.2756,-1.273,-1.2516,-1.1546,-1.1246,-1.106,-1.0136,-0.9834,-0.9816,-0.9816,-0.9812,-0.9783,-0.971,-0.9751,-0.9808,-0.9824,-0.9838,-0.9745,-0.9221,-0.91,-0.8694,0.0,0.0,0.0,0.0,0.0,0.0,0.0,0.0,0.0,0.0,0.0,0.0,0.0,-0.6024,0.0,0.0,0.0,0.0,-1.3806,-1.3768,-1.3865,-1.4129,-1.8166,-1.9499,-1.8171,-2.2829,-2.4341,-2.3023,-2.4341,-2.4194,-2.2974,-2.2877,-2.2035,-2.0799,-2.0799,-2.1741,-2.3219,-2.3219,-2.3219,-2.317,-2.3023,-2.2133,-2.0947,-0.813,-0.824,-0.8293,-0.8553,-0.8713,-0.8864,-0.915,-0.9408,-0.8994,-0.7298,-0.7481,-0.7348,-0.6384,-0.6283,-0.5878,-0.4864,-0.4797,-0.4799,-0.4774,-0.4776,-0.4847,-0.4892,-0.487,-0.4935,-0.5051,-0.5034,-0.5019,0.0,0.0,0.0,-0.5728,-0.5842,-0.7454,-1.0295,-1.0508,-1.1491,-1.3129,-1.4415,-1.5449,-1.6337,-1.7714,-1.8285,-1.8236,-1.7699,-1.7501,-1.7353,-1.6424,-1.6083,-1.6083,-1.6083,-1.5081,-1.3878,-1.3878,-1.3457,-1.286,-1.2475,-1.1887,-1.1301,-1.0947,-1.0343,-0.9816,-0.9816,-0.9816,-0.9791,-0.9702,-0.9751,-0.9816,-0.9816,-0.9844,-0.9781,-0.9706,-0.942,-0.9093,-0.8762,0.0,0.0,0.0,0.0,0.0,0.0,0.0,0.0,0.0,0.0,0.0,0.0,0.0,0.0,0.0,0.0,0.0,-1.3362,0.0,-1.5021,-1.5987,-1.8946,-2.0559,-2.0918,-2.4021,-2.5178,-2.4594,-2.5227,-2.5178,-2.4594,-2.4594,-2.4194,-2.3599,-2.3599,-2.4,-2.4594,-2.4594,-2.4594,-2.4341,-2.2476,-2.2573,-2.3355,-0.8754,-0.8734,-0.8733,-0.906,-0.9157,-0.9195,-0.9448,-0.9595,-0.9681,-0.9681,-0.9681,-0.9275,-0.8116,-0.8012,-0.7509,-0.6349,-0.6248,-0.6264,-0.6256,-0.6258,-0.6234,-0.6291,-0.6254,0.0,-0.6423,-0.6714,-0.6917,-0.7005,-0.6624,0.0,-0.7823,-0.8223,-0.9973,-1.277,-1.3069,-1.4133,-1.5825,-1.7441,-1.8493,-1.9224,-2.0357,-2.0799,-2.0701,-1.952,-1.9125,-1.8977,-1.7848,-1.7459,-1.7459,-1.7459,-1.6956,-1.6211,-1.5273,-1.4426,-1.3795,-1.3531,-1.2903,-1.2267,-1.2027,-1.1134,-1.027,-1.027,-1.027,-1.0249,-1.0205,-1.0432,-1.0641,-1.0316,-1.027,-1.0189,-0.9902,-0.955,-0.9265,-0.9224,0.0,0.0,0.0,0.0,0.0,0.0,0.0,0.0,-0.8236,0.0,0.0,0.0,0.0,0.0,0.0,0.0,0.0,0.0,0.0,0.0,-1.7112,-1.9223,-2.1127,-2.2854,-2.467,-2.5518,-2.5518,-2.5518,-2.5518,-2.5518,-2.5518,-2.5518,-2.5518,-2.5518,-2.5518,-2.5518,-2.5518,-2.5518,-2.5227,-2.3014,-2.3599,-2.5178,-0.9412,-0.9481,-0.9509,-0.9653,-0.9669,-0.9673,-0.9677,-0.9681,-0.9681,-0.9681,-0.9681,-0.9681,-0.9681,-0.9681,-0.9681,-0.9631,-0.9631,-0.9631,-0.9631,-0.9631,-0.9671,0.0,0.0,-0.9758,-0.9847,-1.0828,-1.1376,-1.1423,0.0,0.0,-1.1821,-1.1419,-1.3192,-1.6618,-1.6368,-1.7969,-2.0905,-2.078,-2.075,-2.075,-2.0799,-2.0799,-2.0799,-2.0799,-2.075,-2.075,-2.075,-2.075,-2.075,-2.075,-2.075,-2.016,-1.7062,-1.6083,-1.5827,-1.4782,-1.4476,-1.4257,-1.3228,-1.2191,-1.1379,-1.1379,-1.1379,-1.1356,-1.1306,-1.2079,-1.2561,-1.1614,-1.1379,-1.1079,-1.002,-0.9812,-0.9575,-0.881,0.0,0.0,0.0,0.0,0.0,0.0,-0.7521,-0.7458,-0.8426,-0.7166,0.0,0.0,0.0,0.0,0.0,0.0,0.0,-1.3698,-1.3566,0.0,-1.6701,-1.8852,-2.1027,-2.3209,-2.4779,-2.5518,-2.5518,-2.5518,-2.5518,-2.5518,-2.5518,-2.5518,-2.5518,-2.5518,-2.5518,-2.5518,-2.5518,-2.5518,-2.5518,-2.5469,-2.5469,-2.5469,-0.9591,-0.9636,-0.9644,-0.9677,-1.0382,-1.0932,-1.0932,-1.1652,-1.2155,-1.2155,-1.2155,-1.2155,-1.2155,-1.0711,-0.9681,0.0,-0.9681,-0.9681,0.0,-1.038,-1.0799,-1.0831,-1.1531,-1.2483,-1.3604,-1.397,-1.4715,-1.5858,0.0,-1.5694,-1.6476,-1.646,-1.7624,-1.9618,-1.9426,-1.9924,-2.0936,-2.2014,-2.2436,-2.2534,-2.3599,-2.3989,-2.3892,-2.2818,-2.2436,-2.228,-2.1192,-2.0799,-2.0799,-2.0799,-2.0799,-2.0603,-1.9626,-1.854,-1.76,-1.7246,-1.5913,-1.4439,-1.4125,-1.3234,-1.2431,-1.2431,-1.2438,-1.2469,-1.2405,-1.2624,-1.2763,-1.2376,-1.2379,-1.2079,-1.0978,-1.0781,-1.0455,-0.9344,-0.9371,0.0,-0.8538,0.0,0.0,0.0,-0.7313,-0.7223,0.0,-0.8913,0.0,0.0,0.0,0.0,0.0,0.0,0.0,0.0,-1.5678,0.0,-1.9012,-2.088,-2.2783,-2.4789,-2.5275,-2.5518,-2.5518,-2.5518,-2.5518,-2.5518,-2.5518,-2.5518,-2.5518,-2.5518,-2.5518,-2.5518,-2.5518,-2.5518,-2.5227,-2.3111,-2.2965,-2.3609,-1.0955,-1.0987,-1.1001,-1.1038,-1.1703,-1.2155,-1.2155,-1.283,-1.3289,-1.3289,-1.3289,-1.3289,-1.3289,-1.2022,-1.1135,-1.1051,-1.1047,-1.1047,-1.1047,-1.1616,-1.2246,-1.2838,-1.344,-1.4545,-1.6171,-1.6628,-1.7314,-1.8413,-1.836,-1.8748,-1.9424,-1.9536,-2.0437,-2.1825,-2.1747,-2.2035,-2.2622,-2.3658,-2.4048,-2.4146,-2.5129,-2.5518,-2.5372,-2.4448,-2.4048,-2.3951,-2.2916,-2.2573,-2.2573,-2.2573,-2.2573,-2.2573,-2.2573,-2.1486,-2.0061,-1.947,-1.8137,-1.685,-1.685,-1.6098,-1.5098,-1.4514,-1.4381,-1.4373,-1.4145,-1.4077,-1.3954,-1.3481,-1.3422,-1.3179,-1.2029,-1.1848,-1.144,-1.0312,-1.0171,-0.9907,-0.905,0.0,-0.8655,0.0,0.0,0.0,0.0,-1.0515,-1.0603,0.0,0.0,0.0,0.0,0.0,0.0,-1.5074,-1.694,-1.8949,-2.1084,-2.2162,-2.3649,-2.5518,-2.5518,-2.5518,-2.5518,-2.5518,-2.5518,-2.5518,-2.5518,-2.5518,-2.5518,-2.5518,-2.5518,-2.5518,-2.5518,-2.5518,-2.5178,-2.2622,-2.2329,-2.2828,-1.3098,-1.3221,-1.3305,-1.3472,-1.3654,-1.3763,-1.3763,-1.3882,-1.3945,-1.3945,-1.3951,-1.3957,-1.3957,-1.4106,-1.418,-1.3962,-1.3677,-1.3506,-1.3506,-1.3542,-1.4223,-1.5732,-1.5694,-1.641,-1.7989,-1.9018,-1.9552,-1.9634,-2.0643,-2.1143,-2.1143,-2.1143,-2.1937,-2.3365,-2.3365,-2.4156,-2.5518,-2.5518,-2.5529,-2.5539,-2.5539,-2.5539,-2.5539,-2.5539,-2.5529,-2.5518,-2.5518,-2.5518,-2.5518,-2.5518,-2.5518,-2.5518,-2.5518,-2.4546,-2.3023,-2.1446,-2.0897,-2.0799,-2.0799,-2.0044,-1.8953,-1.7437,-1.6991,-1.68,-1.6374,-1.6182,-1.5827,-1.4813,-1.4626,-1.4289,-1.3223,-1.2902,-1.2528,-1.1478,-1.1211,-1.0729,-0.9555,-1.0482,-1.095,0.0,0.0,0.0,-1.1788,-1.2074,-1.2362,0.0,0.0,0.0,0.0,0.0,-1.4112,-1.7288,-1.7592,-1.9291,-2.2554,-2.2791,-2.3776,-2.5518,-2.5518,-2.5518,-2.5518,-2.5518,-2.5518,-2.5518,-2.5518,-2.5518,-2.5518,-2.5518,-2.5518,-2.5518,-2.5518,-2.5518,-2.5324,-2.3756,-2.3121,-2.2779,-1.324,-1.4257,-1.5176,-1.5207,-1.7039,-1.8511,-1.8511,-1.9449,-2.0144,-2.0144,-2.0377,-2.0466,-2.0466,-2.0499,-2.0507,-2.0466,-1.7332,-1.5376,-1.5376,-1.7181,-1.8457,-1.8862,-1.9587,-2.0778,-2.2382,-2.2482,-2.2972,-2.4038,-2.4233,-2.4389,-2.4389,-2.4389,-2.4584,-2.4984,-2.4984,-2.5178,-2.5518,-2.5518,-2.5626,-2.5787,-2.5787,-2.5787,-2.5787,-2.5787,-2.5669,-2.5518,-2.5518,-2.5518,-2.5518,-2.5518,-2.5518,-2.5518,-2.5518,-2.5227,-2.4643,-2.3072,-2.1741,-2.0799,-2.0799,-2.0603,-2.0348,-1.9963,-1.892,-1.7989,-1.789,-1.6963,-1.5999,-1.5631,-1.5741,-1.5509,-1.4345,-1.427,-1.3751,-1.1761,-1.1428,-1.1159,-1.053,-1.0775,-1.1186,-1.1694,-1.314,-1.3721,-1.2787,-1.4706,-1.5221,0.0,0.0,-1.6274,-1.4854,-1.6849,-1.8079,-1.8147,-1.9336,-2.0425,-2.1244,-2.3644,-2.5061,-2.5518,-2.5518,-2.5518,-2.5518,-2.5518,-2.5518,-2.5518,-2.5518,-2.5518,-2.5518,-2.5518,-2.5518,-2.5518,-2.5518,-2.5518,-2.5324,-2.3756,-2.2427,-2.1143,-1.7149,-1.7866,-1.8553,-1.8637,-1.9914,-2.0968,-2.0968,-2.1656,-2.2187,-2.2275,-2.2434,-2.254,-2.269,-2.2778,-2.2769,-2.2769,-2.049,-1.9068,-1.9068,-2.031,-2.1346,-2.2126,-2.2659,-2.3593,-2.5122,-2.4999,-2.5233,-2.5792,-2.5792,-2.5792,-2.5792,-2.5792,-2.5792,-2.5792,-2.5792,-2.5792,-2.5792,-2.5792,-2.5916,-2.6035,-2.6035,-2.6035,-2.6035,-2.6035,-2.5959,-2.583,-2.5723,-2.5679,-2.5658,-2.555,-2.5518,-2.5518,-2.5518,-2.5518,-2.5324,-2.4497,-2.3648,-2.2965,-2.2965,-2.2965,-2.2769,-2.2084,-2.0701,-1.952,-1.952,-1.8837,-1.8221,-1.8177,-1.8259,-1.8175,-1.7654,-1.7593,-1.6875,-1.4593,-1.3992,-1.3292,-1.1888,-1.2062,-1.2765,-1.3969,-1.5511,-1.6467,-1.6481,-1.7949,-1.7989,-1.5787,-1.7762,0.0,-1.7359,-1.9078,-1.9867,-1.9313,-2.1005,-2.2231,-2.2965,-2.4633,-2.5518,-2.5518,-2.5518,-2.5518,-2.5518,-2.5518,-2.5518,-2.5518,-2.5518,-2.5518,-2.5518,-2.5518,-2.5518,-2.5518,-2.5518,-2.5518,-2.5324,-2.3756,-2.2182,-2.0701,-2.172,-2.1961,-2.2168,-2.2338,-2.2581,-2.2736,-2.2736,-2.2791,-2.2934,-2.3098,-2.318,-2.3334,-2.3516,-2.3681,-2.3727,-2.3727,-2.3626,-2.3419,-2.3125,-2.3191,-2.3817,-2.5189,-2.5114,-2.5604,-2.6745,-2.667,-2.6508,-2.6189,-2.6189,-2.6189,-2.6189,-2.6189,-2.6189,-2.6189,-2.6189,-2.6189,-2.6189,-2.6189,-2.62,-2.6232,-2.6232,-2.6232,-2.6232,-2.6232,-2.6222,-2.6157,-2.6002,-2.5944,-2.589,-2.5636,-2.555,-2.5518,-2.5518,-2.5518,-2.5518,-2.5518,-2.5518,-2.5518,-2.5518,-2.5518,-2.5178,-2.3853,-2.2329,-2.1143,-2.1143,-2.0947,-2.0799,-2.0799,-2.0826,-2.0905,-2.1198,-2.1127,-2.019,-1.7616,-1.6841,-1.5752,-1.3412,-1.3837,-1.4989,-1.6623,-1.8179,-1.9503,-2.0513,-2.0974,-2.0548,-1.8918,-2.0059,-2.0812,-2.0795,-2.1006,-2.1056,-2.0762,-2.2364,-2.3961,-2.5469,-2.5518,-2.5518,-2.5518,-2.5518,-2.5518,-2.5518,-2.5518,-2.5518,-2.5518,-2.5518,-2.5518,-2.5518,-2.5518,-2.5518,-2.5518,-2.5518,-2.5518,-2.5324,-2.4048,-2.2525,-2.1143,-2.1958,-2.3095,-2.4093,-2.4122,-2.5234,-2.6118,-2.6118,-2.6546,-2.6808,-2.6839,-2.7185,-2.7447,-2.7489,-2.7521,-2.7542,-2.7542,-2.751,-2.6804,-2.5113,-2.6172,-2.7008,-2.7218,-2.7238,-2.7311,-2.753,-2.709,-2.663,-2.6189,-2.6189,-2.6189,-2.6189,-2.6189,-2.6189,-2.6189,-2.6189,-2.6189,-2.6189,-2.6189,-2.6347,-2.653,-2.653,-2.653,-2.653,-2.653,-2.6401,-2.6179,-2.6146,-2.6046,-2.5912,-2.583,-2.5679,-2.5518,-2.5518,-2.5518,-2.5518,-2.5518,-2.5518,-2.5518,-2.5518,-2.5518,-2.5421,-2.5178,-2.4,-2.2828,-2.2828,-2.179,-2.0799,-2.0799,-2.0881,-2.1057,-2.13,-2.1449,-2.0376,-1.7017,-1.6711,-1.6451,-1.5089,-1.5544,-1.6943,-1.9468,-2.1329,-2.2026,-2.0853,-2.2116,-2.2336,-2.0697,-2.2033,-2.2259,-2.0716,-2.3236,-2.3957,-2.2382,-2.2897,-2.3961,-2.5469,-2.5518,-2.5518,-2.5518,-2.5518,-2.5518,-2.5518,-2.5518,-2.5518,-2.5518,-2.5518,-2.5518,-2.5518,-2.5518,-2.5518,-2.5518,-2.5518,-2.5518,-2.5469,-2.5227,-2.4146,-2.2828,-2.4657,-2.5285,-2.58,-2.58,-2.6426,-2.6899,-2.6899,-2.7133,-2.7316,-2.7497,-2.781,-2.808,-2.8156,-2.8285,-2.8414,-2.8414,-2.8414,-2.7983,-2.7071,-2.7664,-2.8091,-2.8091,-2.8091,-2.8026,-2.7844,-2.7499,-2.7155,-2.681,-2.681,-2.6745,-2.6566,-2.6566,-2.6566,-2.6566,-2.6566,-2.6566,-2.6566,-2.6566,-2.663,-2.6778,-2.6778,-2.6778,-2.6778,-2.6778,-2.6662,-2.6555,-2.6465,-2.6347,-2.6268,-2.5998,-2.5847,-2.5679,-2.5561,-2.5518,-2.5518,-2.5518,-2.5518,-2.5518,-2.5518,-2.5518,-2.5518,-2.5518,-2.4984,-2.4448,-2.4448,-2.3853,-2.3307,-2.3307,-2.3385,-2.3523,-2.3789,-2.3858,-2.2796,-1.9328,-1.9653,-1.9428,-1.7011,-1.775,-1.9302,-2.1373,-2.2567,-2.3219,-2.3307,-2.4032,-2.3906,-2.2282,-2.3661,-2.3806,-2.2099,-2.423,-2.512,-2.4225,-2.4383,-2.4789,-2.5469,-2.5518,-2.5518,-2.5518,-2.5518,-2.5518,-2.5518,-2.5518,-2.5518,-2.5518,-2.5518,-2.5518,-2.5518,-2.5518,-2.5518,-2.5518,-2.5518,-2.5518,-2.5518,-2.5518,-2.4535,-2.3316,-2.6899,-2.6899,-2.6899,-2.6899,-2.6899,-2.6899,-2.6899,-2.6942,-2.7111,-2.7348,-2.7585,-2.7822,-2.807,-2.8253,-2.8414,-2.8414,-2.8414,-2.8414,-2.8414,-2.8414,-2.8414,-2.8414,-2.8414,-2.8253,-2.8016,-2.7833,-2.7638,-2.7294,-2.7294,-2.7176,-2.6899,-2.6899,-2.6899,-2.6899,-2.6899,-2.6899,-2.6899,-2.6899,-2.6899,-2.6899,-2.6899,-2.6899,-2.6899,-2.6899,-2.6899,-2.6877,-2.6735,-2.6627,-2.653,-2.6153,-2.6009,-2.5879,-2.5658,-2.5561,-2.5518,-2.5518,-2.5518,-2.5518,-2.5518,-2.5518,-2.5518,-2.5518,-2.5518,-2.5518,-2.5518,-2.5518,-2.5518,-2.5518,-2.5518,-2.5593,-2.5869,-2.5912,-2.4879,-2.1763,-2.2278,-2.2078,-1.9202,-1.9996,-2.1553,-2.3177,-2.3594,-2.4205,-2.5372,-2.5518,-2.5032,-2.3805,-2.4838,-2.4984,-2.3805,-2.4838,-2.5518,-2.5518,-2.5518,-2.5518,-2.5518,-2.5518,-2.5518,-2.5518,-2.5518,-2.5518,-2.5518,-2.5518,-2.5518,-2.5518,-2.5518,-2.5518,-2.5518,-2.5518,-2.5518,-2.5518,-2.5518,-2.5518,-2.5518,-2.5518,-2.474,-2.3912,-2.6899,-2.6899,-2.6899,-2.6899,-2.6899,-2.6899,-2.6899,-2.7133,-2.7359,-2.7648,-2.7833,-2.808,-2.836,-2.8404,-2.8414,-2.8414,-2.8414,-2.8414,-2.8414,-2.8414,-2.8414,-2.8414,-2.8414,-2.8253,-2.8016,-2.7994,-2.7757,-2.7294,-2.7294,-2.7176,-2.6899,-2.6899,-2.6899,-2.6899,-2.6899,-2.6899,-2.6899,-2.6899,-2.6899,-2.6899,-2.6899,-2.6899,-2.6899,-2.6899,-2.6899,-2.6899,-2.6877,-2.6778,-2.6573,-2.6541,-2.6278,-2.5912,-2.5901,-2.569,-2.5518,-2.5518,-2.5518,-2.5518,-2.5518,-2.5518,-2.5518,-2.5518,-2.5518,-2.5518,-2.5518,-2.5518,-2.5518,-2.5518,-2.5518,-2.5593,-2.5869,-2.5912,-2.5108,-2.2656,-2.276,-2.2744,-2.1804,-2.217,-2.3234,-2.5072,-2.5302,-2.5372,-2.5469,-2.5518,-2.5469,-2.5324,-2.5421,-2.5469,-2.5324,-2.5421,-2.5518,-2.5518,-2.5518,-2.5518,-2.5518,-2.5518,-2.5518,-2.5518,-2.5518,-2.5518,-2.5518,-2.5518,-2.5518,-2.5518,-2.5518,-2.5518,-2.5518,-2.5518,-2.5518,-2.5518,-2.5518,-2.5518,-2.5518,-2.5518,-2.5421,-2.5372,-2.6899,-2.6899,-2.6899,-2.6899,-2.6899,-2.6899,-2.6899,-2.6974,-2.7111,-2.7198,-2.7424,-2.7661,-2.7951,-2.8059,-2.821,-2.8404,-2.8414,-2.8414,-2.8414,-2.8414,-2.8414,-2.8414,-2.8414,-2.8371,-2.8231,-2.8231,-2.7994,-2.7562,-2.7562,-2.7327,-2.6899,-2.6899,-2.6899,-2.6899,-2.6899,-2.6899,-2.6899,-2.6899,-2.6899,-2.6899,-2.6899,-2.6899,-2.6899,-2.6899,-2.6899,-2.6899,-2.6899,-2.6834,-2.6788,-2.6638,-2.6465,-2.6261,-2.6009,-2.5809,-2.5712,-2.5561,-2.5518,-2.5518,-2.5518,-2.5518,-2.5518,-2.5518,-2.5518,-2.5518,-2.5518,-2.5518,-2.5518,-2.5518,-2.5518,-2.555,-2.5636,-2.5647,-2.4964,-2.2906,-2.3714,-2.4087,-2.2653,-2.3592,-2.4676,-2.5399,-2.5518,-2.5518,-2.5518,-2.5518,-2.5518,-2.5518,-2.5518,-2.5518,-2.5518,-2.5518,-2.5518,-2.5518,-2.5518,-2.5518,-2.5518,-2.5518,-2.5518,-2.5518,-2.5518,-2.5518,-2.5518,-2.5518,-2.5518,-2.5518,-2.5518,-2.5518,-2.5518,-2.5518,-2.5518,-2.5518,-2.5518,-2.5518,-2.5518,-2.5518,-2.5518,-2.5518,-2.6899,-2.6899,-2.6899,-2.6899,-2.6899,-2.6899,-2.6899,-2.6899,-2.692,-2.6995,-2.7198,-2.7413,-2.7778,-2.7908,-2.8102,-2.8393,-2.8414,-2.8414,-2.8414,-2.8414,-2.8414,-2.8414,-2.8414,-2.8382,-2.8253,-2.8253,-2.8016,-2.7584,-2.7584,-2.7338,-2.6899,-2.6899,-2.6899,-2.6899,-2.6899,-2.6899,-2.6899,-2.6899,-2.6899,-2.6899,-2.6899,-2.6899,-2.6899,-2.6899,-2.6899,-2.6899,-2.6899,-2.6899,-2.6877,-2.6756,-2.6648,-2.653,-2.6196,-2.6041,-2.5869,-2.5593,-2.5518,-2.5518,-2.5518,-2.5518,-2.5518,-2.5518,-2.5518,-2.5518,-2.5518,-2.5518,-2.5518,-2.5518,-2.5518,-2.5518,-2.5518,-2.5518,-2.5072,-2.3776,-2.4666,-2.5061,-2.3776,-2.4676,-2.5518,-2.5518,-2.5518,-2.5518,-2.5518,-2.5518,-2.5518,-2.5518,-2.5518,-2.5518,-2.5518,-2.5518,-2.5518,-2.5518,-2.5518,-2.5518,-2.5518,-2.5518,-2.5518,-2.5518,-2.5518,-2.5518,-2.5518,-2.5518,-2.5518,-2.5518,-2.5518,-2.5518,-2.5518,-2.5518,-2.5518,-2.5518,-2.5518,-2.5518,-2.5518,-2.5518,-2.5518,-2.5518,-2.6899,-2.6899,-2.6899,-2.6899,-2.6899,-2.6899,-2.6899,-2.6899,-2.6985,-2.7262,-2.7294,-2.7478,-2.7951,-2.8016,-2.8102,-2.8393,-2.8414,-2.8414,-2.8414,-2.8414,-2.8414,-2.8414,-2.8414,-2.8253,-2.8016,-2.8016,-2.7779,-2.7294,-2.7294,-2.7176,-2.6899,-2.6899,-2.6899,-2.6899,-2.6899,-2.6899,-2.6899,-2.6899,-2.6899,-2.6899,-2.6899,-2.6899,-2.6899,-2.6899,-2.6899,-2.6899,-2.6899,-2.6899,-2.6899,-2.6899,-2.6788,-2.6584,-2.6584,-2.63,-2.5869,-2.5593,-2.5518,-2.5518,-2.5518,-2.5518,-2.5518,-2.5518,-2.5518,-2.5518,-2.5518,-2.5518,-2.5518,-2.5518,-2.5518,-2.5518,-2.5518,-2.5518,-2.5518,-2.5518,-2.5518,-2.5518,-2.5518,-2.5518,-2.5518,-2.5518,-2.5518,-2.5518,-2.5518,-2.5518,-2.5518,-2.5518,-2.5518,-2.5518,-2.5518,-2.5518,-2.5518,-2.5518,-2.5518,-2.5518,-2.5518,-2.5518,-2.5518,-2.5518,-2.5518,-2.5518,-2.5518,-2.5518,-2.5518,-2.5518,-2.5518,-2.5518,-2.5518,-2.5518,-2.5518,-2.5518,-2.5518,-2.5518,-2.5518,-2.5518,-2.5518,-2.5518,-2.6899,-2.6899,-2.6899,-2.6899,-2.6899,-2.6899,-2.6899,-2.6899,-2.692,-2.6995,-2.7198,-2.7348,-2.7499,-2.7811,-2.8037,-2.8113,-2.8264,-2.8414,-2.8414,-2.821,-2.8124,-2.8124,-2.8124,-2.8091,-2.8016,-2.7844,-2.7607,-2.7294,-2.7294,-2.7176,-2.6899,-2.6899,-2.6899,-2.6899,-2.6899,-2.6899,-2.6899,-2.6899,-2.6899,-2.6899,-2.6899,-2.6899,-2.6899,-2.6899,-2.6899,-2.6899,-2.6899,-2.6899,-2.6899,-2.6899,-2.6856,-2.6727,-2.6444,-2.6121,-2.5869,-2.5593,-2.5518,-2.5518,-2.5518,-2.5518,-2.5518,-2.5518,-2.5518,-2.5518,-2.5518,-2.5518,-2.5518,-2.5518,-2.5518,-2.5518,-2.5518,-2.5518,-2.5518,-2.5518,-2.5518,-2.5518,-2.5518,-2.5518,-2.5518,-2.5518,-2.5518,-2.5518,-2.5518,-2.5518,-2.5518,-2.5518,-2.5518,-2.5518,-2.5518,-2.5518,-2.5518,-2.5518,-2.5518,-2.5518,-2.5518,-2.5518,-2.5518,-2.5518,-2.5518,-2.5518,-2.5518,-2.5518,-2.5518,-2.5518,-2.5518,-2.5518,-2.5518,-2.5518,-2.5518,-2.5518,-2.5518,-2.5518,-2.5518,-2.5518,-2.5518,-2.5518,-2.6899,-2.6974,-2.7006,-2.692,-2.6974,-2.7038,-2.7038,-2.7038,-2.7122,-2.7219,-2.7348,-2.7434,-2.7434,-2.7693,-2.7865,-2.7865,-2.8091,-2.822,-2.822,-2.8177,-2.807,-2.7876,-2.7865,-2.7822,-2.7736,-2.7585,-2.7391,-2.7165,-2.7165,-2.7038,-2.6899,-2.6899,-2.6899,-2.6899,-2.6899,-2.6899,-2.6899,-2.6899,-2.6899,-2.6899,-2.6899,-2.6899,-2.6899,-2.6899,-2.6899,-2.6899,-2.6899,-2.6899,-2.6899,-2.6899,-2.6899,-2.6834,-2.6498,-2.6207,-2.597,-2.5723,-2.5593,-2.5518,-2.5518,-2.5518,-2.5518,-2.5518,-2.5518,-2.5518,-2.5518,-2.5518,-2.5518,-2.5518,-2.5518,-2.5518,-2.5518,-2.5518,-2.5518,-2.5518,-2.5518,-2.5518,-2.5518,-2.5518,-2.5518,-2.5518,-2.5518,-2.5518,-2.5518,-2.5518,-2.5518,-2.5518,-2.5518,-2.5518,-2.5518,-2.5518,-2.5518,-2.5518,-2.5518,-2.5518,-2.5518,-2.5518,-2.5518,-2.5518,-2.5518,-2.5518,-2.5518,-2.5518,-2.5518,-2.5518,-2.5518,-2.5518,-2.5518,-2.5518,-2.5572,-2.5647,-2.555,-2.5572,-2.5647,-2.555,-2.5518,-2.5518,-2.692,-2.7155,-2.7241,-2.6995,-2.7187,-2.7327,-2.7327,-2.7327,-2.7402,-2.767,-2.7724,-2.7724,-2.7702,-2.7735,-2.7746,-2.7702,-2.7876,-2.8027,-2.8037,-2.8199,-2.8155,-2.7724,-2.7659,-2.7541,-2.7273,-2.7262,-2.7165,-2.6899,-2.6899,-2.6899,-2.6899,-2.6899,-2.6899,-2.6899,-2.6899,-2.6899,-2.6899,-2.6899,-2.6899,-2.6899,-2.6899,-2.6899,-2.6899,-2.6899,-2.6899,-2.6899,-2.6899,-2.6899,-2.6899,-2.6899,-2.6899,-2.6856,-2.6659,-2.6422,-2.6136,-2.5938,-2.5701,-2.5518,-2.5518,-2.5518,-2.5518,-2.5518,-2.5518,-2.5518,-2.5518,-2.5518,-2.5518,-2.5518,-2.5518,-2.5518,-2.5518,-2.5518,-2.5518,-2.5518,-2.5518,-2.5518,-2.5518,-2.5518,-2.5518,-2.5518,-2.5518,-2.5518,-2.5518,-2.5518,-2.5518,-2.5518,-2.5518,-2.5518,-2.5518,-2.5518,-2.5518,-2.5518,-2.5518,-2.5518,-2.5518,-2.5518,-2.5518,-2.5518,-2.5518,-2.5518,-2.5518,-2.5518,-2.5518,-2.5518,-2.5518,-2.5518,-2.5518,-2.5518,-2.5647,-2.5869,-2.5604,-2.5647,-2.5809,-2.5593,-2.5518,-2.5518,-2.7187,-2.7262,-2.7338,-2.753,-2.7584,-2.7627,-2.7627,-2.7627,-2.7638,-2.7692,-2.7811,-2.7865,-2.7724,-2.8037,-2.8112,-2.7735,-2.7876,-2.8091,-2.8274,-2.8037,-2.781,-2.7702,-2.7294,-2.7028,-2.6974,-2.6974,-2.6952,-2.6899,-2.6899,-2.6899,-2.6899,-2.6899,-2.6899,-2.6899,-2.6899,-2.6899,-2.6899,-2.6899,-2.6899,-2.6899,-2.6899,-2.6899,-2.6899,-2.6899,-2.6899,-2.6899,-2.6899,-2.6899,-2.6899,-2.6899,-2.6899,-2.6856,-2.6659,-2.6422,-2.6136,-2.5938,-2.5701,-2.5518,-2.5518,-2.5518,-2.5518,-2.5518,-2.5518,-2.5518,-2.5518,-2.5518,-2.5518,-2.5518,-2.5518,-2.5518,-2.5518,-2.5518,-2.5518,-2.5518,-2.5518,-2.5518,-2.5518,-2.5518,-2.5518,-2.5518,-2.5518,-2.5518,-2.5518,-2.5518,-2.5518,-2.5518,-2.5518,-2.5518,-2.5518,-2.5518,-2.5518,-2.5518,-2.5518,-2.5518,-2.5518,-2.5518,-2.5518,-2.5518,-2.5518,-2.5518,-2.5518,-2.5518,-2.5518,-2.5518,-2.5518,-2.5518,-2.5518,-2.5518,-2.555,-2.5593,-2.5539,-2.555,-2.5593,-2.5539,-2.5518,-2.5518,-2.706,-2.7316,-2.7467,-2.753,-2.7671,-2.7822,-2.7822,-2.7822,-2.7918,-2.8026,-2.8155,-2.8091,-2.7844,-2.8048,-2.8048,-2.7735,-2.7876,-2.7973,-2.7865,-2.7833,-2.7671,-2.7327,-2.7187,-2.7017,-2.6899,-2.6899,-2.6899,-2.6899,-2.6899,-2.6899,-2.6899,-2.6899,-2.6899,-2.6899,-2.6899,-2.6899,-2.6899,-2.6899,-2.6899,-2.6899,-2.6899,-2.6899,-2.6899,-2.6899,-2.6899,-2.6899,-2.6899,-2.6899,-2.6899,-2.6899,-2.6899,-2.6877,-2.6799,-2.6595,-2.6358,-2.611,-2.5873,-2.5658,-2.555,-2.5518,-2.5518,-2.5518,-2.5518,-2.5518,-2.5518,-2.5518,-2.5518,-2.5518,-2.5518,-2.5518,-2.5518,-2.5518,-2.5518,-2.5518,-2.5518,-2.5518,-2.5518,-2.5518,-2.5518,-2.5518,-2.5518,-2.5518,-2.5518,-2.5518,-2.5518,-2.5518,-2.5518,-2.5518,-2.5518,-2.5518,-2.5518,-2.5518,-2.5518,-2.5518,-2.5518,-2.5518,-2.5518,-2.5518,-2.5518,-2.5518,-2.5518,-2.5518,-2.5518,-2.5518,-2.5518,-2.5518,-2.5518,-2.5518,-2.5583,-2.5669,-2.5561,-2.5583,-2.5669,-2.5561,-2.5518,-2.5518,-2.7006,-2.7381,-2.7659,-2.7499,-2.7811,-2.807,-2.807,-2.823,-2.8455,-2.8651,-2.8684,-2.8608,-2.8358,-2.8304,-2.8259,-2.8096,-2.8194,-2.8129,-2.7813,-2.7841,-2.765,-2.7038,-2.7176,-2.7144,-2.6899,-2.6899,-2.6899,-2.6899,-2.6899,-2.6899,-2.6899,-2.6899,-2.6899,-2.6899,-2.6899,-2.6899,-2.6899,-2.6899,-2.6899,-2.6899,-2.6899,-2.6899,-2.6899,-2.6899,-2.6899,-2.6899,-2.6899,-2.6899,-2.6899,-2.6899,-2.6899,-2.6899,-2.6899,-2.6778,-2.6541,-2.6347,-2.6089,-2.5869,-2.5636,-2.555,-2.5518,-2.5518,-2.5518,-2.5518,-2.5518,-2.5518,-2.5518,-2.5518,-2.5518,-2.5518,-2.5518,-2.5518,-2.5518,-2.5518,-2.5518,-2.5518,-2.5518,-2.5518,-2.5518,-2.5518,-2.5518,-2.5518,-2.5518,-2.5518,-2.5518,-2.5518,-2.5518,-2.5518,-2.5518,-2.5518,-2.5518,-2.5518,-2.5518,-2.5518,-2.5518,-2.5518,-2.5518,-2.5518,-2.5518,-2.5518,-2.5518,-2.5518,-2.5518,-2.5518,-2.5518,-2.5518,-2.5518,-2.5518,-2.5636,-2.5787,-2.5593,-2.5636,-2.5787,-2.5593,-2.5518,-2.5529,-2.7562,-2.7659,-2.7821,-2.8209,-2.8328,-2.8371,-2.8371,-2.9156,-2.9811,-2.9898,-2.9845,-2.9833,-2.9799,-2.9607,-2.955,-2.9785,-2.9444,-2.9376,-2.9728,-2.8272,-2.7445,-2.7605,-2.7198,-2.6931,-2.6899,-2.6899,-2.6899,-2.6899,-2.6899,-2.6899,-2.6899,-2.6899,-2.6899,-2.6899,-2.6899,-2.6899,-2.6899,-2.6899,-2.6899,-2.6899,-2.6899,-2.6899,-2.6899,-2.6899,-2.6899,-2.6899,-2.6899,-2.6899,-2.6899,-2.6899,-2.6899,-2.6899,-2.6899,-2.6778,-2.6573,-2.6541,-2.6218,-2.5912,-2.5879,-2.5669,-2.5518,-2.5518,-2.5518,-2.5518,-2.5518,-2.5518,-2.5518,-2.5518,-2.5518,-2.5518,-2.5518,-2.5518,-2.5518,-2.5518,-2.5518,-2.5518,-2.5518,-2.5518,-2.5518,-2.5518,-2.5518,-2.5518,-2.5518,-2.5518,-2.5518,-2.5518,-2.5518,-2.5518,-2.5518,-2.5518,-2.5518,-2.5518,-2.5518,-2.5518,-2.5518,-2.5518,-2.5518,-2.5518,-2.5518,-2.5518,-2.5518,-2.5518,-2.5518,-2.5518,-2.5518,-2.5518,-2.5518,-2.5518,-2.5539,-2.5561,-2.5529,-2.5539,-2.5561,-2.5529,-2.5518,-2.555,-2.7681,-2.781,-2.8131,-2.8967,-2.923,-2.9588,-3.0178,-3.0702,-3.1023,-3.1023,-3.1023,-3.0809,-3.0167,-3.001,-3.0155,-3.0758,-3.0071,-2.961,-2.9701,-2.8222,-2.7348,-2.7445,-2.7133,-2.6899,-2.6899,-2.6899,-2.6899,-2.6899,-2.6899,-2.6899,-2.6899,-2.6899,-2.6899,-2.6899,-2.6899,-2.6899,-2.6899,-2.6899,-2.6899,-2.6899,-2.6899,-2.6899,-2.6899,-2.6899,-2.6899,-2.6899,-2.6899,-2.6899,-2.6899,-2.6899,-2.6899,-2.6899,-2.6899,-2.6823,-2.6756,-2.6627,-2.6433,-2.6207,-2.5987,-2.5787,-2.5679,-2.555,-2.5518,-2.5518,-2.5518,-2.5518,-2.5518,-2.5518,-2.5518,-2.5518,-2.5518,-2.5518,-2.5518,-2.5518,-2.5518,-2.5518,-2.5518,-2.5518,-2.5518,-2.5518,-2.5636,-2.5658,-2.5529,-2.5518,-2.5518,-2.5518,-2.5518,-2.5518,-2.5518,-2.5518,-2.5518,-2.5518,-2.5518,-2.5518,-2.5518,-2.5518,-2.5518,-2.5518,-2.5518,-2.5518,-2.5518,-2.5518,-2.5518,-2.5518,-2.5518,-2.5518,-2.5518,-2.5518,-2.5518,-2.5518,-2.5518,-2.5518,-2.5518,-2.5518,-2.5518,-2.5529]},{"header":{"parameterUnit":"m.s-1","parameterCategory":1,"la1":30.6,"la2":28.766,"lo1":-90.7593,"lo2":-88.6598,"dx":0.0162,"dy":0.0183,"nx":116,"ny":114,"refTime":"2022-12-18T06:00:00:Z","depth":0,"parameterNumber":3,"parameterNumberName":"V-component_of_WINDS"},"data":[0.0,0.0,0.0,0.0,0.0,0.0,0.0,0.0,0.0,0.0,0.0,0.0,0.0,0.0,0.0,0.0,0.0,0.0,0.0,0.0,0.0,0.0,0.0,0.0,0.0,0.0,0.0,0.0,0.0,0.0,0.0,0.0,0.0,0.0,0.0,0.0,0.0,0.0,0.0,0.0,0.0,0.0,0.0,0.0,0.0,0.0,0.0,0.0,0.0,0.0,0.0,0.0,0.0,0.0,0.0,0.0,0.0,0.0,0.0,0.0,0.0,0.0,0.0,0.0,0.0,0.0,0.0,0.0,0.0,0.0,0.0,0.0,0.0,0.0,0.0,0.0,0.0,0.0,0.0,0.0,0.0,0.0,0.0,0.0,0.0,0.0,0.0,0.0,0.0,0.0,0.0,0.0,0.0,0.0,0.0,0.0,0.0,0.0,0.0,0.0,0.0,0.0,0.0,0.0,0.0,0.0,0.0,0.0,0.0,0.0,0.0,0.0,0.0,0.0,0.0,0.0,0.0,0.0,0.0,0.0,0.0,0.0,0.0,0.0,0.0,0.0,0.0,0.0,0.0,0.0,0.0,0.0,0.0,0.0,0.0,0.0,0.0,0.0,0.0,0.0,0.0,0.0,0.0,0.0,0.0,0.0,0.0,0.0,0.0,0.0,0.0,0.0,0.0,0.0,0.0,0.0,0.0,0.0,0.0,0.0,0.0,0.0,0.0,0.0,0.0,0.0,0.0,0.0,0.0,0.0,0.0,0.0,0.0,0.0,0.0,0.0,0.0,0.0,0.0,0.0,0.0,0.0,0.0,0.0,0.0,0.0,0.0,0.0,0.0,0.0,0.0,0.0,0.0,0.0,0.0,0.0,0.0,0.0,0.0,0.0,0.0,0.0,0.0,0.0,0.0,0.0,0.0,0.0,0.0,0.0,0.0,0.0,0.0,0.0,0.0,0.0,0.0,0.0,0.0,0.0,0.0,0.0,0.0,0.0,0.0,0.0,0.0,0.0,0.0,0.0,0.0,0.0,0.0,0.0,0.0,0.0,0.0,0.0,0.0,0.0,0.0,0.0,0.0,0.0,0.0,0.0,0.0,0.0,0.0,0.0,0.0,0.0,0.0,0.0,0.0,0.0,0.0,0.0,0.0,0.0,0.0,0.0,0.0,0.0,0.0,0.0,0.0,0.0,0.0,0.0,0.0,0.0,0.0,0.0,0.0,0.0,0.0,0.0,0.0,0.0,0.0,0.0,0.0,0.0,0.0,0.0,0.0,0.0,0.0,0.0,0.0,0.0,0.0,0.0,0.0,0.0,0.0,0.0,0.0,0.0,0.0,0.0,0.0,0.0,0.0,0.0,0.0,0.0,0.0,0.0,0.0,0.0,0.0,0.0,0.0,0.0,0.0,0.0,0.0,0.0,0.0,0.0,0.0,0.0,0.0,0.0,0.0,0.0,0.0,0.0,0.0,0.0,0.0,0.0,0.0,0.0,0.0,0.0,0.0,0.0,0.0,0.0,0.0,0.0,0.0,0.0,0.0,0.0,0.0,0.0,0.0,0.0,0.0,0.0,0.0,0.0,0.0,0.0,0.0,0.0,0.0,0.0,0.0,0.0,0.0,0.0,0.0,0.0,0.0,0.0,0.0,0.0,0.0,0.0,0.0,0.0,0.0,0.0,0.0,0.0,0.0,0.0,0.0,0.0,0.0,0.0,0.0,0.0,0.0,0.0,0.0,0.0,0.0,0.0,0.0,0.0,0.0,0.0,0.0,0.0,0.0,0.0,0.0,0.0,0.0,0.0,0.0,0.0,0.0,0.0,0.0,0.0,0.0,0.0,0.0,0.0,0.0,0.0,0.0,0.0,0.0,0.0,0.0,0.0,0.0,0.0,0.0,0.0,0.0,0.0,0.0,0.0,0.0,0.0,0.0,0.0,0.0,0.0,0.0,0.0,0.0,0.0,0.0,0.0,0.0,0.0,0.0,0.0,0.0,0.0,0.0,0.0,0.0,0.0,0.0,0.0,0.0,0.0,0.0,0.0,0.0,0.0,0.0,0.0,0.0,0.0,0.0,0.0,0.0,0.0,0.0,0.0,0.0,0.0,0.0,0.0,0.0,0.0,0.0,0.0,0.0,0.0,0.0,0.0,0.0,0.0,0.0,0.0,0.0,0.0,0.0,0.0,0.0,0.0,0.0,0.0,0.0,0.0,0.0,0.0,0.0,0.0,0.0,0.0,0.0,0.0,0.0,0.0,0.0,0.0,0.0,0.0,0.0,0.0,0.0,0.0,0.0,0.0,0.0,0.0,0.0,0.0,0.0,0.0,0.0,0.0,0.0,0.0,0.0,0.0,0.0,0.0,0.0,0.0,0.0,0.0,0.0,0.0,0.0,0.0,0.0,0.0,0.0,0.0,0.0,0.0,0.0,0.0,0.0,0.0,0.0,0.0,0.0,0.0,0.0,0.0,0.0,0.0,0.0,0.0,0.0,0.0,0.0,0.0,0.0,0.0,0.0,0.0,0.0,0.0,0.0,0.0,0.0,0.0,0.0,0.0,0.0,0.0,0.0,0.0,0.0,0.0,0.0,0.0,0.0,0.0,0.0,0.0,0.0,0.0,0.0,0.0,0.0,0.0,0.0,0.0,0.0,0.0,0.0,0.0,0.0,0.0,0.0,0.0,0.0,0.0,0.0,0.0,0.0,0.0,0.0,0.0,0.0,0.0,0.0,0.0,0.0,0.0,0.0,0.0,0.0,0.0,0.0,0.0,0.0,0.0,0.0,0.0,0.0,0.0,0.0,0.0,0.0,0.0,0.0,0.0,0.0,0.0,0.0,0.0,0.0,0.0,0.0,0.0,0.0,0.0,0.0,0.0,0.0,0.0,0.0,0.0,0.0,0.0,0.0,0.0,0.0,0.0,0.0,0.0,0.0,0.0,0.0,0.0,0.0,0.0,0.0,0.0,0.0,0.0,0.0,0.0,0.0,0.0,0.0,0.0,0.0,0.0,0.0,0.0,0.0,0.0,0.0,0.0,0.0,0.0,0.0,0.0,0.0,0.0,0.0,0.0,0.0,0.0,0.0,0.0,0.0,0.0,0.0,0.0,0.0,0.0,0.0,0.0,0.0,0.0,0.0,0.0,0.0,0.0,0.0,0.0,0.0,0.0,0.0,0.0,0.0,0.0,0.0,0.0,0.0,0.0,0.0,0.0,0.0,0.0,0.0,0.0,0.0,0.0,0.0,0.0,0.0,0.0,0.0,0.0,0.0,0.0,0.0,0.0,0.0,0.0,0.0,0.0,0.0,0.0,0.0,0.0,0.0,0.0,0.0,0.0,0.0,0.0,0.0,0.0,0.0,0.0,0.0,0.0,0.0,0.0,0.0,0.0,0.0,0.0,0.0,0.0,0.0,0.0,0.0,0.0,0.0,0.0,0.0,0.0,0.0,0.0,0.0,0.0,0.0,0.0,0.0,0.0,0.0,0.0,0.0,0.0,0.0,0.0,0.0,0.0,0.0,0.0,0.0,0.0,0.0,0.0,0.0,0.0,0.0,0.0,0.0,0.0,0.0,0.0,0.0,0.0,0.0,0.0,0.0,0.0,0.0,0.0,0.0,0.0,0.0,0.0,0.0,0.0,0.0,0.0,0.0,0.0,0.0,0.0,0.0,0.0,0.0,0.0,0.0,0.0,0.0,0.0,0.0,0.0,0.0,0.0,0.0,0.0,0.0,0.0,0.0,0.0,0.0,0.0,0.0,0.0,0.0,0.0,0.0,0.0,0.0,0.0,0.0,0.0,0.0,0.0,0.0,0.0,0.0,0.0,0.0,0.0,0.0,0.0,0.0,0.0,0.0,0.0,0.0,0.0,0.0,0.0,0.0,0.0,0.0,0.0,0.0,0.0,0.0,0.0,0.0,0.0,0.0,0.0,0.0,0.0,0.0,0.0,0.0,0.0,0.0,0.0,0.0,0.0,0.0,0.0,0.0,0.0,0.0,0.0,0.0,0.0,0.0,0.0,0.0,0.0,0.0,0.0,0.0,0.0,0.0,0.0,0.0,0.0,0.0,0.0,0.0,0.0,0.0,0.0,0.0,0.0,0.0,0.0,0.0,0.0,0.0,0.0,0.0,0.0,0.0,0.0,0.0,0.0,0.0,0.0,0.0,0.0,0.0,0.0,0.0,0.0,0.0,0.0,0.0,0.0,0.0,0.0,0.0,0.0,0.0,0.0,0.0,0.0,0.0,0.0,0.0,0.0,0.0,0.0,0.0,0.0,0.0,0.0,0.0,0.0,0.0,0.0,0.0,0.0,0.0,0.0,0.0,0.0,0.0,0.0,0.0,0.0,0.0,0.0,0.0,0.0,0.0,0.0,0.0,0.0,0.0,0.0,0.0,0.0,0.0,0.0,0.0,0.0,0.0,0.0,0.0,0.0,0.0,0.0,0.0,0.0,0.0,0.0,0.0,0.0,0.0,0.0,0.0,0.0,0.0,0.0,0.0,0.0,0.0,0.0,0.0,0.0,0.0,0.0,0.0,0.0,0.0,0.0,0.0,0.0,0.0,0.0,0.0,0.0,0.0,0.0,0.0,0.0,0.0,0.0,0.0,0.0,0.0,0.0,0.0,0.0,0.0,0.0,0.0,0.0,0.0,0.0,0.0,0.0,0.0,0.0,0.0,0.0,0.0,0.0,0.0,0.0,0.0,0.0,0.0,0.0,0.0,0.0,0.0,0.0,0.0,0.0,0.0,0.0,0.0,0.0,0.0,0.0,0.0,0.0,0.0,0.0,0.0,0.0,0.0,0.0,0.0,0.0,0.0,0.0,0.0,0.0,0.0,0.0,0.0,0.0,0.0,0.0,0.0,0.0,0.0,0.0,0.0,0.0,0.0,0.0,0.0,0.0,0.0,0.0,0.0,0.0,0.0,0.0,0.0,0.0,0.0,0.0,0.0,0.0,0.0,0.0,0.0,0.0,0.0,0.0,0.0,0.0,0.0,0.0,0.0,0.0,0.0,0.0,0.0,0.0,0.0,0.0,0.0,0.0,0.0,0.0,0.0,0.0,0.0,0.0,0.0,0.0,0.0,0.0,0.0,0.0,0.0,0.0,0.0,0.0,0.0,0.0,0.0,0.0,0.0,0.0,0.0,0.0,0.0,0.0,0.0,0.0,0.0,0.0,0.0,0.0,0.0,0.0,0.0,0.0,0.0,0.0,0.0,0.0,0.0,0.0,0.0,0.0,0.0,0.0,0.0,0.0,0.0,0.0,0.0,0.0,0.0,0.0,0.0,0.0,0.0,0.0,0.0,0.0,0.0,0.0,0.0,0.0,0.0,0.0,0.0,0.0,0.0,0.0,0.0,0.0,0.0,0.0,0.0,0.0,0.0,0.0,0.0,0.0,0.0,0.0,0.0,0.0,0.0,0.0,0.0,0.0,0.0,0.0,0.0,0.0,0.0,0.0,0.0,0.0,0.0,0.0,0.0,0.0,0.0,0.0,0.0,0.0,0.0,0.0,0.0,0.0,0.0,0.0,0.0,0.0,0.0,0.0,0.0,0.0,0.0,0.0,0.0,0.0,0.0,0.0,0.0,0.0,0.0,0.0,0.0,0.0,0.0,0.0,0.0,0.0,0.0,0.0,0.0,0.0,0.0,0.0,0.0,0.0,0.0,0.0,0.0,0.0,0.0,0.0,0.0,0.0,0.0,0.0,0.0,0.0,0.0,0.0,0.0,0.0,0.0,0.0,0.0,0.0,0.0,0.0,0.0,0.0,0.0,0.0,0.0,0.0,0.0,0.0,0.0,0.0,0.0,0.0,0.0,0.0,0.0,0.0,0.0,0.0,0.0,0.0,0.0,0.0,0.0,0.0,0.0,0.0,0.0,0.0,0.0,0.0,0.0,0.0,0.0,0.0,0.0,0.0,0.0,0.0,0.0,0.0,0.0,0.0,0.0,0.0,0.0,0.0,0.0,0.0,0.0,0.0,0.0,0.0,0.0,0.0,0.0,0.0,0.0,0.0,0.0,0.0,0.0,0.0,0.0,0.0,0.0,0.0,0.0,0.0,0.0,0.0,0.0,0.0,0.0,0.0,0.0,0.0,0.0,0.0,0.0,0.0,4.0878,0.0,0.0,0.0,0.0,0.0,0.0,0.0,0.0,0.0,0.0,0.0,0.0,0.0,0.0,0.0,0.0,0.0,0.0,0.0,0.0,0.0,0.0,0.0,0.0,2.4605,2.4153,2.2981,2.2874,0.0,0.0,0.0,0.0,0.0,0.0,0.0,0.0,0.0,2.3766,2.5693,2.7699,3.0599,3.4352,3.2686,3.0853,2.8866,0.0,0.0,0.0,0.0,0.0,0.0,0.0,0.0,0.0,0.0,0.0,0.0,0.0,0.0,0.0,0.0,0.0,0.0,0.0,0.0,0.0,0.0,0.0,0.0,0.0,0.0,0.0,0.0,0.0,0.0,0.0,0.0,0.0,0.0,0.0,0.0,0.0,0.0,0.0,0.0,0.0,0.0,0.0,0.0,0.0,0.0,0.0,0.0,0.0,0.0,0.0,0.0,0.0,0.0,0.0,0.0,0.0,0.0,0.0,0.0,0.0,0.0,0.0,0.0,0.0,0.0,0.0,0.0,0.0,0.0,0.0,4.2045,0.0,0.0,0.0,0.0,0.0,0.0,0.0,0.0,0.0,0.0,0.0,0.0,0.0,0.0,0.0,0.0,0.0,0.0,0.0,0.0,0.0,2.5041,2.4993,2.5614,2.5616,2.4611,2.4254,2.4112,2.4112,2.3374,0.0,0.0,0.0,0.0,2.5087,2.5229,2.6972,3.0396,3.3914,3.798,4.2457,4.1846,3.9429,3.548,3.1818,0.0,0.0,0.0,0.0,0.0,0.0,0.0,0.0,0.0,0.0,0.0,0.0,0.0,0.0,0.0,0.0,0.0,0.0,0.0,0.0,0.0,0.0,0.0,0.0,0.0,0.0,0.0,0.0,0.0,0.0,0.0,0.0,0.0,0.0,0.0,0.0,0.0,0.0,0.0,0.0,0.0,0.0,0.0,0.0,0.0,0.0,0.0,0.0,0.0,0.0,0.0,0.0,0.0,0.0,0.0,0.0,0.0,0.0,0.0,0.0,0.0,0.0,0.0,5.1352,5.23,5.3129,5.2232,5.257,5.3636,4.9601,4.8715,4.9697,4.4174,0.0,0.0,0.0,0.0,0.0,0.0,0.0,0.0,0.0,0.0,0.0,0.0,0.0,0.0,0.0,0.0,0.0,0.0,0.0,2.4932,2.6037,2.6572,2.7335,2.8506,2.7335,2.6556,2.6556,2.58,0.0,0.0,0.0,0.0,2.6663,2.7364,2.9925,3.4428,4.2625,4.8012,5.0717,4.9468,4.8937,4.8671,4.1406,3.7266,3.561,0.0,0.0,0.0,0.0,0.0,0.0,0.0,0.0,0.0,0.0,0.0,0.0,0.0,0.0,0.0,0.0,0.0,0.0,0.0,0.0,0.0,0.0,0.0,0.0,0.0,0.0,0.0,0.0,0.0,0.0,0.0,0.0,0.0,0.0,0.0,0.0,0.0,0.0,0.0,0.0,0.0,4.1092,4.3416,0.0,0.0,0.0,0.0,0.0,0.0,0.0,0.0,0.0,0.0,0.0,0.0,0.0,4.8665,5.0457,5.2536,5.4296,5.5818,5.7814,5.9539,6.0858,5.9438,5.9268,6.0032,5.8591,0.0,5.1878,5.1,0.0,0.0,0.0,0.0,0.0,0.0,0.0,0.0,0.0,0.0,0.0,0.0,0.0,0.0,0.0,0.0,0.0,0.0,0.0,0.0,0.0,2.9599,3.1235,3.2805,3.2871,3.2223,3.069,2.942,0.0,0.0,0.0,2.7542,2.8334,3.1724,3.7327,4.5153,5.06,5.4501,5.6838,5.5641,5.5041,5.4815,5.0587,4.5765,4.0694,3.8408,0.0,0.0,0.0,0.0,0.0,0.0,0.0,0.0,0.0,0.0,0.0,0.0,0.0,0.0,0.0,0.0,0.0,0.0,0.0,0.0,0.0,0.0,0.0,0.0,0.0,0.0,0.0,0.0,0.0,0.0,0.0,0.0,0.0,0.0,0.0,0.0,0.0,0.0,0.0,4.0191,4.262,4.4933,4.2909,4.0878,0.0,0.0,0.0,0.0,0.0,0.0,0.0,0.0,0.0,5.2029,5.257,5.4076,5.6867,5.8693,6.0148,6.1197,6.3024,6.4005,6.4228,6.3893,6.3708,6.3645,6.3565,6.2053,5.934,5.5929,5.3141,5.0641,0.0,0.0,0.0,0.0,4.6405,4.7079,0.0,0.0,0.0,0.0,0.0,0.0,0.0,0.0,0.0,0.0,0.0,0.0,3.1495,3.4305,3.6495,3.7717,3.8223,3.7443,3.5069,3.3028,3.0907,2.8613,2.8905,2.9469,3.0297,3.7041,4.5224,5.4683,5.7433,6.0012,6.2344,6.1049,6.0065,5.9254,5.7596,5.2814,4.5948,4.3658,3.9858,3.5207,0.0,0.0,0.0,0.0,0.0,0.0,0.0,0.0,0.0,0.0,0.0,0.0,0.0,0.0,0.0,0.0,0.0,0.0,0.0,0.0,0.0,0.0,0.0,0.0,0.0,0.0,0.0,0.0,0.0,0.0,0.0,0.0,0.0,0.0,0.0,0.0,0.0,4.31,4.495,4.7139,4.6244,4.4722,0.0,0.0,0.0,0.0,0.0,0.0,5.0626,5.1589,5.3534,5.6725,5.7727,5.9636,6.2578,6.4079,6.5102,6.5682,6.6753,6.7093,6.6759,6.6622,6.6355,6.6048,6.6461,6.6333,6.5406,6.036,5.7717,5.6599,5.3937,5.2155,5.1194,5.2334,5.2899,5.3411,0.0,0.0,0.0,0.0,0.0,0.0,0.0,0.0,0.0,0.0,0.0,3.482,3.7907,4.1089,4.3166,4.3556,4.2235,4.0702,3.9097,3.6143,3.3873,3.2652,3.191,3.191,3.2704,4.3251,5.2266,5.9544,6.2669,6.5399,6.7681,6.583,6.4563,6.3675,6.105,5.6986,5.1873,4.8816,4.5823,4.2591,3.7691,0.0,0.0,0.0,0.0,0.0,0.0,0.0,0.0,0.0,0.0,0.0,0.0,0.0,0.0,0.0,0.0,0.0,0.0,0.0,0.0,0.0,0.0,0.0,0.0,0.0,0.0,0.0,0.0,0.0,0.0,0.0,0.0,0.0,0.0,0.0,0.0,0.0,0.0,5.174,5.3145,0.0,0.0,0.0,0.0,4.9778,4.988,5.1555,5.5158,5.6731,5.9157,6.2753,6.4263,6.5355,6.6127,6.7693,6.8439,6.8474,6.8578,6.896,6.9517,6.7363,6.6756,6.7401,6.7305,6.7235,6.7024,6.469,6.2004,5.925,5.742,5.5549,5.418,5.6596,5.8094,5.936,0.0,0.0,0.0,2.2482,2.2582,2.2985,2.3563,2.4711,2.6326,2.8648,3.2471,3.6642,4.0916,4.467,4.772,4.9854,4.9732,4.8635,4.6507,4.1804,3.8903,3.8438,3.6395,3.8941,4.6804,5.3496,5.9495,6.4787,6.6386,6.7732,6.8764,6.7108,6.6374,6.637,6.352,6.1341,5.9504,5.5239,5.1059,4.7052,4.4449,3.9857,0.0,0.0,0.0,0.0,0.0,0.0,0.0,0.0,0.0,0.0,0.0,0.0,0.0,0.0,0.0,0.0,0.0,0.0,0.0,0.0,0.0,0.0,0.0,0.0,0.0,0.0,0.0,0.0,0.0,0.0,0.0,0.0,0.0,0.0,0.0,0.0,0.0,5.3585,5.4279,0.0,5.2435,5.3365,5.438,5.5091,5.7274,5.9603,6.1891,6.2864,6.429,6.6329,6.6887,6.7894,6.9351,7.039,7.1129,7.1603,7.2077,7.2085,7.1645,7.1234,7.0778,7.0344,7.0682,7.0557,7.0077,6.9542,6.7626,6.4997,6.4381,6.3722,6.3231,6.4095,6.4673,6.5145,0.0,0.0,0.0,2.3289,2.3467,2.3888,2.4528,2.6233,2.8614,3.1894,3.6323,4.1024,4.5802,4.9769,5.2731,5.4409,5.4865,5.3964,5.1387,4.6328,4.3103,4.2323,4.1157,4.5721,5.6837,6.0226,6.4148,6.8847,6.9084,6.9735,7.0749,6.8865,6.8221,6.8479,6.595,6.4813,6.4444,6.1134,5.6852,5.2103,5.0139,4.536,3.9169,0.0,0.0,0.0,0.0,0.0,0.0,0.0,0.0,0.0,0.0,0.0,0.0,0.0,0.0,0.0,0.0,0.0,0.0,0.0,0.0,0.0,0.0,0.0,0.0,0.0,0.0,0.0,0.0,0.0,0.0,0.0,0.0,0.0,0.0,0.0,5.389,5.5094,5.6433,5.7011,5.6389,5.7957,5.9489,6.0663,6.3229,6.5233,6.6315,6.7264,6.8269,6.9353,6.9637,7.0487,7.1956,7.3011,7.3779,7.4262,7.5011,7.5026,7.4325,7.444,7.4083,7.3369,7.3509,7.3306,7.2838,7.277,7.1693,7.0005,6.9483,6.9268,6.9268,6.9268,6.9268,6.9268,0.0,0.0,2.5433,2.4991,2.5086,2.5358,2.5764,2.8255,3.1767,3.6447,4.2547,4.8172,5.2699,5.6527,5.8281,5.7179,5.7334,5.6245,5.3409,4.9503,4.6343,4.4214,4.6341,5.2058,6.16,6.2992,6.6199,7.1542,7.0801,7.1635,7.3881,7.1362,7.02,7.0199,6.839,6.716,6.6485,6.6251,6.3159,5.8073,5.4493,5.0063,4.5156,0.0,0.0,0.0,0.0,0.0,0.0,0.0,0.0,0.0,0.0,0.0,0.0,0.0,0.0,0.0,0.0,0.0,0.0,0.0,0.0,0.0,0.0,0.0,0.0,0.0,0.0,0.0,0.0,0.0,0.0,0.0,0.0,0.0,5.2533,5.4499,5.613,5.671,6.017,6.2396,6.2109,6.4178,6.5826,6.6479,6.7269,6.7909,6.8221,6.9717,7.1018,7.1996,7.2768,7.3456,7.4079,7.5617,7.6431,7.6431,7.7212,7.7575,7.7521,7.6758,7.6395,7.6323,7.5528,7.5202,7.5166,7.4388,7.4062,7.3917,7.2282,7.1682,7.1682,7.1682,7.1682,7.1682,2.5634,2.5326,2.505,2.4925,2.5282,2.6173,2.8028,3.0449,3.4074,3.9859,4.4607,4.9411,5.4494,5.776,5.9995,6.1019,6.1178,6.0408,5.8494,5.3992,5.1285,5.1072,5.71,6.2195,6.5875,6.8691,7.0961,7.274,7.3104,7.3738,7.4595,7.2964,7.2124,7.1919,7.0,6.8932,6.8484,6.7976,6.6506,6.4207,6.0595,5.6085,5.1245,0.0,0.0,0.0,0.0,0.0,0.0,0.0,0.0,0.0,0.0,0.0,0.0,0.0,0.0,0.0,0.0,0.0,0.0,0.0,0.0,0.0,0.0,0.0,0.0,0.0,0.0,0.0,0.0,0.0,0.0,0.0,0.0,5.6761,5.6302,5.8648,6.1038,6.2698,6.4306,6.5486,6.5994,6.6837,6.7909,6.9178,7.0168,7.0999,7.1639,7.3021,7.429,7.5402,7.6254,7.7162,7.8153,7.8629,7.8849,7.8849,7.9068,7.8995,7.8747,7.8492,7.8266,7.8029,7.7794,7.7722,7.7703,7.7738,7.7728,7.744,7.445,7.3265,7.3265,7.3265,7.3265,7.3361,2.6229,2.6294,2.6408,2.6664,2.724,2.8253,2.9962,3.2629,3.6609,4.263,4.7003,5.1712,5.7391,5.9844,6.1659,6.309,6.2964,6.1875,5.9709,5.6123,5.5542,5.8758,6.3537,6.7479,7.0381,7.2522,7.3878,7.4428,7.4537,7.4991,7.5681,7.4089,7.3233,7.2916,7.1286,7.0503,7.0266,6.9582,6.8959,6.8214,6.5406,6.1192,5.643,5.4378,5.1443,4.809,4.5481,4.4401,4.3875,4.2147,0.0,0.0,0.0,0.0,0.0,0.0,0.0,0.0,0.0,0.0,0.0,0.0,0.0,0.0,0.0,0.0,0.0,0.0,0.0,0.0,0.0,0.0,0.0,0.0,5.9229,6.1604,6.2332,6.3325,6.4697,6.662,6.7301,6.8165,6.9601,6.9991,7.0647,7.1783,7.3037,7.4004,7.4555,7.6013,7.7198,7.8012,7.8556,7.9112,7.9779,8.0147,8.0277,8.0314,8.0661,8.0878,8.0974,8.1147,8.1147,8.0967,8.0791,8.0556,8.0205,8.0161,8.0133,0.0,0.0,0.0,0.0,0.0,7.7162,7.7234,2.7053,2.7793,2.8535,2.9089,2.9982,3.0909,3.1771,3.4798,3.9155,4.5154,4.9511,5.4389,6.0468,6.2226,6.3242,6.3942,6.3484,6.2018,5.9302,5.79,5.9929,6.6217,6.7292,6.9866,7.4472,7.4952,7.5564,7.6387,7.5763,7.5947,7.6895,7.5135,7.403,7.3496,7.2437,7.1906,7.1763,7.1049,7.0728,7.0514,6.9087,6.5542,6.0929,5.8943,5.6555,5.388,5.0936,4.9724,4.9143,4.6745,0.0,0.0,0.0,0.0,0.0,0.0,0.0,0.0,0.0,0.0,0.0,0.0,0.0,0.0,0.0,0.0,0.0,0.0,0.0,0.0,0.0,0.0,0.0,0.0,6.3425,6.6417,6.9055,6.8205,6.7852,6.9254,6.9672,7.0628,7.277,7.3266,7.3704,7.4332,7.5792,7.6829,7.7121,0.0,0.0,0.0,0.0,8.0105,8.0152,8.0961,8.1381,8.1445,8.2233,8.299,8.3705,8.4154,8.4368,8.4316,8.4068,8.3515,8.2743,8.222,8.2047,8.1984,8.0958,8.0698,8.099,8.1481,8.1698,8.1698,2.7125,2.8056,2.8951,2.914,3.0657,3.2464,3.4214,3.698,4.1393,4.8373,5.1872,5.5685,6.0839,6.3363,6.4621,6.4612,6.4754,6.4512,6.3777,6.5561,6.7531,6.9553,7.1991,7.4103,7.5745,7.6451,7.7252,7.8112,7.8589,7.8468,7.775,7.7095,7.5944,7.4323,7.3796,7.3191,7.2584,7.2405,7.2013,7.1442,7.1121,6.8638,6.4976,6.3923,6.2423,6.0687,5.9481,5.7901,5.6264,5.5473,5.299,5.0103,4.9532,4.8083,0.0,0.0,0.0,0.0,0.0,0.0,0.0,0.0,0.0,0.0,0.0,0.0,0.0,0.0,0.0,0.0,0.0,0.0,0.0,6.4227,6.7214,6.9851,7.1797,7.2615,7.2781,7.2075,7.2578,7.3441,7.4537,7.5495,7.6368,7.7158,7.8402,7.9144,7.9207,8.0145,8.069,8.0791,8.1379,8.1918,8.2301,8.3093,8.3699,8.4083,0.0,0.0,8.5499,8.5821,8.5974,8.5951,8.6047,8.6002,8.5851,8.5726,8.5899,8.5936,8.2709,8.1469,8.153,8.1651,8.1698,8.1745,2.8075,2.8974,2.9901,3.0564,3.2235,3.3914,3.5061,3.7949,4.1838,4.6902,5.0653,5.4123,5.7461,5.9841,6.0918,6.0358,6.1746,6.328,6.4849,6.7679,7.0505,7.3193,7.4713,7.6093,7.7304,7.7745,7.8369,7.9192,7.9596,7.9288,7.8358,7.8172,7.7177,7.5478,7.4869,7.4404,7.394,7.3155,7.2834,7.2798,7.2013,7.059,6.8766,6.7321,6.604,6.483,6.3592,6.2092,6.061,6.0097,5.819,5.5975,5.568,5.4065,5.1546,0.0,0.0,0.0,0.0,0.0,0.0,0.0,0.0,0.0,0.0,0.0,0.0,0.0,0.0,5.8096,6.1267,0.0,6.6334,6.8531,7.1044,7.3197,7.4654,7.5719,7.6139,7.5463,7.5749,7.6581,7.7982,7.8625,7.9121,7.9512,8.0474,8.103,8.103,8.223,8.2897,8.2897,8.3675,8.4205,8.4428,8.4852,8.5243,8.5623,8.5998,8.6442,8.6981,8.7335,8.7487,8.7499,8.7876,8.7737,8.7369,8.7454,8.7707,8.7856,8.5958,8.51,8.5016,8.5169,8.521,8.523,2.9298,3.0062,3.0916,3.2053,3.3778,3.5147,3.549,3.837,4.1554,4.4457,4.825,5.1472,5.3519,5.5497,5.6508,5.6034,5.9123,6.2293,6.5184,6.8679,7.2346,7.6181,7.635,7.7121,7.8809,7.8809,7.9286,8.0257,8.0257,7.9718,7.8702,7.8521,7.763,7.6117,7.5332,7.5028,7.5118,7.3833,7.3547,7.3886,7.2477,7.1834,7.1479,6.9601,6.8399,6.757,6.6169,6.4595,6.3111,6.2936,6.1877,6.0585,6.0365,5.8962,5.6596,5.2824,5.0121,0.0,0.0,0.0,0.0,0.0,0.0,0.0,0.0,5.5544,5.7756,6.1429,6.2458,6.3807,6.7668,6.9617,7.1177,7.2822,7.4586,7.6217,7.7558,7.836,7.8911,7.9141,7.8895,7.9315,8.095,8.1238,8.135,8.135,8.2247,8.2794,8.2794,8.4246,8.511,8.511,8.5732,8.6139,8.6292,8.6387,8.6626,8.6958,8.7108,8.76,8.8418,8.8862,8.9048,8.9048,8.9495,8.9283,8.8652,8.8806,8.9001,8.918,8.918,8.9046,8.8852,8.8743,8.8718,8.8718,3.0327,3.0874,3.1389,3.2224,3.4316,3.5989,3.6404,3.8605,4.1295,4.4247,4.6465,4.8873,5.1855,5.3775,5.5407,5.6685,6.1814,6.5579,6.7047,7.229,7.5903,7.7105,7.7179,7.7949,7.9633,7.9669,8.0404,8.1929,8.1929,8.0815,7.87,7.7976,7.6801,7.5296,7.4493,7.4528,7.5189,7.501,7.4564,7.3922,7.3048,7.2263,7.1585,7.0624,6.9902,6.9298,6.9101,6.6588,6.3596,6.5062,6.3727,6.1395,6.1091,6.122,6.0691,5.6541,5.4688,5.3361,5.0488,5.0541,5.1447,5.166,5.3862,5.7051,0.0,6.2708,6.4648,6.9713,7.0705,7.1431,7.3887,7.3877,7.4293,7.6591,7.7432,7.8478,8.0447,8.1043,8.1732,8.286,8.1657,8.0837,8.1089,8.1761,8.2159,8.2159,8.363,8.4526,8.4526,8.5613,8.6213,8.6213,8.6326,8.6629,8.7245,8.7775,8.8348,8.8977,8.9691,9.0084,9.023,9.0498,9.0636,9.0646,9.0903,9.0917,9.084,9.0858,9.0885,9.0902,9.0902,9.0885,9.0684,8.9248,8.8718,8.8718,3.0865,3.1447,3.2067,3.3033,3.4854,3.623,3.6394,3.8566,4.0644,4.1889,4.4072,4.5677,4.6009,4.7678,4.9444,5.1049,5.8465,6.3653,6.5136,7.2051,7.624,7.6607,7.7069,7.7876,7.9066,7.9103,7.9433,8.0094,8.0341,7.9374,7.7306,7.7209,7.6445,7.5135,7.435,7.4207,7.4457,7.4011,7.3619,7.3226,7.2477,7.1977,7.1585,7.08,7.0324,6.9972,6.8757,6.6198,0.0,6.5183,6.4114,6.2372,6.3834,6.3194,6.1501,5.9323,5.6912,5.5011,5.5641,5.6311,5.751,6.0065,6.2434,6.4847,6.7527,6.9149,7.1183,7.4889,7.4869,7.4886,7.7164,7.7304,7.7492,7.8741,7.9879,8.0939,8.1914,8.2597,8.322,8.388,8.4235,8.4292,8.4054,8.477,8.5336,8.5421,8.6075,8.6552,8.667,8.7584,8.8086,8.8086,8.8542,8.8935,8.9218,8.9462,8.9795,9.0252,9.0558,9.0771,9.0896,9.1009,9.1084,9.1094,9.1175,9.121,9.121,9.121,9.121,9.121,9.121,9.121,9.1133,9.0402,9.0133,9.0133,3.1365,3.1945,3.2648,3.3626,3.4981,3.6009,3.6266,3.8265,3.9778,3.9778,4.1571,4.2496,4.1581,4.2939,4.4683,4.6605,5.4647,6.0692,6.3188,7.0618,7.5169,7.5726,7.6518,7.7362,7.8222,7.8479,7.8589,7.8589,7.8804,7.7877,7.5949,7.5953,7.5442,7.4511,7.3708,7.3458,7.3637,7.3048,7.2798,7.2727,7.1763,7.1371,7.1264,7.0229,6.9301,6.8406,6.733,6.5278,6.3154,6.357,6.2718,6.1715,6.3433,6.2542,6.0788,6.0471,5.86,5.7173,5.9451,6.1051,6.2982,6.6896,6.9512,7.144,7.2922,7.4639,7.6522,7.8891,7.8435,7.8204,8.0073,8.0281,8.0333,8.09,8.2006,8.2966,8.3389,8.3981,8.4414,8.4536,8.6084,8.6993,8.6658,8.7194,8.7615,8.7753,8.7993,8.8182,8.8349,8.9251,8.974,8.974,9.0304,9.0641,9.0701,9.0641,9.0759,9.0992,9.0992,9.1075,9.121,9.121,9.121,9.121,9.121,9.121,9.121,9.1249,9.1283,9.1292,9.1327,9.1352,9.1352,9.1352,9.1341,9.1283,3.2024,3.239,3.2833,3.366,3.4497,3.5334,3.6156,3.7705,3.8733,3.8733,3.8995,3.9535,4.0538,4.1573,4.3208,4.5714,5.1925,5.7585,6.2135,6.8408,7.2826,7.4845,7.5726,7.6533,7.7326,7.8185,7.8589,7.8589,7.8288,7.7109,7.5116,7.404,7.3271,7.2834,7.2084,7.2156,7.2834,7.2798,7.2798,7.2655,7.1156,7.055,7.0371,6.8766,6.6268,6.3821,6.532,6.4325,6.1992,5.9913,5.9027,5.8627,5.7593,5.7996,5.8887,5.9387,6.0289,6.1139,6.1212,6.3666,6.6836,6.9443,7.2449,7.5265,7.7234,7.8809,8.0302,8.1914,8.222,8.2452,8.3297,8.2816,8.2629,8.3606,8.3828,8.4217,8.528,8.5425,8.5463,8.5463,8.6925,8.7957,0.0,8.7985,8.7957,8.8005,8.8769,8.9266,8.9276,9.0262,9.0858,9.0858,9.0867,9.0992,9.1192,9.1001,9.1001,9.1201,9.1201,9.1201,9.121,9.121,9.121,9.121,9.121,9.121,9.1227,9.1407,9.1507,9.1491,9.1708,9.1785,9.1785,9.1785,9.1662,9.1507,3.2619,3.299,3.3399,3.3757,3.4945,3.5965,3.6266,3.7228,3.8109,3.8615,3.8765,0.0,0.0,0.0,0.0,0.0,5.0389,5.5278,5.8456,6.4867,6.9326,7.1125,7.3309,7.4882,7.5674,7.5968,7.5873,7.5359,7.5551,7.4638,7.269,7.2096,7.1352,7.0426,6.9658,6.9444,6.9658,6.9658,6.9658,6.9622,6.9122,6.8417,6.7665,6.7645,6.5366,6.1996,0.0,5.9131,5.7119,5.6975,5.6127,5.5391,5.7026,5.6887,5.6517,5.8503,6.0699,6.3272,6.683,6.9206,7.1549,7.5377,7.7704,7.947,8.0956,8.1858,8.2737,8.3986,8.3789,8.3519,8.3933,8.3773,8.3717,8.4055,8.4599,8.5128,8.5647,8.5714,8.5952,8.6664,8.7757,0.0,8.9206,8.9504,8.9748,8.9927,9.0195,9.0417,9.055,9.0883,9.1112,9.1112,9.1112,9.1198,9.1392,9.1336,9.1336,9.1392,9.1258,9.121,9.121,9.121,9.1266,9.1392,9.1392,9.1467,9.1586,9.1655,9.1733,9.1778,9.1835,9.1855,9.1855,9.1855,9.1923,9.1942,3.4119,3.4435,3.4708,3.4797,3.5632,0.0,0.0,0.0,0.0,0.0,0.0,0.0,0.0,0.0,0.0,0.0,0.0,5.208,5.4417,6.035,6.4682,6.6789,6.8945,7.0636,7.1756,7.1484,7.1171,7.0855,7.1581,7.1235,6.9777,7.0025,6.9669,6.8873,6.8337,6.8088,6.8088,6.7818,6.7761,6.7767,6.6606,6.5546,6.4618,6.4272,6.1637,0.0,5.6417,5.4235,5.2177,5.2891,5.3016,5.3274,5.5489,5.6724,5.7842,6.0304,6.292,6.6049,7.0893,7.2964,7.4758,7.8794,8.044,8.1444,8.2992,8.357,8.41,8.5114,8.4878,8.45,8.4641,8.4671,8.4805,8.516,8.5935,8.6576,8.6817,8.7066,8.7417,8.7816,8.8372,8.891,0.0,8.9769,9.0224,9.0943,9.1073,9.115,9.1308,9.1368,9.1415,9.1415,9.1415,9.1492,9.16,9.1616,9.1604,9.1604,9.1515,9.1443,9.1423,9.1443,9.1511,9.1644,9.1644,9.1721,9.1821,9.1913,9.1975,9.1993,9.2076,9.209,9.209,9.209,9.2186,9.2269,3.6274,3.6398,3.6515,0.0,0.0,0.0,0.0,0.0,0.0,0.0,0.0,0.0,0.0,0.0,0.0,0.0,0.0,0.0,5.0233,5.4963,5.8999,6.1864,6.2928,6.4182,6.5806,6.5065,6.4905,6.541,6.6659,6.6939,6.6388,6.7539,6.7908,6.7601,6.7566,6.753,6.7494,6.678,6.6634,6.6613,6.3513,6.1932,6.1222,5.899,5.5516,5.1862,5.1958,5.0184,4.7861,4.8236,5.0139,5.251,5.3411,5.7541,6.2432,6.4506,6.68,6.9518,7.3446,7.5159,7.6624,7.9924,8.0868,8.1547,8.3519,8.4063,8.4365,8.5177,8.5254,8.5177,8.5149,8.5273,8.5724,8.6765,8.7731,8.8427,8.8688,8.9368,8.9615,8.8862,8.8747,0.0,0.0,0.0,8.9563,9.1065,9.1346,9.1429,9.1429,9.1683,9.1829,9.1829,9.1829,9.1796,9.1802,9.18,9.1814,9.1814,9.1874,9.1869,9.1804,9.1874,9.1923,9.1927,9.1927,9.1936,9.1957,9.2146,9.2225,9.224,9.2428,9.2528,9.2528,9.2528,9.2508,9.2481,0.0,0.0,0.0,0.0,0.0,0.0,0.0,0.0,0.0,0.0,0.0,0.0,0.0,0.0,0.0,0.0,0.0,0.0,4.7164,5.0442,5.3148,5.509,5.8126,6.0122,6.0974,6.1356,6.1615,6.1752,6.2083,6.203,6.1643,6.1346,6.1059,6.068,6.0132,5.9893,5.9893,5.9713,5.966,5.9605,5.8035,5.6701,5.569,5.5516,5.3205,5.0148,5.1329,5.0639,4.9328,5.0282,5.277,5.5875,5.8356,6.0574,6.321,6.7712,7.0581,7.323,7.7673,7.9761,8.1184,8.3437,8.4057,8.4242,8.495,8.4163,8.3219,8.2938,8.1893,8.0894,8.0394,8.2377,8.417,8.4442,8.6939,8.8853,8.8889,8.9243,8.9609,9.0047,8.9543,8.9382,9.0042,8.9564,8.9647,9.0658,9.0807,9.0823,9.0823,9.1498,9.188,9.188,9.188,9.1935,9.2113,9.2093,9.2104,9.2104,9.1953,9.1905,9.1878,9.1905,9.1973,9.2136,9.2136,9.2203,9.2365,9.2419,9.2435,9.249,9.2534,9.2574,9.2574,9.2574,9.2576,9.2577,0.0,0.0,0.0,0.0,0.0,0.0,0.0,0.0,0.0,0.0,0.0,0.0,0.0,0.0,0.0,0.0,0.0,0.0,0.0,4.7244,4.9285,5.0574,5.2354,5.3791,5.4812,5.4569,5.4895,5.5828,5.6186,5.648,5.6733,5.6272,5.5874,5.5553,5.5133,5.5095,5.5309,5.4984,5.5081,0.0,0.0,5.2426,5.1511,5.1347,4.9794,4.7899,4.9321,5.0917,5.2721,5.5235,5.774,6.0303,6.353,6.5731,6.8055,7.254,7.4619,7.6358,8.0384,8.2044,8.2908,8.3974,8.4304,8.4088,8.3084,8.222,8.1159,7.9687,7.8977,7.873,7.9117,8.1746,8.4243,8.5364,8.819,9.0262,9.0259,9.0693,9.1043,9.1175,9.0401,9.0051,9.0552,8.9905,8.9624,9.0135,9.0512,9.0911,9.1266,9.1832,9.2156,9.2156,9.2156,9.2234,9.234,9.2342,9.2342,9.2342,9.2244,9.2183,9.2159,9.2186,9.2258,9.2369,9.2369,9.2433,9.2534,9.2534,9.2576,9.2617,9.2617,9.2617,9.2617,9.2617,9.2617,9.2617,0.0,0.0,0.0,0.0,0.0,0.0,0.0,0.0,0.0,3.9693,3.9303,3.8991,0.0,0.0,0.0,0.0,0.0,0.0,0.0,0.0,4.6171,4.6919,4.6531,4.6905,4.8242,4.7023,4.7251,4.9139,4.9824,5.063,5.1486,5.1464,5.1274,5.1004,5.0981,5.1261,5.1718,5.1084,5.1239,5.1754,4.9642,4.8547,4.8068,0.0,4.6534,4.6046,4.7615,5.1351,5.6228,6.0942,6.338,6.5008,6.8532,7.1492,7.4254,7.7341,7.8301,7.9037,8.1933,8.3025,8.3324,8.3353,8.3483,8.2957,8.0319,7.9598,7.8707,7.6053,7.5925,7.6907,7.8896,8.147,8.4204,8.6899,8.9531,9.1322,9.1567,9.2281,9.2565,9.2039,9.1229,9.0684,9.0684,9.0069,8.9686,8.9804,9.054,9.1234,9.1852,9.2272,9.2497,9.2497,9.2497,9.251,9.2528,9.2528,9.2528,9.2529,9.2577,9.2577,9.2529,9.2577,9.2617,9.2617,9.2617,9.2617,9.2617,9.2617,9.2617,9.2617,9.2617,9.2617,9.2617,9.2617,9.2617,9.2617,0.0,0.0,0.0,0.0,0.0,0.0,0.0,0.0,0.0,0.0,4.0367,3.9055,0.0,0.0,0.0,0.0,0.0,0.0,0.0,0.0,0.0,4.1557,4.2767,4.3423,4.35,4.386,4.4232,4.4622,4.4769,4.4928,4.5086,4.493,4.4837,4.478,4.4663,4.4647,4.4726,4.4617,4.4637,4.4756,4.4256,4.4176,4.4382,4.5526,0.0,0.0,5.0487,5.2938,5.56,6.2513,6.6027,6.8248,7.2329,7.4443,7.5914,7.8321,7.9963,8.1308,8.2607,8.4002,8.5092,8.5264,8.5328,8.4586,8.1513,7.9231,7.683,7.3521,7.131,7.0979,7.4221,7.6964,7.9851,8.3233,8.6062,8.8371,8.9871,9.0358,9.1022,9.2331,9.1709,9.1162,9.1162,9.0423,9.0229,9.0932,9.1167,9.0966,9.0403,9.1789,9.2576,9.2576,9.2576,9.2577,9.2577,9.2578,9.2578,9.2578,9.2578,9.2578,9.2578,9.2578,9.2617,9.2617,9.2617,0.0,9.2617,9.2617,9.2617,9.2617,9.2617,9.2617,9.2617,9.2617,9.2617,9.2617,0.0,0.0,0.0,0.0,0.0,0.0,0.0,4.1597,4.3059,4.52,4.3788,4.2047,4.0546,4.0767,4.0806,0.0,0.0,0.0,0.0,0.0,0.0,4.0654,4.1046,4.1183,4.1046,4.145,4.1817,4.2249,0.0,4.1683,4.2086,4.1028,4.0463,4.0293,4.0383,4.0564,4.0738,4.0852,4.116,4.1576,4.2122,4.2432,4.2833,0.0,0.0,0.0,5.1631,5.4017,5.6334,6.1214,6.5215,6.9154,7.461,7.7235,7.8426,7.9018,8.0465,8.1972,8.2384,8.3788,8.5229,8.5317,8.5651,8.4409,7.8492,7.6515,7.4361,6.8744,6.7371,6.7986,7.0612,7.4086,7.7544,8.0599,8.4578,8.7699,8.9001,9.0421,9.1678,9.25,9.2226,9.1992,9.1992,9.1601,9.1523,9.1953,9.1992,9.1796,9.1364,9.2148,9.2617,9.2617,9.2617,9.2617,9.2617,9.2617,9.2617,9.2617,9.2617,9.2617,9.2617,9.2617,9.2617,9.2617,9.2617,9.2617,9.2617,9.2617,9.2617,9.2617,9.2617,9.2617,9.2617,9.2617,9.2617,9.2617,0.0,0.0,0.0,0.0,0.0,0.0,0.0,4.3901,4.5316,4.8464,4.7616,4.5597,4.2667,4.2084,4.1282,0.0,0.0,0.0,0.0,0.0,0.0,0.0,0.0,0.0,3.9643,0.0,0.0,4.0533,3.9743,0.0,0.0,0.0,0.0,0.0,3.7836,3.808,3.8401,3.8598,3.9076,0.0,0.0,4.1733,0.0,0.0,0.0,0.0,0.0,5.4148,5.6458,5.9338,6.3314,6.8086,7.4022,7.73,7.8917,7.8838,7.9965,8.1351,8.1918,8.3333,8.467,8.4854,8.5393,8.37,7.5584,7.4123,7.2315,6.4852,6.4452,6.6212,6.8589,7.2127,7.5718,7.8685,8.2908,8.6367,8.7929,9.0078,9.1797,9.25,9.2617,9.2617,9.2617,9.2617,9.2617,9.2617,9.2617,9.2617,9.2617,9.2422,9.2422,9.2578,9.2617,9.2617,9.2617,9.2617,9.2617,9.2617,9.2617,9.2617,9.2617,9.2617,9.2617,9.2617,9.2617,9.2617,9.2617,9.2617,9.2617,9.2617,9.2617,9.2617,9.2617,9.2617,9.2617,9.2617,0.0,0.0,0.0,0.0,0.0,0.0,0.0,4.4637,4.6818,5.1399,5.0385,4.8288,4.5773,4.3549,4.1307,0.0,0.0,0.0,0.0,0.0,0.0,0.0,0.0,0.0,0.0,0.0,0.0,3.8652,0.0,0.0,0.0,0.0,0.0,0.0,0.0,3.739,3.7684,3.7711,0.0,0.0,0.0,0.0,0.0,0.0,0.0,0.0,0.0,5.2521,5.4149,5.8219,6.145,6.4404,6.8082,7.1388,7.4335,7.6771,7.81,7.9346,8.1646,8.297,8.3909,8.4709,8.497,8.3162,7.6161,7.4084,7.1661,6.4737,6.3447,6.4893,6.9251,7.1046,7.3312,7.7783,7.9586,8.1831,8.5859,8.7304,8.9101,9.2226,9.2617,9.2617,9.2617,9.2617,9.2617,9.2617,9.2617,9.2617,9.2617,9.1836,9.1797,9.2578,9.2617,9.2617,9.2617,9.2617,9.2617,9.2617,9.2617,9.2617,9.2617,9.2617,9.2617,9.2617,9.2617,9.2617,0.0,9.2617,9.2617,9.2617,9.2617,9.2617,9.2617,9.2617,9.2617,9.2617,0.0,0.0,0.0,0.0,0.0,0.0,4.5403,4.6034,4.7827,5.3206,5.1804,4.9554,4.7572,4.5626,4.291,3.9056,0.0,0.0,0.0,0.0,0.0,0.0,0.0,0.0,0.0,0.0,3.8481,3.8417,3.8196,0.0,0.0,0.0,0.0,0.0,0.0,0.0,3.7326,3.7512,0.0,0.0,0.0,0.0,0.0,0.0,0.0,0.0,0.0,0.0,5.3344,5.5099,5.7736,6.0429,6.1275,6.3847,6.735,7.1493,7.5483,7.8638,7.9138,8.1785,8.4478,8.4816,8.4893,8.2862,7.4976,7.2937,7.0629,6.3281,6.2204,6.3299,6.5726,6.736,6.9678,7.3724,7.648,7.9679,8.4019,8.6718,8.9101,9.1523,9.2265,9.2187,9.1133,9.1992,9.2617,9.2617,9.2617,9.2617,9.2617,9.2265,9.2226,9.2578,9.2617,9.2617,9.2617,9.2617,9.2617,9.2617,9.2617,9.2617,9.2617,9.2617,9.2617,9.2617,9.2617,9.2617,0.0,9.2617,9.2617,9.2617,9.2617,9.2617,9.2617,9.2617,9.2617,9.2578,0.0,0.0,0.0,0.0,0.0,4.0975,4.6121,4.6552,4.8102,5.3132,5.2062,5.0058,4.815,4.6287,4.3644,3.9745,3.8797,0.0,0.0,0.0,0.0,0.0,0.0,0.0,0.0,0.0,3.836,3.8254,3.8237,3.8079,0.0,0.0,0.0,0.0,0.0,0.0,0.0,0.0,0.0,0.0,0.0,0.0,0.0,0.0,0.0,0.0,0.0,0.0,0.0,0.0,0.0,5.6998,5.6642,5.8543,6.2014,6.7654,7.2245,7.5861,7.7592,8.0477,8.3324,8.4585,8.4124,8.1477,7.4245,7.1783,6.9129,6.221,6.1479,6.2408,6.3404,6.5067,6.7412,7.0831,7.3963,7.7759,8.288,8.5662,8.8125,9.0625,9.1211,9.1054,9.0078,9.1562,9.2617,9.2617,9.2617,9.2617,9.2617,9.2617,9.2617,9.2617,9.2617,9.2617,9.2617,9.2617,9.2617,9.2617,9.2617,9.2734,9.2969,9.2969,9.3125,9.3359,9.3086,9.2969,0.0,9.2695,9.2617,9.2617,9.2577,9.2575,9.2575,9.253,9.2528,9.2487,0.0,0.0,0.0,0.0,0.0,0.0,4.4438,4.5766,4.7418,5.0805,5.0993,4.9874,4.7369,4.4966,4.2873,4.1213,3.9455,0.0,0.0,0.0,0.0,0.0,0.0,0.0,0.0,0.0,3.8238,3.7899,3.8645,3.8519,3.7621,3.8067,3.8051,3.7577,0.0,0.0,0.0,0.0,0.0,0.0,0.0,0.0,0.0,0.0,0.0,0.0,0.0,0.0,0.0,0.0,0.0,0.0,0.0,5.673,5.9478,6.6397,6.8468,7.0161,7.77,7.9169,7.96,8.3824,8.2354,7.8738,7.4469,7.0853,6.7006,6.1864,6.1479,6.2447,6.3585,6.5153,6.725,7.0154,7.209,7.5673,8.2605,8.3631,8.5234,8.9492,8.9258,8.9062,8.9922,9.1562,9.2617,9.2617,9.2617,9.2617,9.2617,9.2617,9.2617,9.2617,9.2617,9.2617,9.2617,9.2617,9.2617,9.2617,9.2617,9.3047,9.3906,9.3906,9.4375,9.5117,9.4258,9.3906,0.0,9.2969,9.2617,9.2578,9.2522,9.2508,9.2464,9.2366,9.23,9.23,0.0,0.0,0.0,0.0,0.0,0.0,0.0,4.3448,4.4692,4.8517,4.7131,4.592,4.625,4.4121,4.2207,4.0982,3.9362,0.0,0.0,0.0,0.0,0.0,0.0,0.0,0.0,0.0,3.9013,3.9472,3.9584,3.9444,3.9173,3.8802,3.8553,3.8388,3.7734,0.0,0.0,0.0,0.0,0.0,0.0,0.0,0.0,0.0,0.0,0.0,0.0,0.0,0.0,0.0,0.0,0.0,0.0,0.0,0.0,6.0226,6.4621,6.893,7.1353,7.3899,7.6092,7.6892,7.5861,7.363,6.9975,6.7398,6.4859,6.1473,6.055,6.0823,6.2486,6.3769,6.6062,7.0603,7.2383,7.5635,8.2605,8.4646,8.6523,8.9648,8.9765,9.0156,9.164,9.0664,9.0664,9.2461,9.2031,9.1953,9.2578,9.2617,9.2617,9.2617,9.2617,9.2617,9.2617,9.2617,9.2617,9.2617,9.2617,9.3047,9.3906,9.3906,9.4062,9.4297,9.3977,9.3501,9.2913,9.2535,9.2403,9.2401,9.2381,9.2373,9.2371,9.2305,9.2298,9.2287,0.0,0.0,0.0,0.0,0.0,0.0,0.0,4.1541,4.2466,4.4966,4.3979,4.3433,4.4415,4.2594,4.1154,4.0842,3.9263,0.0,0.0,0.0,0.0,0.0,0.0,0.0,3.8741,3.8635,3.922,4.0544,4.0705,4.0957,4.1242,4.1064,4.035,3.9209,3.8683,3.8194,0.0,0.0,0.0,0.0,0.0,0.0,4.4978,0.0,0.0,0.0,0.0,0.0,0.0,0.0,0.0,0.0,0.0,0.0,0.0,0.0,6.0035,6.4583,6.7511,7.0056,7.2014,7.2822,7.1629,6.9559,6.6782,6.4359,6.2243,6.0627,5.9896,6.0091,6.2032,6.2883,6.5056,7.0417,7.1292,7.4035,8.198,8.3201,8.4609,8.8164,8.9101,9.0078,9.1441,9.0113,9.0071,9.2327,9.1701,9.1628,9.2495,9.2573,9.2573,9.2573,9.2577,9.2617,9.2617,9.2576,9.2573,9.2573,9.2526,9.2951,9.3772,9.3772,9.3967,9.4278,9.3901,9.3418,0.0,9.2474,9.2298,9.2292,9.2258,9.2243,9.2279,9.2235,9.2221,9.221,0.0,0.0,0.0,0.0,0.0,0.0,0.0,4.0008,4.063,4.0728,4.1458,4.2007,4.2069,4.0527,3.9806,4.0535,0.0,0.0,0.0,0.0,0.0,0.0,0.0,0.0,3.7962,3.8025,3.9084,4.1201,4.2047,4.2858,4.3668,4.431,4.299,4.0065,3.9958,3.9179,0.0,0.0,0.0,0.0,0.0,4.4821,0.0,0.0,0.0,0.0,0.0,0.0,0.0,0.0,0.0,0.0,0.0,0.0,0.0,0.0,0.0,0.0,0.0,6.6876,6.7314,7.0437,6.8828,6.6058,6.4512,6.1666,0.0,5.9413,5.9375,5.9985,6.2035,6.2593,6.4464,6.9653,6.9513,7.1887,8.0851,8.0429,8.1054,8.5976,8.7968,8.9293,9.0089,9.0044,9.0649,9.2186,9.1556,9.151,9.2424,9.2503,9.2503,9.2503,9.2532,9.2577,9.2577,9.2521,9.2503,9.2464,9.2371,9.2766,9.3588,9.3588,9.4056,0.0,9.3933,9.358,9.3421,9.2632,9.2279,9.227,9.2206,9.2199,9.2182,9.2127,9.211,9.211,0.0,0.0,0.0,0.0,0.0,0.0,0.0,0.0,0.0,0.0,3.9256,3.9056,3.9898,3.9073,3.8472,0.0,0.0,0.0,0.0,0.0,0.0,0.0,0.0,0.0,3.8699,3.9207,4.036,4.2259,4.3456,4.4453,4.5249,4.481,4.3561,4.1691,4.0457,3.9559,0.0,0.0,0.0,0.0,4.3789,4.4229,0.0,0.0,0.0,0.0,4.7012,4.8345,0.0,0.0,0.0,0.0,0.0,0.0,0.0,0.0,5.265,5.4116,5.6709,0.0,6.1204,6.1488,6.0973,6.0281,0.0,5.8627,5.7786,5.8518,5.8157,5.8491,6.104,6.3717,6.6413,6.9101,7.2592,7.6194,7.9759,8.3696,8.7171,8.9711,9.0959,9.1931,9.2782,9.1613,9.1223,9.222,9.1554,9.1447,9.2286,9.2364,9.2364,9.2364,9.234,9.2387,9.2387,9.2334,9.2364,9.2364,9.2305,9.2766,9.3588,9.3588,9.3705,9.3897,9.3627,9.3156,9.2522,9.2269,9.2141,9.2141,9.2142,9.2127,9.2122,9.212,9.211,9.211,0.0,0.0,0.0,0.0,0.0,0.0,0.0,0.0,0.0,0.0,0.0,3.8075,3.8681,3.8323,0.0,0.0,0.0,0.0,0.0,0.0,0.0,0.0,0.0,3.7671,3.8894,3.9324,4.1065,4.4253,4.508,4.6381,4.8146,4.7433,4.5789,4.3251,4.0627,3.9634,0.0,0.0,0.0,0.0,4.3845,0.0,0.0,0.0,0.0,0.0,4.6803,4.8081,0.0,5.0675,5.1395,5.1767,0.0,0.0,0.0,0.0,5.127,5.2196,5.2845,5.5505,5.8097,5.7791,5.8011,5.822,5.7872,5.7122,5.6787,5.7744,5.7891,5.8531,6.0872,6.3829,6.72,7.1034,7.4382,7.7803,8.1518,8.6554,8.9871,8.9974,9.1143,9.2063,9.2435,9.0899,9.0496,9.2078,9.1412,9.136,9.2227,9.2269,9.2269,9.2269,9.2269,9.2252,9.2298,9.2255,9.2269,9.2269,9.2218,9.2468,9.2896,9.2896,9.2896,9.2892,9.2857,9.2588,9.2151,9.2107,9.211,9.211,9.211,9.211,9.211,9.211,9.211,9.211,0.0,0.0,0.0,0.0,0.0,0.0,0.0,0.0,0.0,0.0,0.0,0.0,0.0,0.0,0.0,0.0,0.0,0.0,0.0,0.0,0.0,0.0,3.7345,3.778,3.9053,3.9184,4.1453,4.5936,4.6571,4.8193,5.077,5.0543,4.8326,4.4303,4.075,3.959,0.0,0.0,0.0,0.0,4.3974,0.0,0.0,0.0,0.0,0.0,0.0,0.0,0.0,5.1282,5.1729,5.1464,5.1881,0.0,0.0,0.0,0.0,0.0,5.1787,5.432,5.6955,5.7302,5.7802,5.8119,5.7839,5.6839,5.6201,5.7226,5.8276,5.9745,6.2162,6.4966,6.8767,7.4439,7.6284,7.8866,8.4335,8.8553,9.05,8.8989,9.0305,9.1273,9.1112,8.9785,8.9835,9.1926,9.141,9.1355,9.2135,9.2182,9.2182,9.2182,9.2182,9.2195,9.2255,9.2199,9.2182,9.2182,9.2137,9.211,9.211,9.211,9.211,9.211,9.211,0.0,9.211,9.211,9.211,9.211,9.211,9.211,9.211,9.211,9.211,9.211,0.0,0.0,0.0,0.0,0.0,0.0,0.0,0.0,0.0,0.0,0.0,0.0,0.0,0.0,0.0,0.0,0.0,0.0,0.0,0.0,0.0,3.7595,3.7549,3.8393,4.0284,4.0121,4.154,4.4679,4.7275,4.9112,5.0262,5.1513,4.9205,4.3796,4.1023,3.9593,3.9401,4.0282,0.0,4.2705,4.3356,0.0,0.0,0.0,0.0,0.0,0.0,0.0,0.0,4.9924,5.113,5.1995,5.0682,0.0,0.0,0.0,0.0,0.0,5.2394,5.4902,5.7496,5.8939,5.8383,5.8033,5.9964,5.8148,5.6342,5.735,5.9377,6.2413,6.7208,7.1418,7.5234,7.8386,8.0819,8.3146,8.5565,8.8307,8.9914,8.9634,9.1044,9.2023,9.1997,9.1723,9.1708,9.2071,9.1993,9.1965,9.2107,9.2107,9.2107,9.2107,9.2107,9.2117,9.2142,9.2117,9.2107,9.2107,9.2081,9.211,9.211,9.211,9.211,9.211,0.0,9.211,9.211,9.211,9.211,9.211,9.211,9.211,9.211,9.211,9.211,9.211,0.0,0.0,0.0,0.0,0.0,0.0,0.0,0.0,0.0,0.0,0.0,0.0,0.0,0.0,0.0,0.0,0.0,0.0,0.0,0.0,3.8322,3.9649,3.9418,3.9788,4.1061,4.2457,4.4859,4.834,5.0696,5.243,5.3461,5.1382,4.8099,4.3891,4.1134,3.9582,3.9167,4.0158,4.1221,4.2264,0.0,0.0,0.0,0.0,0.0,0.0,0.0,0.0,0.0,0.0,5.0038,5.0903,5.0151,0.0,0.0,0.0,0.0,0.0,5.2224,5.4626,5.7776,6.2271,6.3132,6.323,6.4386,6.4951,6.4422,6.1705,6.393,6.7286,7.0237,7.3531,7.7726,8.3553,8.6257,8.8051,8.9263,9.0837,9.1504,9.0518,9.1049,9.1494,9.146,9.099,9.11,9.2032,9.211,9.211,9.211,9.211,9.211,9.211,9.211,9.211,9.211,9.211,9.211,9.211,9.211,9.211,9.211,9.211,9.211,9.211,9.211,9.211,9.211,9.211,9.211,9.211,9.211,9.211,9.211,9.211,9.211,9.211,0.0,0.0,0.0,0.0,0.0,0.0,0.0,0.0,0.0,0.0,0.0,0.0,0.0,0.0,0.0,0.0,0.0,0.0,0.0,0.0,3.8869,4.1008,4.1424,4.215,4.3293,4.527,4.8171,5.2049,5.3993,5.5378,5.6026,5.1212,4.7221,4.3995,4.1163,3.9482,3.8816,4.0067,4.1042,4.1862,0.0,0.0,0.0,0.0,0.0,0.0,0.0,0.0,0.0,0.0,0.0,0.0,0.0,0.0,0.0,5.1025,5.1483,5.2269,5.3004,5.5455,5.9171,6.4854,6.6694,6.7567,6.9204,7.1047,7.1229,6.7145,6.9584,7.2842,7.4168,7.6833,8.0936,8.7501,8.9834,9.1164,9.2142,9.2867,9.2669,9.1101,9.1065,9.1084,9.0804,9.0361,9.0672,9.1993,9.211,9.211,9.211,9.211,9.211,9.211,9.211,9.211,9.211,9.211,9.211,9.211,9.211,9.211,9.211,9.211,9.211,9.211,9.211,9.211,9.211,9.211,9.211,9.211,9.211,9.211,9.211,9.211,9.211,9.211,0.0,0.0,0.0,0.0,0.0,0.0,0.0,0.0,0.0,0.0,0.0,0.0,0.0,0.0,0.0,0.0,0.0,0.0,0.0,0.0,3.8468,3.9756,4.2873,4.5891,4.8689,4.8224,4.9631,5.3083,5.5489,5.6195,5.5283,5.1754,4.7849,4.3696,4.1085,3.9075,3.7819,3.9797,4.073,4.1147,4.282,0.0,0.0,0.0,0.0,0.0,0.0,0.0,0.0,0.0,0.0,0.0,0.0,0.0,5.1732,5.2576,5.4587,5.643,5.5958,5.8982,6.2772,6.4996,6.5605,6.7272,7.3547,7.2819,7.1174,7.231,7.5373,7.8585,8.1086,8.492,8.7855,8.8418,8.9299,9.0467,9.2064,9.2295,9.195,9.1011,9.1558,9.1698,9.0872,9.1488,9.1954,9.211,9.211,9.211,9.211,9.211,9.211,9.211,9.211,9.211,9.211,9.211,9.211,9.211,9.211,9.211,9.211,9.211,9.211,9.211,9.211,9.211,9.211,9.211,9.211,9.211,9.211,9.211,9.211,9.211,9.211,9.211,0.0,0.0,0.0,0.0,0.0,0.0,0.0,0.0,0.0,0.0,0.0,0.0,0.0,0.0,0.0,0.0,0.0,0.0,0.0,3.7825,3.9314,4.1761,4.3754,4.6259,4.9402,5.1852,5.4339,5.6921,5.7838,5.707,5.4646,5.0616,4.6773,4.3177,4.0427,3.8888,3.8461,3.9959,4.0916,4.1557,4.3113,4.3808,0.0,0.0,0.0,0.0,0.0,0.0,0.0,0.0,4.754,4.8951,4.9149,5.0703,5.2472,5.2563,5.3265,5.4285,5.5255,5.9102,6.3641,6.7019,6.9852,7.2529,7.5118,7.9308,8.1759,7.8691,8.1237,8.4132,8.4646,8.7246,8.9524,9.0038,8.9816,9.0223,9.1932,9.2155,9.2006,9.1695,9.1451,9.1371,9.1605,9.141,9.1527,9.2071,9.211,9.211,9.211,9.211,9.211,9.211,9.211,9.211,9.211,9.211,9.211,9.211,9.211,9.211,9.211,9.211,9.211,9.211,9.211,9.211,9.211,9.211,9.211,9.211,9.211,9.211,9.211,9.211,9.211,9.211,0.0,0.0,0.0,0.0,0.0,0.0,0.0,0.0,0.0,0.0,0.0,0.0,0.0,0.0,0.0,0.0,0.0,0.0,3.7149,3.7919,3.9532,4.2125,4.3923,4.6156,4.889,5.3625,5.6742,5.8058,5.8315,5.674,5.3422,4.9404,4.6174,4.3609,4.0567,3.9575,4.0135,4.0438,4.0916,4.1638,4.298,4.3574,0.0,0.0,0.0,0.0,0.0,0.0,0.0,0.0,4.6896,4.863,4.8735,5.0789,5.3085,5.282,5.4054,5.5571,5.5937,6.0564,6.5858,6.8304,7.2961,7.7187,7.8072,8.2801,8.6207,8.3202,8.5388,8.7693,8.7414,8.8224,8.9315,9.0421,8.9995,9.0128,9.1838,9.211,9.211,9.211,9.1566,9.1449,9.2032,9.1566,9.1449,9.2071,9.211,9.211,9.211,9.211,9.211,9.211,9.211,9.211,9.211,9.211,9.211,9.211,9.211,9.211,9.211,9.211,9.211,9.211,9.211,9.211,9.211,9.211,9.211,9.211,9.211,9.211,9.211,9.211,9.211,9.211,0.0,0.0,0.0,0.0,0.0,0.0,0.0,0.0,0.0,0.0,0.0,0.0,0.0,0.0,0.0,0.0,0.0,0.0,3.8093,3.8283,3.8936,4.0148,4.3383,4.5898,4.7418,5.3084,5.5866,5.5585,5.6381,5.4998,5.1499,4.839,4.6338,4.5131,4.1745,4.1268,4.2875,4.1234,4.0754,4.1212,4.2302,4.2835,4.3101,0.0,0.0,0.0,0.0,0.0,0.0,0.0,4.7078,4.8327,5.0023,5.1944,5.3561,5.3707,5.7892,6.1795,5.8706,6.4002,7.0056,6.8537,7.3983,8.0429,8.3008,8.22,8.1873,8.5399,8.7495,8.894,8.9676,8.8394,8.7747,8.9251,8.9507,9.0128,9.1838,9.211,9.211,9.211,9.211,9.211,9.211,9.211,9.211,9.211,9.211,9.211,9.211,9.211,9.211,9.211,9.211,9.211,9.211,9.211,9.211,9.211,9.211,9.211,9.211,9.211,9.211,9.211,9.211,9.211,9.211,9.211,9.211,9.211,9.211,9.211,9.211,9.211,9.211,9.211,0.0,0.0,0.0,0.0,0.0,0.0,0.0,0.0,0.0,0.0,0.0,0.0,0.0,0.0,0.0,0.0,0.0,0.0,3.7454,3.8204,3.9004,3.9944,4.2582,4.3945,4.3838,4.733,5.1263,5.5585,5.5401,5.3346,4.9528,4.8697,4.6903,4.4341,4.3835,4.3187,4.2537,4.2189,4.2448,4.3121,4.3795,4.4072,4.4179,0.0,0.0,0.0,0.0,0.0,0.0,0.0,0.0,0.0,4.9114,5.2009,5.5483,5.6277,5.8551,6.0893,6.1296,6.72,7.3043,7.2019,7.7578,8.3504,8.4285,8.4935,8.5654,8.6687,8.9259,9.087,8.9196,8.8929,8.9285,9.0332,8.9926,9.0128,9.1838,9.211,9.211,9.211,9.211,9.211,9.211,9.211,9.211,9.211,9.211,9.211,9.211,9.211,9.211,9.211,9.211,9.211,9.211,9.211,9.211,9.211,9.211,9.211,9.211,9.211,9.211,9.211,9.211,9.211,9.211,9.211,9.211,9.211,9.211,9.211,9.211,9.211,9.211,9.211,0.0,0.0,0.0,0.0,0.0,0.0,0.0,0.0,3.3901,3.4642,3.5435,3.6042,0.0,0.0,0.0,3.7162,3.735,3.7503,3.7679,3.8403,3.9172,3.9982,4.181,4.3217,4.3985,4.5552,4.8046,5.1494,5.1815,5.0545,4.7896,4.8675,4.8278,4.7047,4.7396,4.6818,4.5509,4.4591,4.4154,4.4206,4.4486,4.4659,4.4775,0.0,0.0,0.0,0.0,0.0,0.0,0.0,0.0,0.0,4.9043,5.2639,5.6739,5.6698,6.0276,6.4425,6.5237,7.1122,7.7263,7.8125,8.2091,8.5839,8.6164,8.7038,8.7867,8.8179,9.0192,9.1521,9.0192,9.0082,9.0443,9.124,9.0888,9.0905,9.1954,9.211,9.211,9.211,9.211,9.211,9.211,9.211,9.211,9.211,9.211,9.211,9.211,9.211,9.211,9.211,9.211,9.211,9.211,9.211,9.211,9.211,9.211,9.211,9.211,9.211,9.211,9.211,9.211,9.211,9.211,9.211,9.211,9.211,9.211,9.211,9.211,9.211,9.211,9.211,0.0,0.0,0.0,0.0,0.0,0.0,0.0,3.2953,3.3239,3.3901,3.4713,3.5463,0.0,0.0,0.0,3.7908,3.8036,3.8185,3.8425,3.8774,3.9355,4.017,4.1315,4.3273,4.6221,4.62,4.576,4.4916,4.6773,4.7311,4.6582,4.856,5.0247,5.1549,5.1493,5.1016,5.0073,4.7327,4.5552,4.4632,4.4546,4.4657,4.499,4.5716,0.0,0.0,0.0,0.0,0.0,0.0,0.0,0.0,4.9543,5.3337,5.7075,5.572,6.231,6.9952,6.9609,7.5108,8.1705,8.504,8.6714,8.7783,8.8552,8.8803,8.8977,8.9432,9.0446,9.1356,9.1868,9.1451,9.1253,9.1975,9.211,9.211,9.211,9.211,9.211,9.211,9.211,9.211,9.211,9.211,9.211,9.211,9.211,9.211,9.211,9.211,9.211,9.211,9.211,9.211,9.211,9.211,9.211,9.211,9.211,9.211,9.211,9.211,9.211,9.211,9.211,9.211,9.211,9.211,9.211,9.211,9.211,9.211,9.211,9.211,9.211,9.211,0.0,0.0,0.0,0.0,0.0,0.0,3.3132,3.3445,3.3687,3.3231,3.4365,3.5284,3.5427,3.6185,0.0,3.7981,3.8076,3.8234,3.8611,3.887,3.9355,4.017,4.1844,4.3078,4.3773,4.3301,4.2669,4.1849,4.5361,4.6719,4.6071,4.9926,5.1555,5.1321,5.191,5.1004,4.8871,4.5626,4.448,4.477,4.4139,4.4309,4.4838,4.4421,4.4118,0.0,0.0,0.0,0.0,0.0,0.0,0.0,4.9576,5.2123,5.5044,5.6647,6.1112,6.6357,7.0218,7.5938,8.1472,8.4239,8.7616,9.0456,9.1298,9.1444,9.0672,8.8118,8.9928,9.1592,9.0324,9.1034,9.1913,9.2076,9.211,9.211,9.211,9.211,9.211,9.211,9.211,9.211,9.211,9.211,9.211,9.211,9.211,9.211,9.211,9.211,9.211,9.211,9.211,9.211,9.211,9.211,9.211,9.211,9.211,9.211,9.211,9.211,9.211,9.211,9.211,9.211,9.211,9.211,9.211,9.211,9.211,9.211,9.211,9.211,9.211,9.211,0.0,0.0,0.0,0.0,0.0,0.0,0.0,0.0,3.49,3.4115,3.4686,3.5213,3.5213,3.5935,0.0,0.0,3.7834,3.8176,3.8401,3.9127,4.0169,4.1474,4.2095,4.2469,4.2558,4.1882,4.1148,4.0408,4.3316,4.4945,4.5437,4.9377,5.1395,5.1805,5.2639,5.1395,4.8604,4.6853,4.5634,4.4914,4.4914,4.4914,4.4838,4.4421,4.3777,4.3074,4.3216,0.0,0.0,0.0,0.0,0.0,0.0,0.0,5.4775,5.6114,6.1009,6.7109,7.226,7.7439,8.2388,8.6544,8.9913,9.218,9.2184,9.2169,9.1626,8.9838,9.0893,9.1855,9.0921,9.1488,9.211,9.211,9.211,9.211,9.211,9.211,9.211,9.211,9.211,9.211,9.211,9.211,9.211,9.211,9.211,9.211,9.211,9.211,9.211,9.211,9.211,9.211,9.211,9.211,9.211,9.211,9.211,9.211,9.211,9.211,9.211,9.211,9.211,9.211,9.211,9.211,9.211,9.211,9.211,9.211,9.211,9.211,9.211,9.211,0.0,0.0,0.0,0.0,0.0,0.0,0.0,0.0,0.0,3.532,3.532,3.5427,3.5427,3.6006,3.655,0.0,0.0,0.0,3.8093,3.941,4.0889,4.2454,4.2039,4.19,4.2115,4.1299,4.0712,4.0317,4.1719,4.3392,4.5407,4.8483,5.072,5.2222,5.2639,5.1206,4.8445,4.7725,4.6285,4.4535,4.5103,4.499,4.4459,4.4308,4.3392,4.2208,4.2408,4.2967,4.3833,4.536,0.0,0.0,0.0,0.0,5.4155,5.4446,5.9961,6.7107,7.2268,7.7937,8.3754,8.9387,9.2115,9.3159,9.2304,9.211,9.211,9.211,9.211,9.211,9.211,9.211,9.211,9.211,9.211,9.211,9.211,9.211,9.211,9.211,9.211,9.211,9.211,9.211,9.211,9.211,9.211,9.211,9.211,9.211,9.211,9.211,9.211,9.211,9.211,9.211,9.211,9.211,9.211,9.211,9.211,9.211,9.211,9.211,9.211,9.211,9.211,9.211,9.211,9.211,9.211,9.211,9.211,9.211,9.211,9.211,0.0,0.0,0.0,0.0,0.0,0.0,0.0,0.0,0.0,0.0,3.5828,3.6221,3.6221,3.6328,3.6764,3.7666,3.7844,3.7967,3.8085,0.0,0.0,4.0649,4.14,4.1907,4.2096,4.1305,4.1284,4.2066,4.2293,4.4004,4.7119,4.9014,5.041,5.1312,4.9962,4.8711,4.7346,4.3739,4.2407,4.2672,4.2103,4.2217,4.2672,4.1952,4.1573,4.1379,4.1574,4.1771,4.23,4.4862,4.5935,0.0,0.0,0.0,4.9941,5.1385,5.4726,5.9073,6.4179,7.4644,8.5141,8.9672,9.2115,9.3159,9.2304,9.211,9.211,9.211,9.211,9.211,9.211,9.211,9.211,9.211,9.211,9.211,9.211,9.211,9.211,9.211,9.211,9.211,9.211,9.211,9.211,9.211,9.211,9.211,9.211,9.211,9.211,9.211,9.211,9.211,9.211,9.211,9.211,9.211,9.211,9.211,9.211,9.211,9.211,9.211,9.211,9.211,9.211,9.211,9.211,9.211,9.211,9.211,9.211,9.211,9.211,9.211,0.0,0.0,0.0,0.0,0.0,0.0,0.0,0.0,0.0,0.0,0.0,3.6399,3.6399,3.6399,3.6577,3.7014,3.7586,3.7986,3.8146,3.8243,3.8779,3.9855,4.0022,4.0418,4.1182,4.0414,4.0572,4.1725,4.1725,4.3704,4.7542,4.8264,4.9542,5.1123,4.8932,4.7232,4.5862,4.3587,4.2255,4.1725,4.1838,4.2937,4.4276,4.2101,4.2123,4.3156,4.1516,4.1275,4.1983,4.3843,4.4854,4.5541,4.6863,0.0,0.0,0.0,5.2379,5.6116,6.4574,7.4755,8.4029,8.8341,9.0672,9.2115,9.2692,9.2071,9.1527,9.1993,9.211,9.211,9.211,9.211,9.211,9.211,9.211,9.211,9.211,9.211,9.211,9.211,9.211,9.211,9.211,9.211,9.211,9.211,9.211,9.211,9.211,9.211,9.211,9.211,9.211,9.211,9.211,9.211,9.211,9.211,9.211,9.211,9.211,9.211,9.2072,9.201,9.201,9.201,9.201,9.201,9.205,9.211,9.211,9.211,9.211,9.211,9.211,9.211,0.0,0.0,0.0,0.0,0.0,0.0,0.0,0.0,0.0,0.0,0.0,3.6684,3.6684,0.0,0.0,0.0,3.739,3.7791,3.7738,3.7411,3.7736,3.8907,3.8795,3.9187,4.0161,3.9643,3.9964,4.1194,4.1383,4.3815,4.8248,4.8248,4.9803,5.243,4.92,4.6847,4.5141,4.3891,4.2786,4.1914,4.271,4.418,4.5752,4.4161,4.4744,4.6042,4.2919,4.2202,4.2851,4.3337,4.3953,4.4673,4.5854,4.6646,0.0,0.0,0.0,5.4488,6.4691,7.2627,7.9437,8.5471,8.8069,8.9934,9.2731,9.2037,9.1066,9.1915,9.211,9.211,9.211,9.211,9.211,9.211,9.211,9.211,9.211,9.211,9.211,9.211,9.211,9.211,9.211,9.211,9.211,9.211,9.211,9.211,9.211,9.211,9.211,9.211,9.211,9.211,9.211,9.211,9.211,9.211,9.211,9.211,9.211,9.211,9.2044,9.1888,9.1918,9.1936,9.1936,9.1936,9.2027,9.211,9.211,9.211,9.211,9.211,9.211,9.211,0.0,0.0,0.0,0.0,0.0,0.0,0.0,0.0,0.0,0.0,0.0,3.7559,3.7559,3.7559,3.7559,3.7559,3.7604,3.7292,3.6541,3.7353,3.7634,3.7148,3.8128,0.0,3.9366,3.9521,4.0129,4.1194,4.1952,4.4954,4.9974,4.9974,5.2247,5.6091,5.1078,4.7814,4.5975,4.3512,4.2899,4.3625,4.4459,4.494,4.5496,4.8488,4.9842,4.9691,4.6491,4.5406,4.5297,4.3933,4.3555,4.3948,4.567,4.6217,4.6451,0.0,0.0,0.0,6.0912,6.5156,6.9957,8.0715,8.4068,8.6243,9.2071,9.2037,9.1066,9.1915,9.211,9.211,9.211,9.211,9.211,9.211,9.211,9.211,9.211,9.211,9.211,9.211,9.211,9.211,9.211,9.211,9.211,9.211,9.211,9.211,9.211,9.211,9.211,9.211,9.211,9.211,9.211,9.211,9.211,9.211,9.211,9.211,9.211,9.211,9.2044,9.1894,9.2011,9.2099,9.2099,9.2099,9.2104,9.211,9.211,9.211,9.211,9.211,9.211,9.211,0.0,0.0,0.0,0.0,0.0,0.0,0.0,0.0,0.0,0.0,0.0,0.0,0.0,3.7595,3.7595,3.7595,3.7265,3.6466,3.5131,3.658,3.7128,3.6383,3.7993,3.9027,3.9298,3.9496,4.014,4.1194,4.0929,4.3209,4.7793,4.7842,4.9591,5.2596,5.0677,4.9143,4.7844,4.4745,4.3297,4.3531,4.8184,5.1355,5.3402,5.4227,5.5929,0.0,0.0,0.0,0.0,5.4002,5.2093,4.8668,4.9294,4.7971,4.6378,4.7221,4.9303,5.2265,5.663,6.1316,6.654,7.3262,7.8046,8.2126,8.5938,8.8031,8.9429,9.0245,9.1333,9.211,9.211,9.211,9.211,9.211,9.211,9.211,9.211,9.211,9.211,9.211,9.211,9.211,9.211,9.211,9.211,9.211,9.211,9.211,9.211,9.211,9.211,9.211,9.211,9.211,9.211,9.211,9.211,9.211,9.211,9.211,9.211,9.211,9.2083,9.205,9.2088,9.2066,9.1948,9.1824,9.193,9.211,9.211,9.211,9.211,9.211,9.211,9.211,0.0,0.0,0.0,3.7595,0.0,3.7595,3.7595,3.7595,3.7595,3.7595,0.0,0.0,0.0,0.0,3.799,3.7775,3.7413,3.6616,3.5291,3.6724,3.7319,3.653,3.818,3.9175,3.9401,3.9593,4.0047,4.0772,4.0468,4.2319,4.6106,4.6723,4.841,5.0914,5.0038,4.9729,4.9733,0.0,0.0,4.538,0.0,5.4219,5.5821,0.0,0.0,0.0,0.0,0.0,0.0,0.0,5.8501,5.3736,5.2877,4.9449,4.591,4.6794,4.8663,5.0963,5.3198,5.7144,6.1956,6.7668,7.1661,7.5715,8.1746,8.4884,8.7098,8.9079,9.1138,9.2459,9.2148,9.211,9.211,9.211,9.211,9.211,9.211,9.211,9.211,9.211,9.211,9.211,9.211,9.211,9.211,9.211,9.211,9.211,9.211,9.211,9.211,9.211,9.211,9.211,9.211,9.211,9.211,9.211,9.211,9.211,9.211,9.211,9.211,9.2104,9.2066,9.2027,9.1942,9.1818,9.1885,9.211,9.211,9.211,9.211,9.211,9.211,9.211,0.0,3.7631,3.7631,3.7595,3.7631,3.7631,3.7595,3.7631,3.764,3.7649,0.0,0.0,0.0,0.0,0.0,3.8218,3.8171,3.7845,3.7027,3.7942,3.8226,3.7558,3.8663,3.9421,3.9593,3.9811,3.99,3.9905,4.0745,4.2558,4.5209,4.6887,4.9104,5.163,4.9294,4.9447,5.135,0.0,4.8985,4.9302,0.0,5.3181,5.2284,0.0,0.0,0.0,6.4541,6.4982,0.0,6.4616,0.0,0.0,0.0,0.0,4.5089,4.5944,4.7413,4.9164,0.0,0.0,0.0,6.4056,6.5,6.7155,7.974,8.2674,8.3995,8.8458,9.1371,9.2925,9.2265,9.2148,9.2148,9.211,9.211,9.211,9.211,9.211,9.211,9.211,9.211,9.211,9.211,9.211,9.211,9.211,9.211,9.211,9.211,9.211,9.211,9.211,9.211,9.211,9.211,9.211,9.211,9.211,9.211,9.211,9.211,9.2104,9.2104,9.2099,9.1936,9.1954,9.211,9.2104,9.2104,9.211,9.211,9.211,9.211,9.211,9.211,9.211,3.7595,3.8085,3.829,3.7693,3.8085,3.8255,3.7702,3.8223,3.8753,0.0,0.0,0.0,0.0,0.0,0.0,3.9591,4.0162,3.9468,3.6962,3.8204,3.8745,3.7973,3.8965,3.9557,3.9593,3.9811,3.9938,4.0022,4.0288,4.1172,4.2646,4.3785,4.5424,4.7408,4.7445,4.7758,4.8225,4.6546,0.0,4.9251,5.6433,6.0768,0.0,0.0,0.0,0.0,0.0,7.4522,7.3879,0.0,7.1122,6.1218,0.0,0.0,4.5089,0.0,0.0,0.0,4.9312,0.0,0.0,0.0,0.0,0.0,6.9585,7.253,7.6298,8.4962,8.6826,8.8147,9.2265,9.3042,9.2848,9.2187,9.211,9.211,9.211,9.211,9.211,9.211,9.211,9.211,9.211,9.211,9.211,0.0,9.211,9.211,9.211,9.211,9.211,9.211,9.211,9.211,9.211,9.211,9.211,9.211,9.211,9.211,9.2104,9.1983,9.2027,9.2099,9.1805,9.1831,9.2099,9.2016,9.1994,9.211,9.211,9.211,9.211,9.211,9.211,9.211,3.8121,3.8719,3.9102,3.8647,3.9504,4.0042,3.9324,4.0085,4.0691,0.0,0.0,0.0,0.0,0.0,0.0,4.1451,4.1501,4.0679,3.8486,3.902,3.9208,3.8758,3.9391,3.9749,3.9749,3.9895,4.0001,4.0106,4.0114,4.0482,4.1148,4.2075,4.3099,4.4214,4.4807,4.547,4.606,0.0,0.0,0.0,5.786,0.0,0.0,7.2049,7.5059,0.0,0.0,0.0,7.8663,8.2882,7.6751,0.0,0.0,0.0,0.0,0.0,0.0,0.0,0.0,0.0,5.2341,5.3559,0.0,0.0,6.5531,6.878,7.3278,8.3572,8.5583,8.6787,9.0983,9.1216,9.089,9.1379,9.149,9.1623,9.2021,9.211,9.211,9.211,9.211,9.211,9.211,9.211,9.211,9.211,9.211,9.211,9.211,9.211,9.211,9.211,9.211,9.211,9.211,9.211,9.211,9.211,9.211,9.211,9.2104,9.2039,9.2016,9.2027,9.1799,9.1786,9.1873,9.1793,9.1912,9.2104,9.2055,9.2066,9.211,9.211,9.211,9.211,0.0,3.9478,4.0078,4.0126,4.156,4.2494,4.1981,4.2759,4.3222,0.0,4.3705,0.0,0.0,0.0,0.0,0.0,4.2755,4.1843,4.0743,4.0102,3.9742,3.9623,3.9909,3.9998,3.9916,4.0147,4.0208,4.0147,4.0215,4.0343,4.0541,4.1338,4.1786,4.1964,4.2041,4.2931,4.4381,4.4014,0.0,5.3065,5.8207,6.0885,0.0,0.0,7.4583,7.3445,8.0987,8.2376,8.1088,8.3897,7.9298,0.0,0.0,0.0,0.0,0.0,4.8842,0.0,0.0,0.0,0.0,0.0,0.0,0.0,6.454,6.7777,7.1683,8.1774,8.432,8.5408,8.7569,8.6792,8.6485,8.8466,8.9484,9.0483,9.1761,9.1933,9.1938,9.1949,9.1877,9.1915,9.2226,9.2148,9.211,9.211,9.211,9.211,9.211,9.211,9.211,9.211,9.211,9.2099,9.2088,9.2099,9.2099,9.2088,9.2099,9.211,9.211,9.2094,9.2039,9.1906,9.1875,9.1773,9.1641,9.1593,9.1773,9.2022,9.1924,9.1954,9.2088,9.2104,9.211,9.211,3.8816,4.0085,4.1273,4.1479,4.3497,4.4958,4.4413,4.5152,4.6091,4.683,4.7964,0.0,0.0,0.0,0.0,0.0,4.5804,4.4134,4.128,4.0974,4.0575,3.9888,4.0588,4.0733,4.0076,4.0839,4.0936,4.0329,4.041,4.0523,4.0661,4.094,4.1095,4.1122,4.1262,4.1482,4.1992,4.4608,0.0,5.5011,5.9498,0.0,7.3238,7.8728,8.2127,8.4283,8.6604,8.7581,8.678,8.0,7.6921,7.4077,0.0,0.0,0.0,5.4053,0.0,0.0,0.0,0.0,0.0,0.0,0.0,0.0,0.0,5.8915,6.1628,7.0518,7.14,7.2157,7.7287,7.8474,7.8426,7.7549,8.251,8.7534,9.0477,9.0871,9.0912,9.105,9.0439,9.0828,9.2925,9.2498,9.211,9.211,9.211,9.211,9.211,9.211,9.211,9.211,9.211,9.2061,9.1924,9.2061,9.2061,9.1924,9.2061,9.211,9.2104,9.1971,9.1966,9.2061,9.178,9.1793,9.1977,9.1603,9.1559,9.1689,9.185,9.19,9.1936,9.2072,9.211,9.211,4.0193,4.1571,4.3147,4.4264,4.5929,4.7231,4.751,4.8402,4.9262,4.9942,0.0,0.0,0.0,0.0,0.0,0.0,0.0,0.0,4.1952,4.1421,4.0815,3.9938,4.0397,4.0728,4.0817,4.0917,4.1045,4.1161,4.0822,4.0712,4.079,4.0873,4.2094,4.4112,4.2422,4.3145,4.5735,4.7842,5.222,5.8123,6.2424,0.0,7.6297,8.1921,8.5104,8.6819,8.8534,8.943,8.8767,8.187,7.8714,0.0,0.0,6.5601,6.2627,0.0,5.6489,5.5848,0.0,0.0,0.0,5.3273,0.0,0.0,0.0,0.0,5.9338,6.7482,6.7439,6.74,7.2075,7.2567,7.2509,7.334,7.8091,8.1929,8.2787,8.8464,9.2557,9.2721,9.2255,9.251,9.3897,9.3181,9.2471,9.2143,9.211,9.211,9.211,9.211,9.211,9.211,9.211,9.2077,9.1983,9.2077,9.2077,9.1983,9.2077,9.211,9.2104,9.2044,9.1983,9.1971,9.1805,9.1786,9.1824,9.153,9.1446,9.153,9.1603,9.168,9.176,9.1936,9.1983,9.1983,4.1463,4.2739,4.4564,4.6396,4.8234,4.9734,5.0688,5.1645,5.2376,5.2762,0.0,0.0,0.0,0.0,0.0,0.0,0.0,0.0,4.3553,4.2642,4.1883,4.1163,4.0649,4.0993,4.226,4.1312,4.1096,4.1689,4.1095,4.0849,4.0909,4.0921,4.2912,4.6398,4.4416,4.5954,5.0184,5.2007,0.0,6.2177,0.0,7.1058,7.5796,8.3351,8.5723,8.5465,8.9043,9.0203,8.9333,8.471,8.1663,7.9004,7.4572,7.0171,0.0,0.0,0.0,0.0,0.0,0.0,0.0,0.0,0.0,5.4375,0.0,0.0,0.0,0.0,6.447,6.3955,6.6696,6.6202,6.6151,6.8625,7.2734,0.0,0.0,8.3463,0.0,9.1011,9.1717,9.2458,9.3082,9.2667,9.2314,9.2266,9.1656,9.1501,9.1961,9.2,9.2011,9.2072,9.2072,9.2022,9.2,9.2022,9.2022,9.2,9.2022,9.2088,9.211,9.211,9.2055,9.1924,9.1924,9.185,9.1666,9.1515,9.1423,9.14,9.14,9.1477,9.1571,9.176,9.1844,9.1844,4.0899,4.2166,4.3957,4.5401,4.9585,5.2912,5.3414,5.407,5.4822,0.0,0.0,0.0,0.0,0.0,0.0,0.0,0.0,0.0,4.729,4.6262,4.5773,4.5658,4.2934,4.2603,4.5077,4.3033,4.1579,4.0934,4.09,4.09,4.0909,4.1001,4.1731,4.3031,4.6439,4.8747,5.0389,5.5819,6.1596,0.0,7.2655,7.3703,0.0,8.3369,8.4765,8.2348,8.959,9.1664,9.0069,0.0,8.358,8.3235,0.0,7.1924,7.3352,6.2265,0.0,0.0,0.0,0.0,0.0,0.0,5.6153,0.0,0.0,0.0,5.539,5.4706,0.0,0.0,0.0,0.0,0.0,0.0,0.0,0.0,6.6469,7.3379,7.8328,7.7766,8.165,8.5217,8.7408,8.8804,9.0442,9.2647,8.9997,8.9262,9.1532,9.1648,9.1747,9.1906,9.1906,9.185,9.1648,9.1812,9.185,9.1648,9.185,9.1966,9.211,9.211,9.2099,9.2088,9.2088,9.1983,9.185,9.1673,9.153,9.14,9.14,9.1407,9.1446,9.1564,9.1621,9.1621,4.132,4.3106,4.4935,4.6149,4.9128,5.1921,5.3622,5.5878,5.7294,0.0,0.0,0.0,0.0,0.0,0.0,0.0,0.0,5.6195,0.0,0.0,0.0,5.2164,4.5937,4.4387,4.8522,4.4381,4.2009,4.166,4.1219,4.1038,4.104,4.1541,4.3567,4.6941,5.1209,5.4713,5.7836,6.3861,6.616,0.0,0.0,0.0,0.0,8.2497,8.6364,8.582,9.0624,9.2139,9.1457,0.0,8.5803,0.0,0.0,0.0,0.0,0.0,0.0,0.0,0.0,0.0,0.0,0.0,0.0,0.0,5.3475,0.0,5.2962,0.0,0.0,0.0,0.0,0.0,0.0,0.0,5.8389,0.0,0.0,0.0,7.115,0.0,0.0,0.0,8.4847,8.5031,8.6576,9.0495,8.7157,8.65,8.995,9.1058,9.1627,9.1727,9.1727,9.17,9.1593,9.17,9.17,9.16,9.178,9.1912,9.1966,9.1966,9.1966,9.196,9.1849,9.178,9.1714,9.1567,9.1515,9.1491,9.1431,9.1336,9.1308,9.1439,9.1521,9.1585,4.1989,4.3601,4.5183,4.6567,4.8751,5.1215,5.3879,5.6453,5.8048,0.0,0.0,0.0,6.5732,6.081,0.0,0.0,6.4883,6.1987,0.0,0.0,5.6927,5.9859,5.0504,0.0,5.2781,4.7028,4.3378,4.2315,4.1499,4.1226,4.1422,4.2042,4.4523,4.8785,5.3725,5.8604,6.3558,6.9807,7.1554,7.0536,7.6182,7.5955,7.3181,8.2241,8.6844,8.8763,9.1297,9.1823,9.1288,9.0956,8.7339,0.0,8.6601,0.0,0.0,0.0,0.0,0.0,6.3668,0.0,0.0,0.0,0.0,0.0,0.0,0.0,0.0,0.0,0.0,0.0,0.0,0.0,0.0,0.0,0.0,5.6993,0.0,0.0,0.0,0.0,0.0,0.0,0.0,8.0477,8.1845,8.7116,8.3692,8.3624,8.8766,9.0146,9.1028,9.1535,9.1535,9.1535,9.1535,9.1535,9.1535,9.1535,9.1687,9.1792,9.1831,9.1831,9.1831,9.1825,9.1641,9.1571,9.1528,9.1492,9.1507,9.1521,9.1446,9.1358,9.1258,9.1352,9.147,9.1513,4.2798,4.3072,4.3823,4.5881,4.9081,5.2221,5.4874,5.5465,5.6159,0.0,0.0,0.0,0.0,0.0,0.0,0.0,0.0,6.9126,6.9999,0.0,6.2905,6.881,5.7176,5.2956,0.0,5.1699,4.6343,4.2315,4.1499,4.1499,4.2279,4.2275,4.3241,4.5264,5.2022,5.8362,6.4393,7.1315,7.8426,8.5148,8.5389,8.5827,8.6044,0.0,8.4794,8.884,9.1369,0.0,0.0,8.7631,8.7724,0.0,0.0,0.0,0.0,0.0,0.0,0.0,0.0,0.0,0.0,6.5756,0.0,0.0,0.0,0.0,5.3672,0.0,0.0,0.0,0.0,0.0,0.0,0.0,0.0,0.0,0.0,0.0,0.0,0.0,0.0,0.0,0.0,7.4608,7.6511,0.0,7.9603,8.0877,8.8498,8.8818,8.958,9.1361,9.1407,9.1407,9.1407,9.1407,9.1407,9.1407,9.1407,9.15,9.16,9.16,9.16,9.16,9.16,9.1513,9.1415,9.1528,9.1506,9.1407,9.14,9.1392,9.1392,9.1392,9.14,9.1384,4.489,4.4788,4.4477,4.461,4.747,5.0849,5.4125,5.6184,0.0,0.0,0.0,0.0,0.0,7.2249,7.2978,0.0,0.0,7.6328,7.7608,7.2672,0.0,0.0,0.0,5.9437,0.0,5.5306,4.9298,4.4035,4.3762,4.3736,4.4033,4.4009,4.5233,4.7703,5.5143,6.207,6.8638,7.4972,7.9508,0.0,0.0,8.3372,8.3922,0.0,8.8066,8.8693,9.1257,9.1642,0.0,9.0547,8.9579,8.8365,8.7687,8.4383,8.0797,8.1104,7.8557,7.5964,0.0,0.0,7.7124,7.2648,0.0,0.0,0.0,0.0,0.0,0.0,0.0,0.0,0.0,0.0,0.0,0.0,0.0,0.0,0.0,0.0,0.0,0.0,0.0,0.0,0.0,0.0,0.0,0.0,7.6637,0.0,8.5945,8.7935,8.9583,9.1228,9.1258,9.1258,9.1258,9.1258,9.1258,9.1266,9.1454,9.1491,9.1485,9.155,9.1543,9.1477,9.136,9.1317,9.1275,9.1415,9.1469,9.1521,9.1521,9.168,9.1799,9.1392,9.1185,9.1056,4.7014,4.6697,4.602,4.572,4.8062,5.1508,5.5984,5.8711,0.0,0.0,6.732,0.0,7.7385,0.0,7.7438,0.0,8.3294,8.1935,8.3479,7.94,0.0,8.1923,7.2633,0.0,0.0,0.0,5.4875,4.8986,4.6856,4.5791,4.5786,4.5504,4.6555,4.8923,5.4846,6.1768,6.9426,7.5459,7.9718,0.0,0.0,8.4068,0.0,0.0,8.8536,8.6593,0.0,9.1826,9.0919,9.1796,9.1071,9.0068,9.1677,8.8395,8.4405,8.6677,8.4418,8.1605,8.3547,8.4403,0.0,7.9266,7.566,0.0,6.4832,0.0,5.9759,0.0,0.0,0.0,0.0,0.0,0.0,0.0,0.0,0.0,0.0,0.0,0.0,0.0,0.0,0.0,0.0,0.0,0.0,0.0,0.0,0.0,0.0,8.6623,8.8798,9.1565,9.1364,9.121,9.121,9.121,9.121,9.121,9.1368,9.1415,9.135,9.1423,9.1439,9.1392,9.1317,9.13,9.1366,9.1439,9.1454,9.143,9.1369,9.1482,9.1655,9.1431,9.1214,9.1056,4.905,4.8767,4.8534,4.9176,5.0966,5.4332,6.0249,0.0,6.4877,0.0,7.0824,7.3917,7.6369,7.6914,8.0163,8.7895,8.6471,8.5856,8.7454,8.3888,0.0,0.0,8.0601,7.7485,7.8098,0.0,0.0,0.0,5.0621,4.7656,4.7567,4.6719,4.7204,4.8842,5.1371,5.7725,6.6936,7.2806,7.945,8.601,8.6948,8.8152,8.939,8.9623,8.6515,8.3097,9.0672,9.1333,8.9002,9.141,9.2226,9.2213,9.2239,9.2242,9.2265,9.2336,9.2908,9.3023,9.0638,8.8755,8.7033,8.5281,8.0388,0.0,0.0,0.0,7.0813,0.0,0.0,0.0,0.0,0.0,0.0,0.0,0.0,0.0,0.0,0.0,0.0,0.0,0.0,0.0,0.0,0.0,0.0,0.0,0.0,0.0,0.0,8.4821,8.7071,9.2142,9.1518,9.1095,9.1095,9.1095,9.1095,9.1095,9.118,9.1219,9.121,9.1227,9.1283,9.14,9.1407,9.15,9.1593,9.1593,9.1392,9.1124,9.0965,9.0883,9.0938,9.1392,9.1476,9.1368,5.1,5.2231,5.3214,5.3472,5.5453,5.8374,6.2455,0.0,0.0,0.0,7.4761,7.7248,8.2289,8.3302,8.4796,8.7684,8.6796,0.0,0.0,0.0,0.0,8.7557,8.4233,8.1548,7.9964,7.2153,0.0,6.0285,5.3646,5.037,5.027,4.8828,4.8995,5.06,5.1905,5.8076,6.7674,7.1136,7.9139,8.9628,9.1144,9.0095,8.7997,0.0,8.9196,8.5505,9.1294,9.3236,9.3164,9.3824,9.4019,9.3907,9.3288,9.3104,9.3114,9.3114,9.2848,9.2568,9.2565,9.1743,9.051,8.8866,8.4835,8.0649,0.0,0.0,0.0,0.0,0.0,0.0,0.0,0.0,0.0,0.0,0.0,0.0,0.0,0.0,0.0,0.0,0.0,0.0,0.0,0.0,0.0,0.0,0.0,0.0,0.0,0.0,8.3915,8.9496,8.944,8.9325,8.9325,8.9325,8.9325,8.9372,9.0692,9.13,9.1219,9.1407,9.147,9.14,9.1522,9.1557,9.1593,9.1593,9.1564,9.1438,9.1035,9.0883,9.0901,9.1056,9.1121,9.1187,5.2518,5.4774,5.6668,5.6787,6.0394,6.4179,6.6809,6.972,0.0,7.7568,7.9796,0.0,8.4112,8.6708,8.8512,8.9121,8.9087,0.0,8.7956,0.0,0.0,8.881,8.8516,8.7363,8.527,7.9143,0.0,6.6081,0.0,5.4878,5.1833,5.015,5.003,5.124,5.212,5.695,6.4881,7.1559,7.9251,8.7142,8.9628,8.959,0.0,9.0789,9.0595,8.9429,9.2343,9.3708,9.4135,9.4135,9.4368,9.4601,9.4135,9.398,9.3902,9.3508,9.3342,9.3332,9.3448,9.337,9.2995,9.17,8.9506,8.7012,8.4483,8.2513,8.1147,0.0,7.9346,7.8548,0.0,0.0,0.0,0.0,0.0,0.0,0.0,0.0,0.0,0.0,0.0,0.0,0.0,0.0,0.0,0.0,0.0,0.0,0.0,0.0,8.1744,8.8987,8.8517,8.7948,8.7555,8.8671,8.9056,8.8718,9.0466,9.1266,9.1219,9.1415,9.1485,9.1407,9.1528,9.1593,9.1593,9.1521,9.1431,9.1258,9.0743,9.0596,9.0656,9.0837,9.1078,9.1323,5.4066,5.6848,5.9178,5.9185,6.4933,7.0117,0.0,7.5818,0.0,8.1078,0.0,8.6604,8.45,8.8359,9.1171,9.1288,0.0,9.1444,8.9924,9.1249,9.1469,9.0121,9.2193,9.28,9.1586,8.7106,0.0,0.0,0.0,5.9531,5.2587,5.0993,5.0586,5.1241,5.2207,5.6047,6.2507,7.3618,8.0222,8.3485,8.6578,8.867,8.9952,8.982,9.1173,9.3154,9.3154,9.3331,9.3586,9.3586,9.4057,9.4679,9.4562,9.4601,9.4524,9.3664,9.3941,9.4368,9.3625,9.3863,9.4213,9.3547,9.3392,9.2801,9.0583,8.9631,8.9592,9.0959,8.6041,8.2913,8.7542,0.0,0.0,0.0,0.0,0.0,0.0,0.0,0.0,0.0,0.0,0.0,0.0,0.0,0.0,0.0,0.0,0.0,0.0,0.0,7.946,8.8632,8.7709,8.6709,8.594,8.8436,8.9282,8.8564,9.0246,9.1073,9.1118,9.1189,9.1273,9.136,9.1484,9.1571,9.1585,9.1462,9.1172,9.0743,9.0291,9.0176,9.0326,9.0676,9.1129,9.1571,5.6834,5.9165,6.0828,6.0165,6.6319,7.2163,7.4523,7.8046,8.1556,8.4737,8.7061,8.8525,8.8802,9.0222,9.1488,9.2192,9.1097,0.0,0.0,0.0,0.0,9.0953,9.1382,9.2167,9.3304,8.7744,8.1263,0.0,0.0,6.0156,5.2589,5.1573,5.112,5.128,5.2813,5.9879,7.105,7.7459,8.4068,9.039,9.1577,9.2196,9.2378,9.1567,9.152,9.1907,9.1907,9.3031,9.4485,9.4485,9.4562,9.4562,9.3863,9.4135,9.4524,9.3664,9.3508,9.3586,9.343,9.3003,9.2692,9.3275,9.3392,9.3286,9.284,9.3195,9.3472,9.304,9.2472,9.1277,8.8765,0.0,0.0,0.0,0.0,0.0,0.0,0.0,0.0,0.0,0.0,0.0,0.0,0.0,0.0,0.0,0.0,0.0,0.0,0.0,7.4199,0.0,8.4747,0.0,0.0,0.0,8.8163,8.7671,8.9434,9.043,9.0694,9.0558,9.0685,9.1003,9.1116,9.1346,9.1585,9.1462,9.094,9.0236,9.0136,9.0114,9.0143,9.0326,9.0836,9.1462,6.0786,6.1964,6.3221,6.4638,6.9412,7.4377,7.8269,8.2257,8.5382,8.707,8.8437,8.9375,8.9838,9.1041,9.2003,9.2449,9.1742,9.143,9.1899,9.1938,9.2297,9.3174,9.3213,0.0,9.3854,9.1439,8.5073,7.4559,0.0,6.3592,5.3235,5.1905,5.1255,5.1432,5.7146,6.3328,7.0067,7.9233,8.4987,8.8142,9.1147,9.2321,9.2276,9.1782,9.1593,9.1593,9.1593,9.2231,9.3167,9.3594,9.4109,9.4473,9.404,9.428,9.4601,9.4213,9.4057,9.4057,9.4057,9.343,9.2887,9.3314,9.3042,9.2848,9.3314,9.3353,9.3469,9.398,9.4057,9.232,8.6694,7.9116,0.0,0.0,0.0,0.0,0.0,0.0,0.0,0.0,0.0,0.0,0.0,0.0,0.0,0.0,0.0,0.0,0.0,0.0,7.2347,0.0,0.0,0.0,8.4209,0.0,8.7993,8.6484,8.896,9.0181,9.0355,9.0294,9.0346,9.0485,9.0628,9.0732,9.0837,9.0743,9.0387,8.9837,8.9837,8.9837,8.9873,9.0109,9.0317,9.0566,6.6187,6.6573,6.7531,7.025,7.354,7.7341,8.175,8.5956,8.8771,8.918,9.0009,9.0564,9.0583,9.1835,9.2695,9.2724,9.2566,9.2761,9.3426,9.3465,9.386,9.4726,9.4765,9.4648,9.4408,9.4876,8.9173,0.0,0.0,6.7443,5.5727,5.3819,5.3749,5.5514,6.2583,6.745,7.0973,8.0733,8.5294,8.6228,9.0042,9.155,9.1543,9.1513,9.1499,9.1499,9.1499,9.1499,9.1615,9.2318,9.3105,9.3795,9.3795,9.4058,9.434,9.4363,9.4369,9.4413,9.4635,9.4057,9.3392,9.3392,9.2887,9.2498,9.3003,9.2731,9.277,9.4135,9.4019,9.1747,8.5443,8.1531,0.0,0.0,0.0,0.0,0.0,0.0,0.0,0.0,0.0,0.0,0.0,0.0,0.0,0.0,0.0,0.0,7.1164,0.0,0.0,0.0,0.0,8.2447,8.2793,0.0,8.8152,8.6451,8.8759,8.9894,8.9976,9.0015,9.0003,8.9988,9.0094,9.0116,9.0091,9.0091,8.9909,8.9579,8.9579,8.9579,8.9616,8.9897,8.9873,8.9873,7.3818,7.4994,7.5608,7.5944,7.8862,8.1863,8.3868,8.7128,9.0025,9.1726,9.2691,9.3252,9.322,9.3378,9.3498,9.3504,9.2763,9.2334,9.2451,9.2451,9.2837,9.3688,9.3725,9.4427,9.5944,9.5281,9.1606,0.0,0.0,7.0031,6.1835,5.9347,6.1819,6.8307,6.7658,7.333,8.3405,8.3109,8.6487,9.2018,9.1601,9.1423,9.14,9.1283,9.1262,9.1262,9.1262,9.1262,9.1262,9.1339,9.1562,9.1853,9.1853,9.2408,9.3108,9.3194,9.327,9.3449,9.4457,9.4057,9.3392,9.3392,9.3353,9.3081,9.2382,9.277,9.3314,9.3469,9.4096,9.3203,8.8662,8.7497,8.4043,0.0,0.0,0.0,0.0,0.0,0.0,0.0,0.0,0.0,0.0,0.0,0.0,0.0,5.7615,0.0,0.0,0.0,0.0,7.88,7.833,7.8631,8.0131,8.5234,8.8182,8.9064,8.9074,8.928,8.9629,8.928,8.932,8.9642,8.9667,8.9837,9.0091,9.0091,8.9909,8.9579,8.9579,8.9579,8.9591,8.9629,8.9813,9.0057,7.8172,7.8396,7.8901,8.0955,8.247,8.434,8.7059,8.9507,9.1316,9.2094,9.2471,9.2717,9.2749,9.2756,9.2783,9.2802,9.2493,9.2532,9.3041,9.308,9.3468,9.4326,9.3897,9.4167,9.5374,9.5062,9.1933,0.0,0.0,0.0,6.804,6.4345,6.6065,7.2396,7.5365,7.9249,8.3782,8.7017,8.9615,9.1482,9.0867,9.0635,9.0645,9.0791,9.0829,9.0858,9.1109,9.121,9.121,9.121,9.1341,9.1492,9.1492,9.1753,9.2233,9.2798,9.3033,9.3302,9.4249,9.3964,9.3392,9.3392,9.3392,9.3159,9.2304,9.277,9.3392,9.3392,9.3664,9.3552,9.2343,8.9623,8.6515,8.3369,0.0,0.0,0.0,0.0,0.0,0.0,0.0,0.0,0.0,0.0,0.0,0.0,0.0,0.0,0.0,0.0,0.0,7.6022,0.0,8.2551,8.2488,8.5904,8.774,8.7977,8.8679,8.9088,8.9251,8.9075,8.9088,8.9251,8.9251,8.932,8.9439,8.9439,8.9373,8.9251,8.9251,8.9251,8.928,8.9728,8.9703,8.9503,8.3291,8.3097,8.3529,8.6205,8.6666,8.7487,8.9895,9.1294,9.211,9.211,9.211,9.2112,9.2182,9.2152,9.2195,9.2242,9.2249,9.2483,9.311,9.3149,9.3542,9.44,9.3854,0.0,9.4822,9.4527,9.2397,8.8395,8.1881,0.0,7.4826,7.0459,7.1811,7.8143,8.1933,8.4173,8.5382,8.9727,9.1151,9.044,9.0192,9.0091,9.0114,9.0377,9.0461,9.0492,9.0762,9.0877,9.0877,9.0877,9.0932,9.1068,9.127,9.1407,9.1623,9.2255,9.2542,9.2786,9.3723,9.3637,9.3303,9.3303,9.3303,9.3109,9.225,9.246,9.2947,9.3259,9.3303,9.3509,9.4207,9.1338,8.8618,8.7759,0.0,0.0,0.0,0.0,0.0,0.0,0.0,0.0,7.9614,0.0,0.0,0.0,0.0,0.0,0.0,0.0,0.0,0.0,0.0,0.0,8.318,8.5602,8.7163,8.7777,8.8582,8.8992,8.8992,8.8992,8.8992,8.8992,8.8992,8.8992,8.8992,8.8992,8.8992,8.8992,8.8992,8.8992,8.9075,8.9591,8.9439,8.9088,9.0017,9.0677,9.0949,9.1838,9.1993,9.2032,9.2071,9.211,9.211,9.211,9.211,9.211,9.211,9.211,9.211,9.2115,9.2115,9.2115,9.2115,9.2115,9.2503,0.0,0.0,9.383,9.4684,9.3673,9.349,9.431,0.0,0.0,8.2477,7.8154,8.0449,8.8055,8.6472,8.7829,9.1229,9.0456,9.0102,9.0102,9.0091,9.0091,9.0091,9.0091,9.0102,9.0102,9.0102,9.0102,9.0102,9.0102,9.0102,9.0236,9.0952,9.121,9.1215,9.139,9.14,9.1632,9.2654,9.2993,9.3096,9.3096,9.3096,9.2902,9.2082,9.1747,9.1919,9.291,9.3096,9.3172,9.337,9.3353,9.11,8.4267,0.0,0.0,0.0,0.0,0.0,0.0,7.1559,7.133,7.9751,6.8179,0.0,0.0,0.0,0.0,0.0,0.0,0.0,7.8184,7.6938,0.0,8.0512,8.3524,8.6544,8.9541,8.916,8.8992,8.8992,8.8992,8.8992,8.8992,8.8992,8.8992,8.8992,8.8992,8.8992,8.8992,8.8992,8.8992,8.8992,8.9006,8.9006,8.9006,9.1255,9.1682,9.176,9.2071,9.2466,9.2796,9.2796,9.322,9.351,9.351,9.351,9.351,9.351,9.2664,9.211,0.0,9.211,9.211,0.0,9.1994,9.2103,9.2375,9.2251,9.2481,9.3113,9.2782,9.2904,9.3508,0.0,8.3658,8.3547,8.3948,8.6384,9.0355,8.9238,8.9408,9.046,8.9963,8.9778,8.9753,8.9439,8.9335,8.9361,8.9641,8.9778,8.9777,8.9999,9.0091,9.0091,9.0091,9.0091,9.0136,9.0394,9.0623,9.081,9.0838,9.1121,9.1485,9.1771,9.1982,9.2094,9.2094,9.2527,9.2759,9.1901,9.1634,9.1536,9.1313,9.1707,9.2141,9.2318,9.2381,9.1317,8.7982,8.9157,0.0,8.1232,0.0,0.0,0.0,7.9116,8.0536,0.0,7.7851,0.0,0.0,0.0,0.0,0.0,0.0,0.0,0.0,8.2826,0.0,8.4449,8.5736,8.7311,8.9197,8.9061,8.8992,8.8992,8.8992,8.8992,8.8992,8.8992,8.8992,8.8992,8.8992,8.8992,8.8992,8.8992,8.8992,8.9075,8.9566,8.9604,8.9476,9.2124,9.2396,9.2512,9.2822,9.3213,9.351,9.351,9.3893,9.4184,9.4184,9.4184,9.4184,9.4184,9.3685,9.3204,9.2939,9.29,9.29,9.29,9.2516,9.2237,9.2078,9.1637,9.1507,9.171,9.1668,9.174,9.2043,8.8267,8.6347,8.6278,8.7894,8.9413,9.0692,9.0148,8.9837,8.9691,8.9464,8.9359,8.9333,8.9102,8.8992,8.9033,8.9291,8.9359,8.9386,8.9616,8.9703,8.9703,8.9703,8.9703,8.9703,8.9703,8.993,9.0258,9.0387,9.0664,9.0912,9.0912,9.1009,9.114,9.1314,9.177,9.2048,9.157,9.1462,9.1323,9.088,9.1166,9.1596,9.1754,9.1541,9.112,9.0508,9.1035,9.0003,8.5656,0.0,8.7385,0.0,0.0,0.0,0.0,8.2299,8.02,0.0,0.0,0.0,0.0,0.0,0.0,8.0594,8.5406,8.7503,8.6571,8.6866,8.7687,8.8992,8.8992,8.8992,8.8992,8.8992,8.8992,8.8992,8.8992,8.8992,8.8992,8.8992,8.8992,8.8992,8.8992,8.8992,8.9088,8.9691,8.9764,8.9679,9.283,9.2971,9.3195,9.4,9.4171,9.4195,9.4195,9.4296,9.4366,9.4366,9.4404,9.4443,9.4443,9.5092,9.5239,9.4481,9.4326,9.4232,9.4232,9.3398,9.2744,9.246,9.1634,9.1033,9.0694,9.0444,9.029,9.0192,9.0087,9.0011,9.0011,9.0011,8.9861,8.9541,8.9541,8.9371,8.8992,8.8992,8.9029,8.9067,8.9067,8.9067,8.9067,8.9067,8.9029,8.8992,8.8992,8.8992,8.8992,8.8992,8.8992,8.8992,8.8992,8.9265,8.9629,8.9979,9.0068,9.0091,9.0091,9.0182,9.0378,9.0762,9.0846,9.0922,9.1118,9.1192,9.1215,9.1266,9.1376,9.1508,9.155,9.1083,9.0938,9.1824,9.1306,9.0224,8.8588,9.0252,8.8387,0.0,0.0,0.0,8.2245,8.2954,8.4609,0.0,0.0,0.0,0.0,0.0,7.7555,8.4499,8.5514,8.6348,8.7209,8.7147,8.7774,8.8992,8.8992,8.8992,8.8992,8.8992,8.8992,8.8992,8.8992,8.8992,8.8992,8.8992,8.8992,8.8992,8.8992,8.8992,8.9047,8.9438,8.9604,8.9692,9.3836,9.3647,9.3503,9.3696,9.3936,9.4134,9.4134,9.5062,9.5795,9.5795,9.6385,9.6805,9.6805,9.6958,9.6996,9.6805,9.555,9.4737,9.4737,9.3552,9.2791,9.271,9.24,9.2059,9.1682,9.1014,9.0247,8.9322,8.9269,8.9267,8.9267,8.9267,8.9214,8.9143,8.9143,8.9088,8.8992,8.8992,8.9367,8.993,8.993,8.993,8.993,8.993,8.9517,8.8992,8.8992,8.8992,8.8992,8.8992,8.8992,8.8992,8.8992,8.9075,8.9238,8.9616,8.9909,9.0091,9.0091,9.0136,9.0154,9.028,9.0464,9.0694,9.0714,9.0971,9.1026,9.0377,9.1309,9.2062,9.1539,9.2381,9.3052,9.2852,9.2657,9.1706,8.9382,8.8959,8.8318,8.6636,8.631,8.7248,8.9915,9.0611,8.9456,0.0,0.0,8.5973,8.266,8.2356,8.4374,8.8949,8.9058,8.9135,8.9345,8.8821,8.8675,8.8992,8.8992,8.8992,8.8992,8.8992,8.8992,8.8992,8.8992,8.8992,8.8992,8.8992,8.8992,8.8992,8.8992,8.8992,8.9047,8.9438,8.974,9.0011,9.3955,9.3822,9.3808,9.4229,9.4447,9.4578,9.4578,9.5224,9.5864,9.6245,9.6689,9.7146,9.7552,9.7933,9.8135,9.8135,9.692,9.6135,9.6135,9.5041,9.4334,9.4194,9.3705,9.3112,9.2347,9.1894,9.1182,9.0132,9.0132,9.0132,9.0132,9.0132,9.0132,9.0132,9.0132,9.0132,9.0132,9.0132,9.0381,9.0794,9.0794,9.0794,9.0794,9.0794,9.0531,9.0081,8.9705,8.9555,8.948,8.9104,8.8992,8.8992,8.8992,8.8992,8.9047,8.9278,8.9426,8.9604,8.9604,8.9604,8.9654,8.9825,9.0114,9.0377,9.0377,9.0561,9.0568,9.0099,9.0759,9.1374,9.1356,9.1846,9.2457,9.3121,9.191,9.0632,8.992,8.8991,8.838,8.8197,8.8534,8.9394,9.0861,9.1538,9.0694,8.785,8.7791,0.0,8.5322,8.5835,8.7139,8.9183,8.9642,8.9789,8.9604,8.92,8.8992,8.8992,8.8992,8.8992,8.8992,8.8992,8.8992,8.8992,8.8992,8.8992,8.8992,8.8992,8.8992,8.8992,8.8992,8.8992,8.9047,8.9438,8.9801,9.0114,9.3847,9.3952,9.4144,9.4866,9.4969,9.4932,9.4932,9.516,9.5528,9.6211,9.6553,9.6958,9.7718,9.8401,9.8832,9.8832,9.8173,9.7781,9.7731,9.6832,9.6197,9.5887,9.518,9.4321,9.3272,9.3009,9.2446,9.1522,9.1522,9.1522,9.1522,9.1522,9.1522,9.1522,9.1522,9.1522,9.1522,9.1522,9.1559,9.1672,9.1672,9.1672,9.1672,9.1672,9.1634,9.1409,9.0681,9.0292,9.0104,8.9405,8.9104,8.8992,8.8992,8.8992,8.8992,8.8992,8.8992,8.8992,8.8992,8.8992,8.9088,8.9412,8.9764,9.0011,9.0011,9.0057,9.0091,9.0091,9.0205,9.0548,9.1362,9.1058,9.107,9.2239,9.0318,8.8769,8.9074,8.893,8.8386,8.7298,8.9102,9.0061,8.9075,8.973,9.0349,9.0704,8.9098,8.8604,8.9851,8.8558,8.7703,8.7532,8.887,8.9423,8.9006,8.8992,8.8992,8.8992,8.8992,8.8992,8.8992,8.8992,8.8992,8.8992,8.8992,8.8992,8.8992,8.8992,8.8992,8.8992,8.8992,8.8992,8.9047,8.9359,8.9715,9.0011,9.4875,9.4604,9.4436,9.4549,9.438,9.418,9.418,9.5318,9.6258,9.6371,9.7613,9.8554,9.8704,9.8817,9.8892,9.8892,9.878,9.8528,9.8207,9.704,9.6365,9.6306,9.6178,9.6036,9.5811,9.4474,9.3061,9.1522,9.1522,9.1522,9.1522,9.1522,9.1522,9.1522,9.1522,9.1522,9.1522,9.1522,9.1883,9.2521,9.2521,9.2521,9.2521,9.2521,9.2071,9.1484,9.1371,9.0832,9.0179,9.0081,8.9555,8.8992,8.8992,8.8992,8.8992,8.8992,8.8992,8.8992,8.8992,8.8992,8.9019,8.9088,8.9373,8.9679,8.9679,8.9897,9.0091,9.0091,9.0673,9.1435,9.226,9.2907,9.2149,8.8575,8.9349,8.8762,8.3967,8.6227,8.8192,8.7589,8.8842,8.9799,8.9878,9.038,9.0849,9.1236,9.0682,8.9902,8.9068,8.8848,8.8251,8.7132,8.8734,8.9423,8.9006,8.8992,8.8992,8.8992,8.8992,8.8992,8.8992,8.8992,8.8992,8.8992,8.8992,8.8992,8.8992,8.8992,8.8992,8.8992,8.8992,8.8992,8.9006,8.9075,8.9333,8.9679,9.4492,9.4366,9.4227,9.4227,9.4094,9.4,9.4,9.4624,9.5262,9.5698,9.6787,9.7725,9.8191,9.8642,9.8889,9.8889,9.8889,9.8809,9.8658,9.8087,9.7763,9.7763,9.7763,9.7538,9.7102,9.5901,9.4699,9.3498,9.3498,9.3272,9.2836,9.2836,9.2836,9.2836,9.2836,9.2836,9.2836,9.2836,9.3061,9.3385,9.3385,9.3385,9.3385,9.3385,9.3174,9.2799,9.2296,9.1883,9.1418,9.0479,8.9954,8.9555,8.9142,8.8992,8.8992,8.8992,8.8992,8.8992,8.8992,8.8992,8.8992,8.8992,8.9143,8.9291,8.9291,8.9412,8.9515,8.9515,8.9818,9.0347,9.1166,9.1632,9.1218,8.9019,8.9108,8.8318,8.5034,8.6518,8.7746,8.7345,8.8657,8.9579,8.9515,8.9688,9.0004,9.042,9.0069,8.9626,8.9258,8.9067,8.8699,8.8097,8.8864,8.9197,8.9006,8.8992,8.8992,8.8992,8.8992,8.8992,8.8992,8.8992,8.8992,8.8992,8.8992,8.8992,8.8992,8.8992,8.8992,8.8992,8.8992,8.8992,8.8992,8.8992,8.9227,8.9553,9.4,9.4,9.4,9.4,9.4,9.4,9.4,9.4151,9.4549,9.5375,9.6201,9.7027,9.7891,9.8529,9.8889,9.8889,9.8889,9.8889,9.8889,9.8889,9.8889,9.8889,9.8889,9.8529,9.7703,9.7065,9.6186,9.5187,9.5187,9.4774,9.4,9.4,9.4,9.4,9.4,9.4,9.4,9.4,9.4,9.4,9.4,9.4,9.4,9.4,9.4,9.3925,9.3235,9.2859,9.2521,9.1207,9.0517,9.0066,8.948,8.9142,8.8992,8.8992,8.8992,8.8992,8.8992,8.8992,8.8992,8.8992,8.8992,8.8992,8.8992,8.8992,8.8992,8.8992,8.8992,8.9254,9.0029,9.0179,8.9902,8.8938,8.8529,8.7733,8.6168,8.6829,8.7461,8.7449,8.8632,8.9358,8.9033,8.8992,8.9129,8.9425,8.9184,8.9143,8.9425,8.9184,8.8992,8.8992,8.8992,8.8992,8.8992,8.8992,8.8992,8.8992,8.8992,8.8992,8.8992,8.8992,8.8992,8.8992,8.8992,8.8992,8.8992,8.8992,8.8992,8.8992,8.8992,8.8992,8.8992,8.8992,8.9211,8.9436,9.4,9.4,9.4,9.4,9.4,9.4,9.4,9.4624,9.5413,9.6224,9.7065,9.7928,9.8701,9.8852,9.8889,9.8889,9.8889,9.8889,9.8889,9.8889,9.8889,9.8889,9.8889,9.8529,9.7703,9.7628,9.6802,9.5187,9.5187,9.4774,9.4,9.4,9.4,9.4,9.4,9.4,9.4,9.4,9.4,9.4,9.4,9.4,9.4,9.4,9.4,9.4,9.3925,9.3385,9.2671,9.2559,9.1456,9.0179,9.0142,8.9592,8.8992,8.8992,8.8992,8.8992,8.8992,8.8992,8.8992,8.8992,8.8992,8.8992,8.8992,8.8992,8.8992,8.8992,8.8992,8.9254,9.0029,9.0179,8.9027,8.5486,8.6832,8.7159,8.3933,8.5533,8.7475,8.8712,8.8972,8.9033,8.9006,8.8992,8.9006,8.9047,8.9019,8.9006,8.9047,8.9019,8.8992,8.8992,8.8992,8.8992,8.8992,8.8992,8.8992,8.8992,8.8992,8.8992,8.8992,8.8992,8.8992,8.8992,8.8992,8.8992,8.8992,8.8992,8.8992,8.8992,8.8992,8.8992,8.8992,8.8992,8.9019,8.9033,9.4,9.4,9.4,9.4,9.4,9.4,9.4,9.4263,9.4549,9.4849,9.5638,9.6464,9.7275,9.7853,9.8379,9.8852,9.8889,9.8889,9.8889,9.8889,9.8889,9.8889,9.8889,9.8739,9.8454,9.8454,9.7628,9.5923,9.5923,9.53,9.4,9.4,9.4,9.4,9.4,9.4,9.4,9.4,9.4,9.4,9.4,9.4,9.4,9.4,9.4,9.4,9.4,9.3775,9.3422,9.2897,9.2296,9.1582,9.0517,9.0005,8.9667,8.9142,8.8992,8.8992,8.8992,8.8992,8.8992,8.8992,8.8992,8.8992,8.8992,8.8992,8.8992,8.8992,8.8992,8.9104,8.9405,8.9442,8.8702,8.643,8.7548,8.7973,8.5851,8.7095,8.8418,8.8944,8.8992,8.8992,8.8992,8.8992,8.8992,8.8992,8.8992,8.8992,8.8992,8.8992,8.8992,8.8992,8.8992,8.8992,8.8992,8.8992,8.8992,8.8992,8.8992,8.8992,8.8992,8.8992,8.8992,8.8992,8.8992,8.8992,8.8992,8.8992,8.8992,8.8992,8.8992,8.8992,8.8992,8.8992,8.8992,8.8992,9.4,9.4,9.4,9.4,9.4,9.4,9.4,9.4,9.4075,9.4338,9.4849,9.56,9.6674,9.7328,9.8003,9.8814,9.8889,9.8889,9.8889,9.8889,9.8889,9.8889,9.8889,9.8776,9.8529,9.8529,9.7703,9.5998,9.5998,9.5337,9.4,9.4,9.4,9.4,9.4,9.4,9.4,9.4,9.4,9.4,9.4,9.4,9.4,9.4,9.4,9.4,9.4,9.4,9.3925,9.331,9.2934,9.2521,9.1357,9.063,9.0029,8.9254,8.8992,8.8992,8.8992,8.8992,8.8992,8.8992,8.8992,8.8992,8.8992,8.8992,8.8992,8.8992,8.8992,8.8992,8.8992,8.8992,8.8712,8.7774,8.838,8.8675,8.7774,8.8418,8.8992,8.8992,8.8992,8.8992,8.8992,8.8992,8.8992,8.8992,8.8992,8.8992,8.8992,8.8992,8.8992,8.8992,8.8992,8.8992,8.8992,8.8992,8.8992,8.8992,8.8992,8.8992,8.8992,8.8992,8.8992,8.8992,8.8992,8.8992,8.8992,8.8992,8.8992,8.8992,8.8992,8.8992,8.8992,8.8992,8.8992,8.8992,9.4,9.4,9.4,9.4,9.4,9.4,9.4,9.4,9.4301,9.5075,9.5187,9.5826,9.7478,9.7703,9.8003,9.8814,9.8889,9.8889,9.8889,9.8889,9.8889,9.8889,9.8889,9.8529,9.7703,9.7703,9.6877,9.5187,9.5187,9.4774,9.4,9.4,9.4,9.4,9.4,9.4,9.4,9.4,9.4,9.4,9.4,9.4,9.4,9.4,9.4,9.4,9.4,9.4,9.4,9.4,9.3422,9.2709,9.2709,9.1531,9.0029,8.9254,8.8992,8.8992,8.8992,8.8992,8.8992,8.8992,8.8992,8.8992,8.8992,8.8992,8.8992,8.8992,8.8992,8.8992,8.8992,8.8992,8.8992,8.8992,8.8992,8.8992,8.8992,8.8992,8.8992,8.8992,8.8992,8.8992,8.8992,8.8992,8.8992,8.8992,8.8992,8.8992,8.8992,8.8992,8.8992,8.8992,8.8992,8.8992,8.8992,8.8992,8.8992,8.8992,8.8992,8.8992,8.8992,8.8992,8.8992,8.8992,8.8992,8.8992,8.8992,8.8992,8.8992,8.8992,8.8992,8.8992,8.8992,8.8992,8.8992,8.8992,9.4,9.4,9.4,9.4,9.4,9.4,9.4,9.4,9.4075,9.4338,9.4849,9.5375,9.5901,9.699,9.7778,9.8041,9.8567,9.8889,9.8889,9.8379,9.8079,9.8079,9.8079,9.7966,9.7703,9.7102,9.6276,9.5187,9.5187,9.4774,9.4,9.4,9.4,9.4,9.4,9.4,9.4,9.4,9.4,9.4,9.4,9.4,9.4,9.4,9.4,9.4,9.4,9.4,9.4,9.4,9.385,9.3399,9.2221,9.1094,9.0029,8.9254,8.8992,8.8992,8.8992,8.8992,8.8992,8.8992,8.8992,8.8992,8.8992,8.8992,8.8992,8.8992,8.8992,8.8992,8.8992,8.8992,8.8992,8.8992,8.8992,8.8992,8.8992,8.8992,8.8992,8.8992,8.8992,8.8992,8.8992,8.8992,8.8992,8.8992,8.8992,8.8992,8.8992,8.8992,8.8992,8.8992,8.8992,8.8992,8.8992,8.8992,8.8992,8.8992,8.8992,8.8992,8.8992,8.8992,8.8992,8.8992,8.8992,8.8992,8.8992,8.8992,8.8992,8.8992,8.8992,8.8992,8.8992,8.8992,8.8992,8.8992,9.4,9.4263,9.4376,9.4075,9.4263,9.4489,9.4489,9.4489,9.4586,9.4924,9.5375,9.5675,9.5675,9.6577,9.7177,9.7177,9.7966,9.8416,9.8416,9.8266,9.7891,9.7215,9.7177,9.7027,9.6727,9.6201,9.5525,9.4737,9.4737,9.4489,9.4,9.4,9.4,9.4,9.4,9.4,9.4,9.4,9.4,9.4,9.4,9.4,9.4,9.4,9.4,9.4,9.4,9.4,9.4,9.4,9.4,9.3775,9.2409,9.1395,9.0569,8.9705,8.9254,8.8992,8.8992,8.8992,8.8992,8.8992,8.8992,8.8992,8.8992,8.8992,8.8992,8.8992,8.8992,8.8992,8.8992,8.8992,8.8992,8.8992,8.8992,8.8992,8.8992,8.8992,8.8992,8.8992,8.8992,8.8992,8.8992,8.8992,8.8992,8.8992,8.8992,8.8992,8.8992,8.8992,8.8992,8.8992,8.8992,8.8992,8.8992,8.8992,8.8992,8.8992,8.8992,8.8992,8.8992,8.8992,8.8992,8.8992,8.8992,8.8992,8.8992,8.8992,8.9179,8.9442,8.9104,8.9179,8.9442,8.9104,8.8992,8.8992,9.4075,9.4699,9.4999,9.4338,9.4812,9.53,9.53,9.53,9.5563,9.6299,9.6486,9.6486,9.6411,9.6524,9.6561,9.6411,9.7215,9.7741,9.7778,9.8341,9.7988,9.6486,9.6261,9.5848,9.5112,9.5075,9.4737,9.4,9.4,9.4,9.4,9.4,9.4,9.4,9.4,9.4,9.4,9.4,9.4,9.4,9.4,9.4,9.4,9.4,9.4,9.4,9.4,9.4,9.4,9.4,9.4,9.385,9.2972,9.2146,9.1334,9.0456,8.963,8.8992,8.8992,8.8992,8.8992,8.8992,8.8992,8.8992,8.8992,8.8992,8.8992,8.8992,8.8992,8.8992,8.8992,8.8992,8.8992,8.8992,8.8992,8.8992,8.8992,8.8992,8.8992,8.8992,8.8992,8.8992,8.8992,8.8992,8.8992,8.8992,8.8992,8.8992,8.8992,8.8992,8.8992,8.8992,8.8992,8.8992,8.8992,8.8992,8.8992,8.8992,8.8992,8.8992,8.8992,8.8992,8.8992,8.8992,8.8992,8.8992,8.8992,8.8992,8.9442,9.0029,8.9292,8.9442,9.0005,8.9254,8.8992,8.8992,9.4812,9.5075,9.5337,9.5811,9.5998,9.6148,9.6148,9.6148,9.6186,9.6374,9.699,9.7177,9.6486,9.7575,9.7838,9.6524,9.7215,9.7966,9.8604,9.7575,9.6787,9.6411,9.5187,9.4451,9.4263,9.4263,9.4188,9.4,9.4,9.4,9.4,9.4,9.4,9.4,9.4,9.4,9.4,9.4,9.4,9.4,9.4,9.4,9.4,9.4,9.4,9.4,9.4,9.4,9.4,9.4,9.4,9.385,9.2972,9.2146,9.1334,9.0456,8.963,8.8992,8.8992,8.8992,8.8992,8.8992,8.8992,8.8992,8.8992,8.8992,8.8992,8.8992,8.8992,8.8992,8.8992,8.8992,8.8992,8.8992,8.8992,8.8992,8.8992,8.8992,8.8992,8.8992,8.8992,8.8992,8.8992,8.8992,8.8992,8.8992,8.8992,8.8992,8.8992,8.8992,8.8992,8.8992,8.8992,8.8992,8.8992,8.8992,8.8992,8.8992,8.8992,8.8992,8.8992,8.8992,8.8992,8.8992,8.8992,8.8992,8.8992,8.8992,8.9104,8.9254,8.9067,8.9104,8.9254,8.9067,8.8992,8.8992,9.4564,9.5262,9.5788,9.5811,9.6501,9.7027,9.7027,9.7027,9.7162,9.7538,9.7988,9.7966,9.7102,9.7816,9.7816,9.6524,9.7215,9.7553,9.7177,9.7065,9.6501,9.53,9.4812,9.4413,9.4,9.4,9.4,9.4,9.4,9.4,9.4,9.4,9.4,9.4,9.4,9.4,9.4,9.4,9.4,9.4,9.4,9.4,9.4,9.4,9.4,9.4,9.4,9.4,9.4,9.4,9.4,9.3925,9.346,9.2747,9.192,9.1057,9.0231,8.948,8.9104,8.8992,8.8992,8.8992,8.8992,8.8992,8.8992,8.8992,8.8992,8.8992,8.8992,8.8992,8.8992,8.8992,8.8992,8.8992,8.8992,8.8992,8.8992,8.8992,8.8992,8.8992,8.8992,8.8992,8.8992,8.8992,8.8992,8.8992,8.8992,8.8992,8.8992,8.8992,8.8992,8.8992,8.8992,8.8992,8.8992,8.8992,8.8992,8.8992,8.8992,8.8992,8.8992,8.8992,8.8992,8.8992,8.8992,8.8992,8.8992,8.8992,8.9217,8.9517,8.9142,8.9217,8.9517,8.9142,8.8992,8.8992,9.4376,9.5488,9.6261,9.5901,9.699,9.7891,9.7891,9.7845,9.8023,9.8699,9.8811,9.8549,9.7889,9.7701,9.7348,9.6786,9.7123,9.6898,9.581,9.6696,9.6426,9.4489,9.4774,9.4662,9.4,9.4,9.4,9.4,9.4,9.4,9.4,9.4,9.4,9.4,9.4,9.4,9.4,9.4,9.4,9.4,9.4,9.4,9.4,9.4,9.4,9.4,9.4,9.4,9.4,9.4,9.4,9.4,9.4,9.3385,9.2559,9.1883,9.0982,9.0029,8.9405,8.9104,8.8992,8.8992,8.8992,8.8992,8.8992,8.8992,8.8992,8.8992,8.8992,8.8992,8.8992,8.8992,8.8992,8.8992,8.8992,8.8992,8.8992,8.8992,8.8992,8.8992,8.8992,8.8992,8.8992,8.8992,8.8992,8.8992,8.8992,8.8992,8.8992,8.8992,8.8992,8.8992,8.8992,8.8992,8.8992,8.8992,8.8992,8.8992,8.8992,8.8992,8.8992,8.8992,8.8992,8.8992,8.8992,8.8992,8.8992,8.8992,8.9405,8.993,8.9254,8.9405,8.993,8.9254,8.8992,8.9029,9.5923,9.6261,9.6824,9.8176,9.8589,9.8739,9.8739,9.8429,9.8273,9.8369,9.8385,9.8348,9.8236,9.76,9.7413,9.7995,9.6874,9.665,9.7808,9.6409,9.5713,9.6073,9.4849,9.4113,9.4,9.4,9.4,9.4,9.4,9.4,9.4,9.4,9.4,9.4,9.4,9.4,9.4,9.4,9.4,9.4,9.4,9.4,9.4,9.4,9.4,9.4,9.4,9.4,9.4,9.4,9.4,9.4,9.4,9.3385,9.2671,9.2559,9.1432,9.0179,9.0066,8.9517,8.8992,8.8992,8.8992,8.8992,8.8992,8.8992,8.8992,8.8992,8.8992,8.8992,8.8992,8.8992,8.8992,8.8992,8.8992,8.8992,8.8992,8.8992,8.8992,8.8992,8.8992,8.8992,8.8992,8.8992,8.8992,8.8992,8.8992,8.8992,8.8992,8.8992,8.8992,8.8992,8.8992,8.8992,8.8992,8.8992,8.8992,8.8992,8.8992,8.8992,8.8992,8.8992,8.8992,8.8992,8.8992,8.8992,8.8992,8.8992,8.9067,8.9142,8.9029,8.9067,8.9142,8.9029,8.8992,8.9104,9.6336,9.6787,9.7304,9.7792,9.8284,9.8504,9.8324,9.8121,9.802,9.802,9.802,9.8087,9.8287,9.7967,9.7678,9.7366,9.6845,9.666,9.6959,9.5853,9.5375,9.5713,9.4624,9.4,9.4,9.4,9.4,9.4,9.4,9.4,9.4,9.4,9.4,9.4,9.4,9.4,9.4,9.4,9.4,9.4,9.4,9.4,9.4,9.4,9.4,9.4,9.4,9.4,9.4,9.4,9.4,9.4,9.4,9.3737,9.331,9.2859,9.2183,9.1395,9.0442,8.993,8.9555,8.9104,8.8992,8.8992,8.8992,8.8992,8.8992,8.8992,8.8992,8.8992,8.8992,8.8992,8.8992,8.8992,8.8992,8.8992,8.8992,8.8992,8.8992,8.8992,8.9405,8.948,8.9029,8.8992,8.8992,8.8992,8.8992,8.8992,8.8992,8.8992,8.8992,8.8992,8.8992,8.8992,8.8992,8.8992,8.8992,8.8992,8.8992,8.8992,8.8992,8.8992,8.8992,8.8992,8.8992,8.8992,8.8992,8.8992,8.8992,8.8992,8.8992,8.8992,8.8992,8.8992,8.8992,8.9029]}]]